[[[{"header":{"parameterUnit":"kt","parameterCategory":2,"dx":1,"dy":1,"la1":29.285339999999998,"la2":30.599998999999997,"lo1":-89.70041500000002,"lo2":-87.6738589999976,"nx":112,"ny":82,"refTime":"2022-11-01T12:00:00:Z","depth":0,"parameterNumber":1,"parameterNumberName":"U-component_of_WINDS"},"data":[-11.1331,-10.9819,-10.8539,-10.819,-10.5514,-10.3013,-10.3013,-10.0396,-9.7313,-9.5103,-9.3563,-9.2078,-8.9984,-8.8472,-8.725,-8.6357,-8.4458,-8.2539,0.0,-8.0619,-8.0328,-8.0328,0.0,0.0,0.0,0.0,0.0,-10.406,-10.7957,-10.9644,-10.8074,-10.8306,-10.8714,-10.9279,-11.1215,-11.2494,-11.296,-11.4239,-11.4879,-11.4879,-11.4879,-11.4879,-11.4879,-11.4879,-11.4879,-11.4879,-11.4879,-11.4879,-11.4879,-11.4879,-11.5926,-11.7613,-11.8486,-11.9882,-12.1341,-12.1025,-11.6618,-11.014,-10.473,-10.2887,-10.3228,-10.5376,-10.6059,-10.645,-10.8597,-10.928,-10.9183,-10.8792,-10.8988,-10.9183,-10.8792,-10.7377,-10.6059,-10.6059,-10.3619,-10.1081,-10.0397,-9.9958,-9.9568,-9.9226,-10.03,-10.1422,-10.1764,-10.2398,-10.2887,-10.2887,-10.2887,-10.2887,-10.2887,-10.2887,-10.2887,-10.2887,-10.2887,-10.2887,-10.2887,-10.2887,-10.2887,-10.2887,-10.2887,-10.2887,-10.2887,-10.2887,-10.3033,-10.3423,-10.3082,-10.3082,-10.3423,-10.3033,-10.2887,-10.2887,-10.2887,-10.2887,-10.947,-10.7259,-10.5224,-10.4816,-10.1443,-9.8302,-9.8302,-9.5335,-9.2078,-9.0333,-8.9286,-8.7984,-8.5912,-8.5427,-8.5098,-8.3818,-8.2888,-8.2439,0.0,-8.2439,-8.3546,-8.6631,-9.1787,-9.5684,-9.6964,-10.3653,-10.7201,-10.5456,-10.9644,-11.104,-10.8074,-10.8714,-10.9453,-10.9761,-11.1855,-11.3192,-11.3658,-11.4472,-11.4879,-11.4879,-11.4879,-11.4879,-11.4879,-11.4879,-11.4879,-11.4879,-11.4879,-11.4879,-11.4879,-11.4879,-11.5635,-11.6915,-11.8253,-11.9591,-12.0533,-11.92,-11.6222,-11.1764,-10.5124,-10.2887,-10.3228,-10.5376,-10.6059,-10.645,-10.8597,-10.928,-10.928,-10.928,-10.928,-10.928,-10.928,-10.7963,-10.6498,-10.6157,-10.3619,-10.0983,-9.9909,-9.908,-9.8445,-9.8055,-9.9177,-10.0397,-10.1129,-10.1569,-10.191,-10.2301,-10.235,-10.2447,-10.2838,-10.2887,-10.2887,-10.2887,-10.2887,-10.2887,-10.2887,-10.2887,-10.2887,-10.2887,-10.2887,-10.2887,-10.2887,-10.2887,-10.2887,-10.2887,-10.2887,-10.2887,-10.2887,-10.2887,-10.2887,-10.2887,-10.2887,-10.2887,-10.5573,-10.3362,-10.1617,-10.2839,-9.9349,-9.5655,-9.5597,-9.2601,-8.9088,-8.661,-8.6145,-8.5796,-8.4497,-8.4264,-8.3993,-8.2847,-8.2672,0.0,0.0,-8.2731,-8.6107,-9.5073,-9.9232,-10.2024,-10.3362,-10.9237,-11.1913,-10.9412,-11.2669,-11.3134,-10.9453,-10.9337,-10.9761,-11.0924,-11.232,-11.3658,-11.4879,-11.4879,-11.4879,-11.4879,-11.4879,-11.4879,-11.4879,-11.4879,-11.4879,-11.4879,-11.4879,-11.4879,-11.4879,-11.4879,-11.5635,-11.6857,-11.8195,-11.9365,-11.9692,-11.3256,-11.1556,-11.164,-10.5206,-10.2838,-10.3228,-10.5376,-10.6059,-10.645,-10.8597,-10.928,-10.928,-10.928,-10.928,-10.928,-10.928,-10.8451,-10.7377,-10.6254,-10.3619,-10.0983,-9.986,-9.7908,-9.6688,-9.7762,-9.8006,-9.8689,-10.0837,-10.03,-10.0007,-10.1081,-10.1227,-10.1618,-10.2691,-10.2838,-10.2838,-10.2887,-10.2887,-10.2887,-10.2887,-10.2887,-10.2887,-10.2887,-10.2887,-10.2887,-10.2887,-10.2887,-10.2887,-10.2887,-10.2887,-10.2887,-10.2887,-10.2887,-10.2887,-10.2887,-10.2887,-10.2887,-10.2897,-10.0687,-9.8593,-9.8011,-9.4695,-9.138,-9.0391,-8.789,-8.5543,-8.4846,-8.5427,0.0,0.0,0.0,-8.7192,-8.7832,0.0,-8.7948,-8.7948,-8.9519,-9.3707,-10.1792,-10.1966,-10.2722,-10.5922,-11.0284,-11.1913,-10.9412,-11.1855,-11.1855,-10.8016,-10.9528,-11.0633,-11.0982,-11.3192,-11.453,-11.4879,-11.4879,-11.4879,-11.4879,-11.4879,-11.4879,-11.4879,-11.4879,-11.4879,-11.4879,-11.4879,-11.4879,-11.4879,-11.4879,-11.5112,-11.5519,-11.6857,-11.6714,-11.5395,-11.3854,-11.141,-10.872,-10.6089,-10.4164,-10.3228,-10.5376,-10.6059,-10.645,-10.8597,-10.928,-10.928,-10.928,-10.928,-10.928,-10.928,-10.8451,-10.7182,-10.5278,-10.3033,-10.0739,-9.8884,-9.7371,-9.6493,-9.6786,-9.7469,-9.8201,-9.8787,-9.864,-9.8836,-9.9958,-10.0105,-10.0495,-10.1569,-10.1715,-10.2008,-10.2789,-10.2887,-10.2887,-10.2887,-10.2887,-10.2887,-10.2887,-10.2887,-10.2887,-10.2887,-10.2887,-10.2887,-10.2887,-10.2887,-10.2887,-10.2887,-10.2887,-10.2887,-10.2887,-10.2887,-10.2887,-9.8883,-9.6382,-9.4202,-9.3532,-9.0856,-8.8181,-8.7425,-8.568,-8.4439,-8.5543,0.0,0.0,0.0,0.0,0.0,0.0,-9.2078,-9.266,-9.3098,-9.4521,-9.8302,-10.6038,-10.6096,-10.6329,-10.8597,-11.1855,-11.2494,-10.9512,-11.1564,-11.1331,-10.7492,-10.9644,-11.0982,-11.0982,-11.3541,-11.4879,-11.4879,-11.4879,-11.4879,-11.4879,-11.4879,-11.4879,-11.4879,-11.4879,-11.4879,-11.4879,-11.4879,-11.4879,-11.4879,-11.4879,-11.4879,-11.4937,-11.5694,-11.479,-11.2914,-11.1718,-10.9426,-10.683,-10.4736,-10.3573,-10.3082,-10.4302,-10.5327,-10.645,-10.8597,-10.928,-10.928,-10.928,-10.928,-10.928,-10.928,-10.8792,-10.767,-10.5034,-10.3131,-10.1227,-9.8591,-9.7176,-9.6395,-9.6395,-9.6883,-9.7322,-9.7322,-9.7322,-9.7713,-9.8836,-9.8982,-9.9372,-10.0446,-10.1032,-10.152,-10.2154,-10.2594,-10.2887,-10.2887,-10.2887,-10.2887,-10.2887,-10.2887,-10.2887,-10.2887,-10.2887,-10.2887,-10.2887,-10.2887,-10.2887,-10.2887,-10.2887,-10.2887,-10.2887,-10.2887,-10.2887,-9.4172,-9.1554,-8.9809,-8.9553,-8.7948,-8.6378,-8.6552,0.0,-8.5775,-8.8413,0.0,-9.0275,-9.4056,0.0,0.0,-9.5103,-9.5975,-9.708,-9.827,-9.8793,-10.185,-10.9004,-11.0517,-11.104,-11.1215,-11.3192,-11.3018,-10.9644,-11.1506,-11.1273,-10.7899,-10.9935,-11.1215,-11.1215,-11.36,-11.4879,-11.4879,-11.4879,-11.4879,-11.4879,-11.4879,-11.4879,-11.4879,-11.4879,-11.4879,-11.4879,-11.4879,-11.4879,-11.4879,-11.4879,-11.4879,-11.4774,-11.4082,-11.2885,-11.1234,-10.7805,-10.6085,-10.5045,-10.2029,-10.1715,-10.2545,-10.2789,-10.4156,-10.6108,-10.8255,-10.9085,-10.928,-10.928,-10.928,-10.928,-10.928,-10.928,-10.8451,-10.5181,-10.3619,-10.2008,-9.8689,-9.7176,-9.6395,-9.6395,-9.6395,-9.6395,-9.6395,-9.6395,-9.6737,-9.7664,-9.7811,-9.8201,-9.9324,-10.0349,-10.0934,-10.1081,-10.2057,-10.2691,-10.2691,-10.2789,-10.2887,-10.2887,-10.2887,-10.2887,-10.2887,-10.2887,-10.2887,-10.2887,-10.2887,-10.2887,-10.2887,-10.2887,-10.2887,-10.2887,-10.2887,-10.2887,-8.9635,-8.8821,-8.8181,-8.7134,-8.7308,-8.7948,0.0,0.0,0.0,-9.3851,-9.5103,-9.6673,-9.9465,-9.9989,-10.0687,-10.2839,-10.2432,-10.2373,-10.3711,-10.6503,-10.9761,-11.3367,-11.2145,-11.1389,-11.2494,-11.2087,-11.1447,-11.0691,-11.1098,-11.104,-11.0284,-11.1738,-11.2611,-11.2611,-11.4065,-11.4879,-11.4879,-11.4879,-11.4879,-11.4879,-11.4879,-11.4879,-11.4879,-11.4879,-11.4879,-11.4879,-11.4879,-11.4879,-11.4879,-11.4879,-11.4879,-11.4458,-10.9399,-10.78,-10.7743,-10.378,-10.1746,-10.0816,-10.0218,-10.0105,-10.0593,-10.2301,-10.3179,-10.3912,-10.601,-10.7865,-10.928,-10.928,-10.928,-10.928,-10.928,-10.928,-10.8451,-10.5181,-10.3619,-10.2008,-9.8689,-9.7176,-9.6395,-9.6395,-9.6395,-9.6395,-9.6395,-9.6395,-9.6493,-9.6688,-9.6688,-9.7078,-9.8201,-9.8494,-9.8982,-9.9909,-10.0934,-10.1569,-10.1569,-10.2398,-10.2887,-10.2887,-10.2887,-10.2887,-10.2887,-10.2887,-10.2887,-10.2887,-10.2887,-10.2887,-10.2887,-10.2887,-10.2887,-10.2887,-10.2887,-10.2887,-8.6843,-8.6145,-8.6145,-8.6145,-8.7076,0.0,0.0,-9.202,-9.3997,-9.7836,-9.9116,-10.0919,-10.5398,-10.6271,-10.691,-10.8888,-10.8597,-10.8655,-10.9935,-11.1215,-11.2727,-11.4647,-11.4298,-11.389,-11.3949,-11.3309,-11.2669,-11.2029,-11.1389,-11.0982,-11.0982,-11.2262,-11.296,-11.296,-11.4239,-11.4879,-11.4879,-11.4879,-11.4879,-11.4879,-11.4879,-11.4879,-11.4879,-11.4879,-11.4879,-11.4879,-11.4879,-11.4879,-11.4774,-11.3172,-11.1655,-10.9954,-10.6865,-10.5165,-10.3885,-10.1813,-10.0151,-9.8836,-9.8836,-9.9226,-9.9958,-10.1569,-10.2106,-10.2594,-10.5229,-10.6791,-10.7865,-10.8988,-10.928,-10.928,-10.928,-10.928,-10.8451,-10.5181,-10.3619,-10.2008,-9.8689,-9.7176,-9.6395,-9.6395,-9.6395,-9.6395,-9.6395,-9.6395,-9.6395,-9.6395,-9.6395,-9.659,-9.7127,-9.7664,-9.8201,-9.8787,-9.9812,-10.0495,-10.0495,-10.0983,-10.152,-10.2057,-10.2106,-10.2301,-10.2887,-10.2887,-10.2887,-10.2887,-10.2887,-10.2887,-10.2887,-10.2887,-10.2887,-10.2887,-10.2887,-10.2887,-8.502,-8.4148,-8.4439,-8.5796,-8.7483,0.0,-9.2427,-9.4637,-9.7487,-10.2315,-10.3537,-10.534,-11.0749,-11.1738,-11.2087,-11.3192,-11.3134,-11.3425,-11.4705,-11.4007,-11.3774,-11.4763,-11.5984,-11.6217,-11.4647,-11.4763,-11.4356,-11.3076,-11.1971,-11.1506,-11.1738,-11.2785,-11.3367,-11.3367,-11.4356,-11.4879,-11.4879,-11.4879,-11.4879,-11.4879,-11.4879,-11.4879,-11.4879,-11.4879,-11.4879,-11.4879,-11.4879,-11.4563,-11.3706,-11.1272,-10.845,-10.5603,-10.4326,-10.2797,-10.1058,-10.0334,-9.9155,-9.7713,-9.7908,-9.8445,-9.9275,-10.0544,-10.0837,-10.1227,-10.4204,-10.5278,-10.5913,-10.806,-10.8939,-10.928,-10.928,-10.928,-10.8499,-10.5425,-10.3765,-10.2057,-9.8982,-9.7322,-9.6395,-9.6395,-9.6395,-9.6395,-9.6395,-9.6395,-9.6395,-9.6395,-9.6395,-9.6395,-9.6395,-9.7176,-9.7664,-9.7664,-9.8689,-9.9324,-9.9324,-9.9568,-10.0056,-10.0934,-10.0983,-10.1471,-10.2545,-10.2545,-10.2691,-10.2887,-10.2887,-10.2887,-10.2887,-10.2887,-10.2887,-10.2887,-10.2887,-10.2887,-8.4264,-8.4148,-8.4439,-8.5796,-8.8821,0.0,-9.6062,-10.0687,-10.5224,-10.9121,-11.0866,-11.2262,-11.4123,-11.4472,-11.4472,-11.4647,-11.3716,-11.3425,-11.4705,-11.4763,-11.4705,-11.4879,-11.5984,-11.5868,-11.3425,-11.4239,-11.4356,-11.3076,-11.2843,-11.3251,-11.4414,-11.4588,-11.4705,-11.4705,-11.4821,-11.4879,-11.4879,-11.4879,-11.4879,-11.4879,-11.4879,-11.4879,-11.4879,-11.4879,-11.4879,-11.4879,-11.4879,-11.3279,-11.0725,-11.0395,-10.845,-10.5194,-9.9656,-9.8973,-10.0817,-9.7915,-9.682,-9.6737,-9.7664,-9.7469,-9.7127,-9.9177,-9.9177,-9.8787,-10.1129,-10.2496,-10.3667,-10.5815,-10.7767,-10.928,-10.928,-10.928,-10.8695,-10.6401,-10.4351,-10.2252,-10.0007,-9.7859,-9.6395,-9.6395,-9.6395,-9.6395,-9.6395,-9.6395,-9.6395,-9.6395,-9.6395,-9.6395,-9.6395,-9.6493,-9.659,-9.659,-9.7567,-9.8201,-9.8201,-9.9128,-9.9714,-9.986,-9.986,-10.0349,-10.1422,-10.1471,-10.191,-10.2887,-10.2887,-10.2887,-10.2887,-10.2887,-10.2887,-10.2887,-10.2887,-10.2887,-8.4148,-8.4729,-8.6029,-8.8821,0.0,0.0,-10.1094,-10.5514,-10.9295,-11.168,-11.3192,-11.4472,-11.5752,-11.5984,-11.5984,-11.5984,-11.4937,-11.4298,-11.4821,-11.4879,-11.517,-11.5926,-11.645,-11.6392,-11.5286,-11.5694,-11.5461,-11.4181,-11.4123,-11.4298,-11.4879,-11.4879,-11.4879,-11.4879,-11.4879,-11.4879,-11.4879,-11.4879,-11.4879,-11.4879,-11.4879,-11.4879,-11.4879,-11.4879,-11.4879,-11.4774,-11.29,-11.1438,-10.9898,-10.6354,-10.3151,-10.0021,-9.7469,-9.722,-9.8286,-9.6846,-9.6395,-9.6444,-9.6932,-9.6786,-9.6639,-9.8201,-9.7957,-9.7615,-10.0446,-10.1178,-10.1715,-10.5132,-10.6694,-10.767,-10.8939,-10.928,-10.8743,-10.6596,-10.4888,-10.3033,-10.03,-9.8445,-9.7127,-9.6542,-9.6395,-9.6395,-9.6395,-9.6395,-9.6395,-9.6395,-9.6395,-9.6395,-9.6395,-9.6395,-9.6395,-9.6395,-9.6786,-9.7078,-9.7078,-9.7518,-9.8055,-9.8689,-9.8689,-9.9177,-10.03,-10.0349,-10.0837,-10.191,-10.1959,-10.2252,-10.2887,-10.2252,-10.2252,-10.2887,-10.2887,-10.2887,-8.4032,0.0,0.0,0.0,0.0,0.0,-10.3828,-10.8306,-11.1796,-11.2785,-11.4298,-11.5694,-11.6624,-11.6799,-11.6682,-11.6333,-11.5519,-11.4879,-11.4879,-11.4879,-11.5345,-11.6624,-11.6799,-11.6799,-11.6799,-11.6799,-11.6275,-11.4996,-11.4879,-11.4879,-11.4879,-11.4879,-11.4879,-11.4879,-11.4879,-11.4879,-11.4879,-11.4879,-11.4879,-11.4879,-11.4879,-11.4879,-11.4879,-11.4879,-11.4879,-11.4669,-11.1547,-10.9232,-10.7266,-10.1965,-9.8482,-9.6395,-9.6395,-9.6395,-9.6395,-9.6395,-9.6395,-9.6395,-9.6395,-9.6395,-9.6542,-9.7322,-9.703,-9.6834,-9.9226,-9.9616,-9.9909,-10.3326,-10.4936,-10.601,-10.7914,-10.8597,-10.8353,-10.6498,-10.4985,-10.3179,-10.03,-9.9031,-9.8055,-9.6688,-9.6395,-9.6395,-9.6395,-9.6395,-9.6395,-9.6395,-9.6395,-9.6395,-9.6395,-9.6395,-9.6395,-9.6395,-9.6395,-9.6395,-9.6395,-9.6395,-9.6737,-9.7518,-9.7567,-9.8055,-9.9177,-9.9226,-9.9714,-10.0837,-10.0837,-10.1374,-10.2447,-10.1666,-10.1666,-10.2447,-10.274,-10.2887,0.0,0.0,0.0,-9.0973,-9.5742,-10.0221,-10.2839,-10.8365,-11.296,-11.296,-11.4996,-11.6741,-11.6799,-11.6799,-11.6392,-11.517,-11.4937,-11.4879,-11.4879,-11.4879,-11.5345,-11.6624,-11.6799,-11.6799,-11.6799,-11.6799,-11.6275,-11.4996,-11.4879,-11.4879,-11.4879,-11.4879,-11.4879,-11.4879,-11.4879,-11.4879,-11.4879,-11.4879,-11.4879,-11.4879,-11.4879,-11.4879,-11.4879,-11.4879,-11.4879,-11.4669,-11.1547,-10.6811,-10.1178,-9.7915,-9.652,-9.6395,-9.6395,-9.6395,-9.6395,-9.6395,-9.6395,-9.6395,-9.6395,-9.6395,-9.6395,-9.6444,-9.6444,-9.6444,-9.6542,-9.7274,-9.8299,-9.9519,-10.2057,-10.4692,-10.5864,-10.6938,-10.7426,-10.6303,-10.4448,-10.235,-10.0153,-9.9665,-9.8982,-9.6834,-9.6395,-9.6395,-9.6395,-9.6395,-9.6395,-9.6395,-9.6395,-9.6395,-9.6395,-9.6395,-9.6395,-9.6395,-9.6395,-9.6395,-9.6395,-9.6395,-9.6444,-9.6444,-9.6444,-9.6932,-9.8006,-9.8055,-9.8591,-9.9714,-9.9714,-10.0251,-10.1325,-10.1325,-10.1325,-10.1374,-10.2398,-10.2887,-8.6203,-8.8355,-9.1147,-9.5859,-10.0861,-10.534,-10.7841,-11.2087,-11.5286,-11.4414,-11.5635,-11.6508,-11.5694,-11.5519,-11.5403,-11.4937,-11.4879,-11.4879,-11.4879,-11.4879,-11.5694,-11.7846,-11.6566,-11.6217,-11.7962,-11.6566,-11.5345,-11.4937,-11.4879,-11.4879,-11.4879,-11.4879,-11.4879,-11.4879,-11.4879,-11.4879,-11.4879,-11.4879,-11.4879,-11.4879,-11.4879,-11.4879,-11.4879,-11.4879,-11.3706,-11.1655,-10.8562,-10.4908,-10.0817,-9.7668,-9.6395,-9.6395,-9.6395,-9.6395,-9.6395,-9.6395,-9.6395,-9.6395,-9.6395,-9.6395,-9.6395,-9.6395,-9.6395,-9.6395,-9.6395,-9.6639,-9.7322,-9.9177,-10.0983,-10.274,-10.4497,-10.6303,-10.7377,-10.6303,-10.4936,-10.3131,-10.03,-10.0251,-10.0105,-9.7908,-9.7469,-9.7225,-9.6542,-9.6395,-9.6395,-9.6395,-9.6395,-9.6395,-9.6395,-9.6395,-9.6395,-9.6395,-9.6395,-9.6395,-9.6395,-9.6395,-9.6395,-9.6395,-9.6395,-9.6542,-9.6932,-9.6932,-9.7469,-9.8543,-9.8591,-9.8738,-9.908,-9.908,-9.986,-10.1276,-10.1666,-10.2203,-8.7366,-9.0275,-9.3765,-9.8418,-10.3479,-10.7841,-10.9877,-11.3367,-11.5752,-11.4472,-11.5228,-11.5868,-11.5054,-11.4879,-11.4879,-11.4879,-11.4879,-11.4879,-11.4879,-11.4879,-11.5868,-11.8486,-11.6508,-11.5926,-11.8544,-11.645,-11.4879,-11.4879,-11.4879,-11.4879,-11.4879,-11.4879,-11.4879,-11.4879,-11.4879,-11.4879,-11.4879,-11.4879,-11.4879,-11.4879,-11.4879,-11.4879,-11.4879,-11.3706,-11.2089,-11.0009,-10.5834,-10.2322,-9.929,-9.722,-9.6395,-9.6395,-9.6395,-9.6395,-9.6395,-9.6395,-9.6395,-9.6395,-9.6395,-9.6395,-9.6395,-9.6395,-9.6395,-9.6395,-9.6395,-9.6395,-9.6688,-9.8103,-9.986,-10.1618,-10.2935,-10.5181,-10.6791,-10.5717,-10.4888,-10.3521,-10.0349,-10.0544,-10.0739,-9.8933,-9.8299,-9.7762,-9.7078,-9.6639,-9.6395,-9.6395,-9.6395,-9.6395,-9.6395,-9.6395,-9.6395,-9.6395,-9.6395,-9.6395,-9.6395,-9.6395,-9.6395,-9.6395,-9.6395,-9.6395,-9.6395,-9.6395,-9.6737,-9.742,-9.742,-9.742,-9.742,-9.742,-9.8543,-10.0739,-10.1129,-10.1862,-8.7599,-9.1147,-9.4986,-9.8883,-10.3711,-10.7783,-10.9121,-11.2262,-11.453,-11.3309,-11.4065,-11.4879,-11.4879,-11.4879,-11.4879,-11.4879,-11.4879,-11.4879,-11.4879,-11.4879,-11.5868,-11.8486,-11.6508,-11.5926,-11.8544,-11.645,-11.4879,-11.4879,-11.4879,-11.4879,-11.4879,-11.4879,-11.4879,-11.4879,-11.4879,-11.4879,-11.4879,-11.4879,-11.4879,-11.4879,-11.4879,-11.4879,-11.4774,-11.1655,-11.0009,-10.9455,-10.3452,-9.9168,-9.6395,-9.6395,-9.6395,-9.6395,-9.6395,-9.6395,-9.6395,-9.6395,-9.6395,-9.6395,-9.6395,-9.6395,-9.6395,-9.6395,-9.6395,-9.6395,-9.6395,-9.6395,-9.6395,-9.6395,-9.8689,-10.1129,-10.1129,-10.3521,-10.562,-10.4497,-10.4253,-10.3472,-10.0495,-10.0544,-10.0885,-9.9812,-9.8787,-9.8055,-9.7957,-9.7127,-9.6444,-9.6395,-9.6395,-9.6395,-9.6395,-9.6395,-9.6395,-9.6395,-9.6346,-9.6346,-9.6346,-9.6249,-9.6249,-9.6249,-9.6249,-9.6249,-9.6346,-9.6249,-9.6298,-9.6395,-9.6346,-9.6298,-9.6249,-9.6346,-9.7469,-9.9519,-10.069,-10.1764,-9.0624,-9.4463,-9.7836,-10.2664,-10.6969,-11.04,-11.168,-11.3541,-11.4821,-11.4472,-11.4647,-11.4879,-11.4879,-11.4879,-11.4879,-11.4879,-11.4879,-11.4879,-11.4879,-11.4879,-11.5868,-11.8486,-11.6508,-11.5926,-11.8544,-11.645,-11.4879,-11.4879,-11.4879,-11.4879,-11.4879,-11.4879,-11.4879,-11.4879,-11.4879,-11.4879,-11.4879,-11.4879,-11.4879,-11.4879,-11.4879,-11.4879,-11.4774,-11.1655,-10.7719,-10.3217,-9.929,-9.7096,-9.6395,-9.6395,-9.6395,-9.6395,-9.6395,-9.6395,-9.6395,-9.6395,-9.6395,-9.6395,-9.6395,-9.6395,-9.6395,-9.6395,-9.6395,-9.6395,-9.6395,-9.6395,-9.6395,-9.6395,-9.7567,-9.8836,-9.8836,-10.1276,-10.3423,-10.235,-10.2691,-10.3033,-10.2252,-10.1032,-9.9763,-9.864,-9.8884,-9.8738,-9.7078,-9.7225,-9.7322,-9.6542,-9.6395,-9.6395,-9.6395,-9.6395,-9.6395,-9.6395,-9.5663,-9.5224,-9.5224,-9.4443,-9.3955,-9.3955,-9.3955,-9.4345,-9.5175,-9.4394,-9.4736,-9.6346,-9.5614,-9.4784,-9.3955,-9.5614,-9.6688,-9.7274,-9.9177,-10.0641,-9.0391,-9.5684,-10.0454,-10.5049,-10.8597,-11.1331,-11.2669,-11.3949,-11.4879,-11.4879,-11.4879,-11.4879,-11.4879,-11.4879,-11.4879,-11.4879,-11.4879,-11.4879,-11.4879,-11.4879,-11.5635,-11.7671,-11.6101,-11.5694,-11.7729,-11.6101,-11.4879,-11.4879,-11.4879,-11.4879,-11.4879,-11.4879,-11.4879,-11.4879,-11.4879,-11.4879,-11.4879,-11.4879,-11.4879,-11.4879,-11.4879,-11.4188,-11.2685,-10.9622,-10.5665,-10.0938,-9.7791,-9.6395,-9.6395,-9.6395,-9.6395,-9.6395,-9.6395,-9.6395,-9.6395,-9.6395,-9.6395,-9.6395,-9.6395,-9.6395,-9.6395,-9.6395,-9.6395,-9.6395,-9.6395,-9.6395,-9.6395,-9.6395,-9.7176,-9.8006,-9.8006,-9.9714,-10.1325,-10.0739,-10.1032,-10.1471,-10.1471,-10.0153,-9.8884,-9.8787,-9.8836,-9.8543,-9.7322,-9.7225,-9.7078,-9.6493,-9.6395,-9.6395,-9.6395,-9.6395,-9.6249,-9.5761,-9.5175,-9.4589,-9.4101,-9.3467,-9.3125,-9.3125,-9.3125,-9.3418,-9.4052,-9.3467,-9.3711,-9.4931,-9.3467,-9.2832,-9.3125,-9.3906,-9.4784,-9.5761,-9.7957,-9.9519,-8.8704,-9.5393,-10.2024,-10.6445,-10.9295,-11.1389,-11.2902,-11.4123,-11.4879,-11.4879,-11.4879,-11.4879,-11.4879,-11.4879,-11.4879,-11.4879,-11.4879,-11.4879,-11.4879,-11.4879,-11.5345,-11.6624,-11.5694,-11.5403,-11.6682,-11.5635,-11.4879,-11.4879,-11.4879,-11.4879,-11.4879,-11.4879,-11.4879,-11.4879,-11.4879,-11.4879,-11.4879,-11.4879,-11.4879,-11.4879,-11.4879,-11.3279,-11.0119,-10.6637,-10.3387,-10.0334,-9.7544,-9.6395,-9.6395,-9.6395,-9.6395,-9.6395,-9.6395,-9.6395,-9.6395,-9.6395,-9.6395,-9.6395,-9.6395,-9.6395,-9.6395,-9.6395,-9.6395,-9.6395,-9.6395,-9.6395,-9.6395,-9.6395,-9.7078,-9.7811,-9.7811,-9.8591,-9.947,-9.947,-9.9372,-9.9226,-9.9226,-9.8494,-9.8103,-9.9031,-9.8445,-9.7811,-9.7957,-9.7225,-9.6542,-9.6444,-9.6395,-9.6395,-9.6395,-9.6395,-9.6005,-9.4931,-9.4687,-9.415,-9.3027,-9.2783,-9.2735,-9.2735,-9.2735,-9.2783,-9.293,-9.2783,-9.2735,-9.2735,-9.1075,-9.1026,-9.2735,-9.21,-9.2686,-9.4443,-9.659,-9.825,-8.8855,-9.4028,-9.9989,-10.7085,-10.9935,-11.1622,-11.4007,-11.4705,-11.4879,-11.4879,-11.4879,-11.4879,-11.4879,-11.4879,-11.4879,-11.4879,-11.4879,-11.4879,-11.4879,-11.4879,-11.5345,-11.6624,-11.5694,-11.5403,-11.6682,-11.5635,-11.4879,-11.4879,-11.4879,-11.4879,-11.4879,-11.4879,-11.4879,-11.4879,-11.4879,-11.4879,-11.4879,-11.4879,-11.4879,-11.4879,-11.4879,-11.3279,-11.0009,-10.4389,-10.0213,-9.722,-9.6646,-9.6395,-9.6395,-9.6395,-9.6395,-9.6395,-9.6395,-9.6395,-9.6395,-9.6395,-9.6395,-9.6395,-9.6395,-9.6395,-9.6395,-9.6395,-9.6395,-9.6395,-9.6395,-9.6395,-9.6395,-9.6395,-9.6542,-9.6688,-9.6688,-9.7469,-9.8299,-9.8299,-9.7615,-9.6981,-9.6981,-9.6834,-9.6737,-9.6932,-9.6834,-9.6981,-9.7859,-9.7859,-9.742,-9.6542,-9.6395,-9.6395,-9.6395,-9.6395,-9.6005,-9.4931,-9.3955,-9.2979,-9.1834,-9.1075,-9.0538,-9.0538,-9.0538,-9.0977,-9.1856,-9.1026,-9.0538,-9.0538,-9.1075,-9.1075,-9.0538,-9.21,-9.2637,-9.2198,-9.4345,-9.6395,-8.9809,-9.3823,-9.8069,-10.3769,-10.7608,-11.0691,-11.3309,-11.4414,-11.4879,-11.4879,-11.4356,-11.4123,-11.4763,-11.4879,-11.4879,-11.4879,-11.4879,-11.4879,-11.4879,-11.4879,-11.5112,-11.5752,-11.5286,-11.5112,-11.5752,-11.5228,-11.4879,-11.4879,-11.4879,-11.4879,-11.4879,-11.4879,-11.4879,-11.4879,-11.4879,-11.4879,-11.4879,-11.3279,-11.247,-11.247,-11.0891,-10.9399,-10.7774,-10.3151,-9.9412,-9.6395,-9.6395,-9.6395,-9.6395,-9.6395,-9.6395,-9.6395,-9.6395,-9.6395,-9.6395,-9.6395,-9.6395,-9.6395,-9.6395,-9.6395,-9.6395,-9.6395,-9.6395,-9.6395,-9.6395,-9.6395,-9.6395,-9.6395,-9.6395,-9.6395,-9.6395,-9.6786,-9.7176,-9.7176,-9.6786,-9.6395,-9.6395,-9.6395,-9.6395,-9.6395,-9.6395,-9.6542,-9.7078,-9.7176,-9.6981,-9.6493,-9.6395,-9.6395,-9.6395,-9.6395,-9.6005,-9.4931,-9.4296,-9.3564,-9.2491,-9.1466,-9.088,-9.088,-9.0343,-9.0245,-9.0782,-9.0294,-9.0001,-9.0001,-9.0538,-9.0538,-9.0001,-9.1026,-9.127,-9.0831,-9.2979,-9.4784,-9.0217,-9.3823,-9.6964,-10.0221,-10.4758,-10.9121,-11.1913,-11.3134,-11.3832,-11.4356,-11.3658,-11.3367,-11.4647,-11.4879,-11.4879,-11.4879,-11.4879,-11.4879,-11.4879,-11.4879,-11.4879,-11.4879,-11.4879,-11.4879,-11.4879,-11.4879,-11.4879,-11.4879,-11.4879,-11.4879,-11.4879,-11.4879,-11.4879,-11.4879,-11.4879,-11.4563,-11.387,-11.1438,-10.9898,-10.9232,-10.6865,-10.5372,-10.4676,-10.1538,-9.8728,-9.6395,-9.6395,-9.6395,-9.6395,-9.6395,-9.6395,-9.6395,-9.6395,-9.6395,-9.6395,-9.6395,-9.6395,-9.6395,-9.6395,-9.6395,-9.6395,-9.6395,-9.6395,-9.6395,-9.6395,-9.6395,-9.6395,-9.6395,-9.6395,-9.6395,-9.6395,-9.6395,-9.6395,-9.6395,-9.6395,-9.6395,-9.6395,-9.6395,-9.6395,-9.6395,-9.6395,-9.6395,-9.6395,-9.6395,-9.6395,-9.6395,-9.6395,-9.6395,-9.6395,-9.6395,-9.6005,-9.4931,-9.4784,-9.4345,-9.3223,-9.2393,-9.1737,-9.1542,-9.0831,-9.0245,-9.005,-9.0245,-9.0245,-9.0001,-9.0001,-9.0001,-9.0001,-9.0001,-9.0001,-9.005,-9.171,-9.332,-8.903,-9.3679,-9.7747,-9.9349,-10.2781,-10.6678,-11.0342,-11.04,-11.0342,-11.2669,-11.3076,-11.3367,-11.4647,-11.4879,-11.4879,-11.4879,-11.4879,-11.4879,-11.4879,-11.4879,-11.4879,-11.4879,-11.4879,-11.4879,-11.4879,-11.4879,-11.4879,-11.4879,-11.4879,-11.4879,-11.4879,-11.4879,-11.4879,-11.4879,-11.4879,-11.3493,-11.0615,-11.0395,-10.8898,-10.6179,-10.5834,-10.4209,-10.1367,-9.8236,-9.6646,-9.6395,-9.6395,-9.6395,-9.6395,-9.6395,-9.6395,-9.6395,-9.6395,-9.6395,-9.6395,-9.6395,-9.6395,-9.6395,-9.6395,-9.6395,-9.6395,-9.6395,-9.6395,-9.6395,-9.6395,-9.6395,-9.6395,-9.6395,-9.6395,-9.6395,-9.6395,-9.6395,-9.6395,-9.6395,-9.6395,-9.6395,-9.6395,-9.6395,-9.6395,-9.6395,-9.6395,-9.6395,-9.6395,-9.6395,-9.6395,-9.6395,-9.6395,-9.6395,-9.6395,-9.6395,-9.6005,-9.4931,-9.4784,-9.4345,-9.3223,-9.3027,-9.2588,-9.1542,-9.1395,-9.1026,-9.005,-9.0977,-9.1026,-9.005,-9.0001,-9.0001,-9.0001,-9.0001,-9.0001,-9.0001,-9.0197,-9.1905,-8.8006,-9.1496,-9.4928,-9.7631,-9.949,-10.1734,-10.5514,-10.6038,-10.662,-10.9993,-11.1273,-11.2145,-11.3483,-11.3774,-11.4007,-11.4763,-11.4879,-11.4879,-11.4879,-11.4239,-11.4007,-11.4821,-11.4181,-11.4065,-11.4821,-11.4879,-11.4879,-11.4879,-11.4879,-11.4879,-11.4879,-11.4879,-11.4879,-11.4879,-11.3065,-11.1547,-11.0285,-10.6583,-10.4156,-10.2915,-10.1058,-9.9412,-9.8286,-9.6971,-9.6395,-9.6395,-9.6395,-9.6395,-9.6395,-9.6395,-9.6395,-9.6395,-9.6395,-9.6395,-9.6395,-9.6395,-9.6395,-9.6395,-9.6395,-9.6395,-9.6395,-9.6395,-9.6395,-9.6395,-9.6395,-9.6395,-9.6395,-9.6395,-9.6395,-9.6395,-9.6395,-9.6395,-9.6395,-9.6395,-9.6395,-9.6395,-9.6395,-9.6395,-9.6395,-9.6395,-9.6395,-9.6395,-9.6395,-9.6395,-9.6395,-9.6395,-9.6395,-9.6395,-9.6395,-9.6395,-9.6249,-9.5809,-9.5761,-9.5565,-9.5126,-9.4492,-9.3955,-9.3564,-9.2881,-9.2344,-9.1905,-9.171,-9.1417,-9.0977,-9.0343,-9.0001,-9.0001,-9.0001,-9.0001,-9.0001,-9.0001,-9.1026,-8.6785,-8.9402,-9.2311,-9.615,-9.708,-9.8069,-10.1908,-10.2781,-10.3479,-10.5863,-10.8539,-11.0866,-11.2145,-11.3018,-11.3832,-11.4763,-11.4879,-11.4879,-11.4879,-11.4123,-11.389,-11.4763,-11.4123,-11.389,-11.4821,-11.4879,-11.4879,-11.4879,-11.4879,-11.4458,-11.3493,-11.3493,-11.3065,-11.2254,-11.0065,-10.845,-10.7493,-10.3217,-10.0576,-9.9656,-9.7469,-9.6395,-9.6395,-9.6395,-9.6395,-9.6395,-9.6395,-9.6395,-9.6395,-9.6395,-9.6395,-9.6395,-9.6395,-9.6395,-9.6395,-9.6395,-9.6395,-9.6395,-9.6395,-9.6395,-9.6395,-9.6395,-9.6395,-9.6395,-9.6395,-9.6395,-9.6395,-9.6395,-9.6395,-9.6395,-9.6395,-9.6395,-9.6395,-9.6395,-9.6395,-9.6395,-9.6395,-9.6395,-9.6395,-9.6395,-9.6395,-9.6395,-9.6395,-9.6395,-9.6395,-9.6395,-9.6395,-9.6395,-9.6395,-9.6395,-9.6395,-9.6395,-9.6395,-9.6395,-9.6395,-9.5712,-9.5126,-9.4833,-9.4052,-9.3613,-9.3613,-9.293,-9.2295,-9.1542,-9.088,-9.0343,-9.0001,-9.0001,-9.0001,-9.0001,-9.0001,-9.0587,-8.5447,-8.8064,-9.0973,-9.4898,-9.5888,-9.6878,-10.0628,-10.1501,-10.1152,-9.993,-10.4758,-10.9586,-11.0808,-11.3134,-11.4879,-11.4879,-11.4879,-11.4879,-11.4879,-11.4879,-11.4879,-11.4879,-11.4879,-11.4879,-11.4879,-11.4879,-11.4879,-11.4879,-11.4879,-11.3493,-11.0395,-11.0285,-10.8898,-10.5949,-10.5834,-10.4326,-10.1127,-10.1127,-9.9534,-9.6395,-9.6395,-9.6395,-9.6395,-9.6395,-9.6395,-9.6395,-9.6395,-9.6395,-9.6395,-9.6395,-9.6395,-9.6395,-9.6395,-9.6395,-9.6395,-9.6395,-9.6395,-9.6395,-9.6395,-9.6395,-9.6395,-9.6395,-9.6395,-9.6395,-9.6395,-9.6395,-9.6395,-9.6395,-9.6395,-9.6395,-9.6395,-9.6395,-9.6395,-9.6395,-9.6395,-9.6395,-9.6395,-9.6395,-9.6395,-9.6395,-9.6395,-9.6395,-9.6395,-9.6395,-9.6395,-9.6395,-9.6395,-9.6395,-9.6395,-9.6395,-9.6395,-9.6395,-9.6395,-9.6395,-9.6395,-9.6395,-9.5956,-9.4882,-9.4784,-9.4784,-9.4784,-9.4908,-9.376,-9.1542,-9.1493,-9.1075,-9.0001,-9.0001,-9.0001,-9.0001,-9.0001,-9.0587,-8.3196,-8.5447,-8.8297,-9.2194,-9.3823,-9.4986,-9.7169,-9.8883,-10.0047,-9.964,-10.1908,-10.4816,-10.7899,-11.0517,-11.2494,-11.3425,-11.4298,-11.4879,-11.4879,-11.4123,-11.389,-11.4821,-11.4123,-11.3949,-11.4821,-11.4879,-11.3976,-11.1872,-11.1655,-11.0395,-10.7321,-10.7207,-10.6751,-10.5719,-10.3623,-10.2084,-10.1058,-9.8973,-9.7345,-9.6395,-9.6395,-9.6395,-9.6395,-9.6395,-9.6395,-9.6395,-9.6395,-9.6395,-9.6395,-9.6395,-9.6395,-9.6395,-9.6395,-9.6395,-9.6395,-9.6395,-9.6395,-9.6395,-9.6395,-9.6395,-9.6395,-9.6395,-9.6395,-9.6395,-9.6395,-9.6395,-9.6395,-9.6395,-9.6395,-9.6395,-9.6395,-9.6395,-9.6395,-9.6395,-9.6395,-9.6395,-9.6395,-9.6395,-9.6395,-9.6395,-9.6395,-9.6395,-9.6395,-9.6395,-9.6395,-9.6395,-9.6395,-9.6395,-9.6395,-9.6395,-9.6395,-9.6395,-9.6395,-9.6395,-9.6395,-9.6395,-9.6249,-9.5907,-9.5907,-9.5907,-9.5907,-9.5175,-9.4492,-9.3808,-9.2344,-9.1347,-9.1124,-9.0392,-9.0001,-9.0001,-9.0001,-9.0197,-8.1333,-8.3469,-8.6298,-9.0275,-9.1089,-9.1264,-9.2543,-9.5568,-9.8011,-9.7487,-9.8825,-10.1385,-10.5747,-10.9004,-11.1098,-11.1506,-11.2611,-11.36,-11.4123,-11.3483,-11.3483,-11.4763,-11.4181,-11.4007,-11.4821,-11.387,-11.2362,-11.0395,-10.9121,-10.7207,-10.4092,-10.3975,-10.3387,-10.2255,-10.0385,-9.929,-9.929,-9.7345,-9.6395,-9.6395,-9.6395,-9.6395,-9.6395,-9.6395,-9.6395,-9.6395,-9.6395,-9.6395,-9.6395,-9.6395,-9.6395,-9.6395,-9.6395,-9.6395,-9.6395,-9.6395,-9.6395,-9.6395,-9.6395,-9.6395,-9.6395,-9.6395,-9.6395,-9.6395,-9.6395,-9.6395,-9.6395,-9.6395,-9.6395,-9.6395,-9.6395,-9.6395,-9.6395,-9.6395,-9.6395,-9.6395,-9.6395,-9.6395,-9.6395,-9.6395,-9.6395,-9.6395,-9.6395,-9.6395,-9.6395,-9.6395,-9.6395,-9.6395,-9.6395,-9.6395,-9.6395,-9.6395,-9.6395,-9.6395,-9.6395,-9.6395,-9.6395,-9.6395,-9.6395,-9.6395,-9.6395,-9.5761,-9.5224,-9.4784,-9.3515,-9.2442,-9.1493,-9.0977,-9.0441,-9.0001,-9.0001,-9.0001,-7.9979,-8.2015,-8.4671,-8.8565,-8.7948,-8.661,-8.7774,-9.1962,-9.5306,-9.3881,-9.5742,-9.9025,-10.3828,-10.7841,-11.0168,-10.9453,-11.011,-11.1331,-11.2669,-11.2843,-11.3309,-11.4588,-11.4763,-11.4658,-11.4505,-11.1872,-11.0009,-10.9566,-10.6979,-10.4092,-10.0938,-10.0817,-9.9412,-9.652,-9.6395,-9.6395,-9.6395,-9.6395,-9.6395,-9.6395,-9.6395,-9.6395,-9.6395,-9.6395,-9.6395,-9.6395,-9.6395,-9.6395,-9.6395,-9.6395,-9.6395,-9.6395,-9.6395,-9.6395,-9.6395,-9.6395,-9.6395,-9.6395,-9.6395,-9.6395,-9.6395,-9.6395,-9.6395,-9.6395,-9.6395,-9.6395,-9.6395,-9.6395,-9.6395,-9.6395,-9.6395,-9.6395,-9.6395,-9.6395,-9.6395,-9.6395,-9.6395,-9.6395,-9.6395,-9.6395,-9.6395,-9.6395,-9.6395,-9.6395,-9.6395,-9.6395,-9.6395,-9.6395,-9.6395,-9.6395,-9.6395,-9.6395,-9.6395,-9.6395,-9.6395,-9.6395,-9.6395,-9.6395,-9.6395,-9.6395,-9.6395,-9.6395,-9.5956,-9.4931,-9.4833,-9.3808,-9.1737,-9.171,-9.1124,-9.0148,-9.005,-9.0001,-7.8641,-7.9398,-8.0794,-8.4691,-8.6668,-8.7657,-8.7948,-9.1264,-9.3648,-9.138,-9.4434,-9.7631,-9.7953,-10.1908,-10.6038,-10.8871,-10.9412,-11.0051,-11.1273,-11.1447,-11.1913,-11.3251,-11.3425,-11.2879,-11.1433,-11.0615,-10.8282,-10.357,-10.2559,-10.0817,-9.7668,-9.7469,-9.722,-9.6395,-9.6395,-9.6395,-9.6395,-9.6395,-9.6395,-9.6395,-9.6395,-9.6395,-9.6395,-9.6395,-9.6395,-9.6395,-9.6395,-9.6395,-9.6395,-9.6395,-9.6395,-9.6395,-9.6395,-9.6395,-9.6395,-9.6395,-9.6395,-9.6395,-9.6395,-9.6395,-9.6395,-9.6395,-9.6395,-9.6395,-9.6395,-9.6395,-9.6395,-9.6395,-9.6395,-9.6395,-9.6395,-9.6395,-9.6395,-9.6395,-9.6395,-9.6395,-9.6395,-9.6395,-9.6395,-9.6395,-9.6395,-9.6395,-9.6395,-9.6395,-9.6395,-9.6395,-9.6395,-9.6395,-9.6395,-9.6395,-9.6395,-9.6395,-9.6395,-9.6395,-9.6395,-9.6395,-9.6395,-9.6395,-9.6395,-9.6395,-9.6395,-9.6395,-9.6298,-9.6053,-9.5224,-9.454,-9.4052,-9.2442,-9.1514,-9.1222,-9.0392,-9.0001,-7.7478,-7.8525,-7.9921,-8.2015,-8.3993,-8.5563,-8.6145,-8.8821,-9.0798,-8.9402,-9.1703,-9.4463,-9.5655,-9.7546,-10.0628,-10.5689,-10.755,-10.8772,-10.9993,-11.0168,-11.0866,-11.2785,-11.296,-11.2217,-11.0393,-10.9009,-10.6125,-10.1367,-9.9778,-9.8286,-9.652,-9.6395,-9.6395,-9.6395,-9.6395,-9.6395,-9.6395,-9.6395,-9.6395,-9.6395,-9.6395,-9.6395,-9.6395,-9.6395,-9.6395,-9.6395,-9.6395,-9.6395,-9.6395,-9.6395,-9.6395,-9.6395,-9.6395,-9.6395,-9.6395,-9.6395,-9.6395,-9.6395,-9.6395,-9.6395,-9.6395,-9.6395,-9.6395,-9.6395,-9.6395,-9.6395,-9.6395,-9.6395,-9.6395,-9.6395,-9.6395,-9.6395,-9.6395,-9.6395,-9.6395,-9.6395,-9.6395,-9.6395,-9.6395,-9.6395,-9.6395,-9.6395,-9.6395,-9.6395,-9.6395,-9.6395,-9.6395,-9.6395,-9.6395,-9.6395,-9.6395,-9.6395,-9.6395,-9.6395,-9.6395,-9.6395,-9.6395,-9.6395,-9.6395,-9.6395,-9.6395,-9.6395,-9.6395,-9.6395,-9.5858,-9.5321,-9.4784,-9.3662,-9.2588,-9.1493,-9.1026,-9.0489,-7.6535,-7.8351,-8.0212,-8.0386,-8.1333,-8.2439,-8.3644,-8.5621,-8.7192,-8.7192,-8.853,-9.0682,-9.3792,-9.4316,-9.5917,-10.1326,-10.4584,-10.691,-10.8423,-10.8772,-10.9819,-11.2378,-11.2255,-11.1354,-10.9676,-10.6865,-10.374,-10.0576,-9.7915,-9.6395,-9.6395,-9.6395,-9.6395,-9.6395,-9.6395,-9.6395,-9.6395,-9.6395,-9.6395,-9.6395,-9.6395,-9.6395,-9.6395,-9.6395,-9.6395,-9.6395,-9.6395,-9.6395,-9.6395,-9.6395,-9.6395,-9.6395,-9.6395,-9.6395,-9.6395,-9.6395,-9.6395,-9.6395,-9.6395,-9.6395,-9.6395,-9.6395,-9.6395,-9.6395,-9.6395,-9.6395,-9.6395,-9.6395,-9.6395,-9.6395,-9.6395,-9.6395,-9.6395,-9.6395,-9.6395,-9.6395,-9.6395,-9.6395,-9.6395,-9.6395,-9.6395,-9.6395,-9.6395,-9.6395,-9.6395,-9.6395,-9.6395,-9.6395,-9.6395,-9.6395,-9.6395,-9.6395,-9.6395,-9.6395,-9.6395,-9.6395,-9.6395,-9.6395,-9.6395,-9.6395,-9.6395,-9.6395,-9.6395,-9.6395,-9.6395,-9.5956,-9.5029,-9.4882,-9.3857,-9.21,-9.1954,-9.127,-7.6535,-7.7711,-7.9107,-8.0154,-8.0635,-8.1159,-8.2439,-8.3022,-8.3313,-8.3313,-8.597,-8.8181,-8.7715,-9.1903,-9.5888,-9.6878,-9.9989,-10.3188,-10.5631,-10.691,-10.8481,-11.0982,-10.9095,-10.7226,-10.6534,-10.3623,-10.0455,-9.7345,-9.6646,-9.6395,-9.6395,-9.6395,-9.6395,-9.6395,-9.6395,-9.6395,-9.6395,-9.6395,-9.6395,-9.6395,-9.6395,-9.6395,-9.6395,-9.6395,-9.6395,-9.6395,-9.6395,-9.6395,-9.6395,-9.6395,-9.6395,-9.6395,-9.6395,-9.6395,-9.6395,-9.6395,-9.6395,-9.6395,-9.6395,-9.6395,-9.6395,-9.6395,-9.6395,-9.6395,-9.6395,-9.6395,-9.6395,-9.6395,-9.6395,-9.6395,-9.6395,-9.6395,-9.6395,-9.6395,-9.6395,-9.6395,-9.6395,-9.6395,-9.6395,-9.6395,-9.6395,-9.6395,-9.6395,-9.6395,-9.6395,-9.6395,-9.6395,-9.6395,-9.6395,-9.6395,-9.6395,-9.6395,-9.6395,-9.6395,-9.6395,-9.6395,-9.6395,-9.6395,-9.6395,-9.6395,-9.6395,-9.6395,-9.6395,-9.6395,-9.6395,-9.6346,-9.6151,-9.5273,-9.4638,-9.4296,-9.3369,-9.2344,-7.6535,-7.8583,-8.091,-8.219,-8.248,-8.248,-8.2439,-8.2439,-8.2207,-8.1508,-8.2789,-8.4167,-8.4982,-8.8646,-9.2252,-9.4405,-9.7953,-10.1326,-10.3944,-10.6038,-10.7635,-10.8525,-10.739,-10.5641,-10.3412,-10.1965,-9.9778,-9.6646,-9.6395,-9.6395,-9.6395,-9.6395,-9.6395,-9.6395,-9.6395,-9.6395,-9.6395,-9.6395,-9.6395,-9.6395,-9.6395,-9.6395,-9.6395,-9.6395,-9.6395,-9.6395,-9.6395,-9.6395,-9.6395,-9.6395,-9.6395,-9.6395,-9.6395,-9.6395,-9.6395,-9.6395,-9.6395,-9.6395,-9.6395,-9.6395,-9.6395,-9.6395,-9.6395,-9.6395,-9.6395,-9.6395,-9.6395,-9.6395,-9.6395,-9.6395,-9.6395,-9.6395,-9.6395,-9.6395,-9.6395,-9.6395,-9.6395,-9.6395,-9.6395,-9.6395,-9.6395,-9.6395,-9.6395,-9.6395,-9.6395,-9.6395,-9.6395,-9.6395,-9.6395,-9.6395,-9.6395,-9.6395,-9.6395,-9.6395,-9.6395,-9.6395,-9.6395,-9.6395,-9.6395,-9.6395,-9.6395,-9.6395,-9.6395,-9.6395,-9.6395,-9.6395,-9.6395,-9.5907,-9.537,-9.4784,-9.4296,-9.3467,-7.742,0.0,-8.2672,-8.3527,-8.3818,-8.3527,0.0,-8.1974,-8.1217,-8.0212,-7.9979,-8.0677,-8.287,-8.5447,-8.853,-9.2718,-9.6091,-9.9407,-10.2897,-10.4567,-10.5385,-10.5452,-10.4815,-10.3537,-10.128,-10.0455,-9.8973,-9.6646,-9.6395,-9.6395,-9.6395,-9.6395,-9.6395,-9.6395,-9.6395,-9.6395,-9.6395,-9.6395,-9.6395,-9.6395,-9.6395,-9.6395,-9.6395,-9.6395,-9.6395,-9.6395,-9.6395,-9.6395,-9.6395,-9.6395,-9.6395,-9.6395,-9.6395,-9.6395,-9.6395,-9.6395,-9.6395,-9.6395,-9.6395,-9.6395,-9.6395,-9.6395,-9.6395,-9.6395,-9.6395,-9.6395,-9.6395,-9.6395,-9.6395,-9.6395,-9.6395,-9.6395,-9.6395,-9.6395,-9.6395,-9.6395,-9.6395,-9.6395,-9.6395,-9.6395,-9.6395,-9.6395,-9.6395,-9.6395,-9.6395,-9.6395,-9.6395,-9.6395,-9.6395,-9.6395,-9.6395,-9.6395,-9.6395,-9.6395,-9.6395,-9.6395,-9.6395,-9.6395,-9.6395,-9.6395,-9.6395,-9.6395,-9.6395,-9.6395,-9.6395,-9.6395,-9.6395,-9.6395,-9.6102,-9.5565,-9.5565,-9.5077,0.0,-8.1333,-8.2439,-8.2498,-8.2556,-8.2498,-8.2439,-8.0576,0.0,-7.87,-7.8641,-7.9107,-8.0445,-8.2771,-8.6066,-9.1264,-9.3299,-9.6382,-10.249,-10.1308,-10.0356,-10.2193,-9.9869,-9.9013,-10.0921,-9.8482,-9.6646,-9.6395,-9.6395,-9.6395,-9.6395,-9.6395,-9.6395,-9.6395,-9.6395,-9.6395,-9.6395,-9.6395,-9.6395,-9.6395,-9.6395,-9.6395,-9.6395,-9.6395,-9.6395,-9.6395,-9.6395,-9.6395,-9.6395,-9.6395,-9.6395,-9.6395,-9.6395,-9.6395,-9.6395,-9.6395,-9.6395,-9.6395,-9.6395,-9.6395,-9.6395,-9.6395,-9.6395,-9.6395,-9.6395,-9.6395,-9.6395,-9.6395,-9.6395,-9.6395,-9.6395,-9.6395,-9.6395,-9.6395,-9.6395,-9.6395,-9.6395,-9.6395,-9.6395,-9.6395,-9.6395,-9.6395,-9.6395,-9.6395,-9.6395,-9.6395,-9.6395,-9.6395,-9.6395,-9.6395,-9.6395,-9.6395,-9.6395,-9.6395,-9.6395,-9.6395,-9.6395,-9.6395,-9.6395,-9.6395,-9.6395,-9.6395,-9.6395,-9.6395,-9.6395,-9.6395,-9.6395,-9.6395,-9.6883,-9.7762,-9.7762,-9.7713,-8.3411,-8.4342,-8.4923,-8.568,-8.5272,-8.4284,-8.2789,-8.1042,-7.9456,-7.87,-7.7885,-7.8002,-8.0037,-8.1841,-8.4458,-8.8821,-9.0572,-9.3853,-10.1199,-9.895,-9.8365,-10.3107,-10.0127,-9.7771,-9.816,-9.7096,-9.6688,-9.7322,-9.742,-9.7713,-9.8396,-9.7762,-9.7713,-9.8445,-9.7127,-9.6737,-9.7371,-9.6737,-9.6395,-9.6395,-9.6395,-9.6395,-9.6395,-9.6395,-9.6395,-9.6395,-9.6395,-9.6395,0.0,-9.6395,-9.6395,-9.6395,-9.6395,-9.6395,-9.6395,-9.6395,-9.6395,-9.6395,-9.6395,-9.6395,-9.6395,-9.6395,-9.6395,-9.6395,-9.6395,-9.6395,-9.6395,-9.6395,-9.6395,-9.6395,-9.6395,-9.6395,-9.6395,-9.6395,-9.6395,-9.6395,-9.6395,-9.6395,-9.6395,-9.6395,-9.6395,-9.6395,-9.6395,-9.6395,-9.6395,-9.6395,-9.6395,-9.6395,-9.6395,-9.6395,-9.6395,-9.6395,-9.6395,-9.6395,-9.6395,-9.6395,-9.6395,-9.6395,-9.6395,-9.6395,-9.6395,-9.6395,-9.6395,-9.6395,-9.6395,-9.6395,-9.6395,-9.6395,-9.6932,-9.8006,-9.8006,-9.8396,-8.568,-8.6436,-8.6959,-8.7832,-8.7366,-8.6145,-8.4128,-8.2539,-8.1143,-7.9456,-7.8118,-7.7885,-8.0037,-8.1566,-8.3432,-8.6342,-8.8539,-9.1826,-9.7569,-9.5649,-9.5583,-10.0782,-9.8298,-9.5905,-9.5471,-9.6005,-9.6834,-9.7908,-9.8006,-9.8494,-9.9616,-9.8591,-9.8543,-9.9665,-9.7567,-9.6737,-9.7469,-9.6786,-9.6395,-9.6395,-9.6395,-9.6395,-9.6395,-9.6395,-9.6395,-9.6395,-9.6395,-9.6395,-9.6395,-9.6395,-9.6395,-9.6395,-9.6395,-9.6395,-9.6395,-9.6395,-9.6395,-9.6395,-9.6395,-9.6395,-9.6395,-9.6395,-9.6395,-9.6395,-9.6395,-9.6395,-9.6395,-9.6395,-9.6395,-9.6395,-9.6395,-9.6395,-9.6395,-9.6395,-9.6395,-9.6395,-9.6395,-9.6395,-9.6395,-9.6395,-9.6395,-9.6395,-9.6395,-9.6395,-9.6395,-9.6395,-9.6395,-9.6395,-9.6395,-9.6395,-9.6395,-9.6395,-9.6395,-9.6395,-9.6395,-9.6395,-9.6395,-9.6395,-9.6395,-9.6395,-9.6395,-9.6395,-9.6395,-9.6395,-9.6395,-9.6395,-9.6395,-9.6395,-9.6786,-9.7518,-9.7859,-9.8787,-8.6145,-8.7134,-8.8064,-8.8064,-8.8064,-8.7715,-8.6436,-8.5078,-8.3451,-8.1026,-7.9456,-7.899,-8.027,-8.1566,-8.2835,-8.4169,-8.7349,-9.0167,-9.1412,-9.1155,-9.1664,-9.3969,-9.3653,-9.3125,-9.3125,-9.5126,-9.6834,-9.7908,-9.8006,-9.8494,-9.9616,-9.864,-9.8543,-9.9665,-9.7567,-9.6444,-9.6444,-9.6444,-9.6395,-9.6395,-9.6395,-9.6395,-9.6395,-9.6395,-9.6395,-9.6395,-9.6395,-9.6395,-9.6395,-9.6395,-9.6395,-9.6395,-9.6395,-9.6395,-9.6395,-9.6395,-9.6395,-9.6395,-9.6395,-9.6395,-9.6395,-9.6395,-9.6395,-9.6395,-9.6395,-9.6395,-9.6395,-9.6395,-9.6395,-9.6395,-9.6395,-9.6395,-9.6395,-9.6395,-9.6395,-9.6395,-9.6395,-9.6395,-9.6395,-9.6395,-9.6395,-9.6395,-9.6395,-9.6395,-9.6395,-9.6395,-9.6395,-9.6395,-9.6395,-9.6395,-9.6395,-9.6395,-9.6395,-9.6395,-9.6395,-9.6395,-9.6395,-9.6395,-9.6395,-9.6395,-9.6395,-9.6395,-9.6395,-9.6395,-9.6395,-9.6395,-9.6395,-9.6395,-9.6395,-9.6444,-9.7518,-9.9177,-8.8332,-8.917,-8.946,-8.946,-8.946,-8.9111,-8.7774,-8.6494,-8.5389,-8.4633,-8.2713,-8.1608,-8.2888,-8.1984,-8.1997,-8.4979,-8.5487,-8.7506,-9.3219,-9.1209,-9.0755,-9.5148,-9.4101,-9.3125,-9.3125,-9.5126,-9.6834,-9.7908,-9.8738,-9.9665,-10.0739,-9.9763,-10.0056,-10.1862,-9.908,-9.7908,-9.8689,-9.7176,-9.6395,-9.6395,-9.6395,-9.6395,-9.6395,-9.6395,-9.6395,-9.6395,-9.6395,-9.6395,-9.6395,-9.6395,-9.6395,-9.6395,-9.6395,-9.6395,-9.6395,-9.6395,-9.6395,-9.6395,-9.6395,-9.6395,-9.6395,-9.6395,-9.6395,-9.6395,-9.6395,-9.6395,-9.6395,-9.6395,-9.6395,-9.6395,-9.6395,-9.6395,-9.6395,-9.6395,-9.6395,-9.6395,-9.6395,-9.6395,-9.6395,-9.6395,-9.6395,-9.6395,-9.6395,-9.6395,-9.6395,-9.6395,-9.6395,-9.6395,-9.6395,-9.6395,-9.6395,-9.6395,-9.6395,-9.6395,-9.6395,-9.6395,-9.6395,-9.6395,-9.6395,-9.6395,-9.6395,-9.6395,-9.6395,-9.6395,-9.6395,-9.6395,-9.6395,-9.6395,-9.6395,-9.6444,-9.7518,-9.8347,-8.9378,-9.0308,-9.0798,-9.0798,-9.0798,-9.0449,-8.917,-8.8239,-8.7366,-8.6378,-8.4162,-8.2614,-8.3336,-8.1876,-8.1781,-8.558,-8.5238,-8.6694,-9.2624,-9.0545,-8.9833,-9.3267,-9.3341,-9.3125,-9.3125,-9.5126,-9.6688,-9.7322,-9.8396,-9.9275,-9.9958,-9.9372,-9.9812,-10.1569,-9.8836,-9.7908,-9.9031,-9.7274,-9.6395,-9.6395,-9.6395,-9.6395,-9.6395,-9.6395,-9.6395,-9.6395,-9.6395,-9.6395,-9.6395,-9.6395,-9.6395,-9.6395,-9.6395,-9.6395,-9.6395,-9.6395,-9.6395,-9.6395,-9.6395,-9.6395,-9.6395,-9.6395,-9.6395,-9.6395,-9.6395,-9.6395,-9.6395,-9.6395,-9.6395,-9.6395,-9.6395,-9.6395,-9.6395,-9.6395,-9.6395,-9.6395,-9.6395,-9.6395,-9.6395,-9.6395,-9.6395,-9.6395,-9.6395,-9.6395,-9.6395,-9.6395,-9.6395,-9.6395,-9.6395,-9.6395,-9.6395,-9.6395,-9.6395,-9.6395,-9.6395,-9.6395,-9.6395,-9.6395,-9.6395,-9.6395,-9.6395,-9.6395,-9.6395,-9.6395,-9.6395,-9.6395,-9.6395,-9.6395,-9.6395,-9.6444,-9.7078,-9.7371,-8.9809,-9.1089,-9.1962,-9.1962,-9.1962,-9.1587,-9.0291,-9.0026,-8.9413,-8.6688,-8.4376,-8.2801,-8.2633,-8.1715,-8.2195,-8.5785,-8.61,-8.6993,-9.0371,-8.9568,-8.8928,-8.9904,-9.1856,-9.3125,-9.3125,-9.5126,-9.6395,-9.6395,-9.7322,-9.7859,-9.7859,-9.7957,-9.8543,-9.9665,-9.7664,-9.703,-9.8006,-9.6932,-9.6395,-9.6395,-9.6395,-9.6395,-9.6395,-9.6395,-9.6395,-9.6395,-9.6395,-9.6395,-9.6395,-9.6395,-9.6395,-9.6395,-9.6395,-9.6395,-9.6395,-9.6395,-9.6395,-9.6395,-9.6395,-9.6395,-9.6395,-9.6395,-9.6395,-9.6395,-9.6395,-9.6395,-9.6395,-9.6395,-9.6395,-9.6395,-9.6395,-9.6395,-9.6395,-9.6395,-9.6395,-9.6395,-9.6395,-9.6395,-9.6395,-9.6395,-9.6395,-9.6395,-9.6395,-9.6395,-9.6395,-9.6395,-9.6395,-9.6395,-9.6395,-9.6395,-9.627,-9.597,-9.627,-9.627,-9.597,-9.627,-9.6395,-9.6395,-9.6395,-9.6395,-9.6395,-9.6395,-9.6395,-9.6395,-9.6395,-9.6395,-9.6395,-9.6395,-9.6395,-9.6395,-9.6395,-9.6395,-9.0915,-9.1729,-9.1962,-9.1962,-9.1962,-9.157,-9.0154,-9.0687,-9.0456,-8.6824,-8.6376,-8.6066,-8.4143,-8.3414,-8.3653,-8.5302,-8.6081,-8.7087,-8.8828,-8.9438,-8.9757,-9.0001,-9.1856,-9.3125,-9.3125,-9.5126,-9.6395,-9.6395,-9.6639,-9.6737,-9.6737,-9.7518,-9.8543,-9.9665,-9.8347,-9.7762,-9.8006,-9.6932,-9.6395,-9.6395,-9.6395,-9.6395,-9.6395,-9.6395,-9.6395,-9.6395,-9.6395,-9.6395,-9.6395,-9.6395,-9.6395,-9.6395,-9.6395,-9.6395,-9.6395,-9.6395,-9.6395,-9.6395,-9.6395,-9.6395,-9.6395,-9.6395,-9.6395,-9.6395,-9.6395,-9.6395,-9.6395,-9.6395,-9.6395,-9.6395,-9.6395,-9.6395,-9.6395,-9.6395,-9.6395,-9.6395,-9.6395,-9.6395,-9.6395,-9.6395,-9.6395,-9.6395,-9.6395,-9.6395,-9.6395,-9.6395,-9.6395,-9.6395,-9.6395,-9.6395,-9.5292,-9.2479,-9.466,-9.5166,-9.235,-9.4787,-9.6395,-9.6395,-9.6395,-9.6395,-9.6395,-9.6395,-9.6395,-9.6395,-9.6395,-9.6395,-9.6395,-9.6395,-9.6395,-9.6395,-9.6395,-9.6395,-8.7145,-8.8882,-8.9913,-8.8724,-9.0171,-9.1087,-8.8027,-9.0211,-9.1575,-8.7017,-8.7071,-8.7273,-8.53,-8.383,-8.4071,-8.7557,-8.7326,-8.7721,-9.0778,-9.0539,-9.0001,-9.0001,-9.1856,-9.3125,-9.3125,-9.5126,-9.6395,-9.6395,-9.6395,-9.6395,-9.6395,-9.6932,-9.7762,-9.8836,-9.7811,-9.7469,-9.8006,-9.6932,-9.6395,-9.6395,-9.6395,-9.6395,-9.6395,-9.6395,-9.6395,-9.6395,-9.6395,-9.6395,-9.6395,-9.6395,-9.6395,-9.6395,-9.6395,-9.6395,-9.6395,-9.6395,-9.6395,-9.6395,-9.6395,-9.6395,-9.6395,-9.6395,-9.6395,-9.6395,-9.6395,-9.6395,-9.6395,-9.6395,-9.6395,-9.6395,-9.6395,-9.6395,-9.6395,-9.6395,-9.6395,-9.6395,-9.6395,-9.6395,-9.6395,-9.6395,-9.6395,-9.6395,-9.6395,-9.6395,-9.6395,-9.6395,-9.6395,-9.6395,-9.6395,-9.6395,-9.4359,-8.9017,-9.1707,-9.235,-8.8755,-9.0237,-9.1965,-9.3676,-9.3803,-9.4612,-9.627,-9.6395,-9.6395,-9.6395,-9.6395,-9.6395,-9.6395,-9.6395,-9.6395,-9.6395,-9.6395,-9.6395,-8.265,-8.5188,-8.7162,-8.5024,-8.7608,-8.9536,-8.5202,-8.8373,-9.0833,-8.5905,-8.6355,-8.7031,-8.5157,-8.3784,-8.4474,-8.9567,-8.851,-8.8454,-9.2843,-9.1529,-9.0001,-9.0001,-9.171,-9.293,-9.3125,-9.4931,-9.62,-9.6395,-9.6395,-9.6395,-9.6395,-9.6395,-9.6786,-9.7713,-9.6883,-9.6834,-9.7713,-9.6834,-9.6395,-9.6395,-9.6395,-9.6395,-9.6395,-9.6395,-9.6395,-9.6395,-9.6395,-9.6395,-9.6395,-9.6395,-9.6395,-9.6395,-9.6395,-9.6395,-9.6395,-9.6395,-9.6395,-9.6395,-9.6395,-9.6395,-9.6395,-9.6395,-9.6395,-9.6395,-9.6395,-9.6395,-9.6395,-9.6395,-9.6395,-9.6395,-9.6395,-9.6395,-9.6395,-9.6395,-9.6395,-9.6395,-9.6395,-9.6395,-9.6395,-9.6395,-9.6395,-9.6395,-9.6395,-9.6395,-9.6395,-9.6395,-9.6395,-9.6144,-9.5593,-9.4914,-9.2011,-8.5444,-8.7966,-8.8624,-8.5042,-8.5353,-8.7174,-9.071,-9.0451,-9.1965,-9.627,-9.5844,-9.5719,-9.6395,-9.6395,-9.6395,-9.6395,-9.6395,-9.6395,-9.6395,-9.6395,-9.6395,-8.265,-8.4016,-8.4932,-8.4656,-8.5024,-8.5017,-8.3146,-8.4298,-8.4582,-8.0554,-8.3022,-8.5004,-8.157,-8.3825,-8.6355,-8.7195,-8.7788,-8.8701,-9.0389,-9.0235,-9.0001,-9.0001,-9.1075,-9.2149,-9.3027,-9.4296,-9.5419,-9.6346,-9.6395,-9.6395,-9.6395,-9.6395,-9.6444,-9.659,-9.6493,-9.6444,-9.6639,-9.6493,-9.6395,-9.6395,-9.6395,-9.6395,-9.6395,-9.6395,-9.6395,-9.6395,-9.6395,-9.6395,-9.6395,-9.6395,-9.6395,-9.6395,-9.6395,-9.6395,-9.6395,-9.6395,-9.6395,-9.6395,-9.6395,-9.6395,-9.6395,-9.6395,-9.6395,-9.6395,-9.6395,-9.6395,-9.6395,-9.6395,-9.6395,-9.6395,-9.6395,-9.6395,-9.6395,-9.6395,-9.6395,-9.6395,-9.6395,-9.6395,-9.6395,-9.6395,-9.6395,-9.6395,-9.6395,-9.6395,-9.6395,-9.6395,-9.6395,-9.5292,-9.2047,-8.9017,-8.5577,-8.1428,-8.4236,-8.4908,-8.1291,-8.3874,-8.7174,-9.071,-8.8098,-8.9455,-9.6144,-9.3421,-9.3166,-9.6395,-9.6395,-9.6395,-9.6395,-9.6395,-9.6395,-9.6395,-9.6395,-9.6395,-7.8316,-8.0173,-8.1444,-8.0596,-8.2939,-8.4563,-8.1104,-8.3569,-8.544,-8.1381,-8.3362,-8.5254,-8.3306,-8.4584,-8.6243,-8.7463,-8.8098,-8.8781,-8.9855,-9.0001,-9.0001,-9.0001,-9.0977,-9.1807,-9.2246,-9.3808,-9.498,-9.5468,-9.6053,-9.6395,-9.6395,-9.6395,-9.6395,-9.6395,-9.6395,-9.6395,-9.6395,-9.6395,-9.6395,-9.6395,-9.6395,-9.6395,-9.6395,-9.6395,-9.6395,-9.6395,-9.6395,-9.6395,-9.6395,-9.6395,-9.6395,-9.6395,-9.6395,-9.6395,-9.6395,-9.6395,-9.6395,-9.6395,-9.6395,-9.6395,-9.6395,-9.6395,-9.6395,-9.6395,-9.6395,-9.6395,-9.6395,-9.6395,-9.6395,-9.6395,-9.6395,-9.6395,-9.6395,-9.6395,-9.6395,-9.6395,-9.6395,-9.6395,-9.6395,-9.6395,-9.6395,-9.6395,-9.6395,-9.6395,-9.6395,-9.6395,-9.466,-9.2093,-8.8492,-8.6643,-8.3604,-7.7919,-8.0509,-8.1154,-7.7679,-7.8753,-8.1291,-8.4731,-8.3562,-8.5042,-9.0153,-8.8931,-8.8755,-9.0413,-9.235,-9.3421,-9.3421,-9.5467,-9.6395,-9.6395,-9.6395,-9.6395,-7.4627,-7.6918,-7.8481,-7.7076,-8.0589,-8.327,-7.9493,-8.2564,-8.5238,-8.2156,-8.354,-8.5131,-8.4483,-8.5023,-8.6097,-8.7707,-8.8244,-8.8781,-8.9855,-9.0001,-9.0001,-9.0001,-9.0733,-9.1319,-9.1612,-9.3271,-9.4394,-9.4394,-9.537,-9.6102,-9.6395,-9.6395,-9.6395,-9.6395,-9.6395,-9.6395,-9.6395,-9.6395,-9.6395,-9.6395,-9.6395,-9.6395,-9.6395,-9.6395,-9.6395,-9.6395,-9.6395,-9.6395,-9.6395,-9.6395,-9.6395,-9.6395,-9.6395,-9.6395,-9.6395,-9.6395,-9.6395,-9.6395,-9.6395,-9.6395,-9.6395,-9.6395,-9.6395,-9.6395,-9.6395,-9.6395,-9.6395,-9.6395,-9.6395,-9.6395,-9.6395,-9.6395,-9.6395,-9.6395,-9.6395,-9.6395,-9.6395,-9.6395,-9.6395,-9.6395,-9.6395,-9.6395,-9.6395,-9.6395,-9.6395,-9.6395,-9.3294,-8.9409,-8.4908,-8.3604,-8.0921,-7.5651,-7.74,-7.7958,-7.5265,-7.4982,-7.6458,-8.0096,-8.0331,-8.1975,-8.5621,-8.651,-8.7041,-8.7041,-9.0221,-9.2069,-9.235,-9.4751,-9.6151,-9.6395,-9.6395,-9.6395,-7.3651,-7.5555,-7.7023,-7.5995,-7.7414,-7.9033,-7.8776,-7.9763,-8.065,-8.0435,-8.2152,-8.3384,-8.2397,-8.4584,-8.6682,-8.6829,-8.7707,-8.8781,-8.9855,-9.0001,-9.0001,-9.0001,-9.005,-9.0489,-9.1395,-9.2588,-9.3223,-9.3223,-9.4248,-9.5321,-9.6346,-9.6395,-9.6395,-9.6395,-9.6395,-9.6395,-9.6395,-9.6395,-9.6395,-9.6395,-9.6395,-9.6395,-9.6395,-9.6395,-9.6395,-9.6395,-9.6395,-9.6395,-9.6395,-9.6395,-9.6395,-9.6395,-9.6395,-9.6395,-9.6395,-9.6395,-9.6395,-9.6395,-9.6395,-9.6395,-9.6395,-9.6395,-9.6395,-9.6395,-9.6395,-9.6395,-9.6395,-9.6395,-9.6395,-9.6395,-9.6395,-9.6395,-9.6395,-9.6395,-9.6395,-9.6395,-9.6395,-9.6395,-9.6395,-9.6395,-9.6395,-9.6395,-9.6395,-9.6395,-9.6395,-9.6395,-9.3294,-8.8447,-8.1428,-7.7679,-7.5407,-7.5124,-7.5265,-7.5265,-7.5124,-7.4982,-7.6458,-8.0096,-8.0331,-8.1975,-8.5621,-8.8886,-9.071,-9.071,-9.3229,-9.5122,-9.6144,-9.537,-9.5419,-9.6395,-9.6395,-9.6395,-7.2382,-7.3407,-7.4285,-7.5408,-7.6628,-7.7897,-7.858,-7.9502,-8.0428,-8.1216,-8.1997,-8.2739,-8.3032,-8.4486,-8.595,-8.6634,-8.7707,-8.8781,-8.9855,-9.0001,-9.0001,-9.0001,-9.0001,-9.0148,-9.0538,-9.1563,-9.2149,-9.2149,-9.3808,-9.498,-9.537,-9.6053,-9.6395,-9.6395,-9.6395,-9.6395,-9.6395,-9.6395,-9.6395,-9.6395,-9.6395,-9.6395,-9.6395,-9.6395,-9.6395,-9.6395,-9.6395,-9.6395,-9.6395,-9.6395,-9.6395,-9.6395,-9.6395,-9.6395,-9.6395,-9.6395,-9.6395,-9.6395,-9.6395,-9.6395,-9.6395,-9.6395,-9.6395,-9.6395,-9.6395,-9.6395,-9.6395,-9.6395,-9.6395,-9.6395,-9.6395,-9.6395,-9.6395,-9.6395,-9.6395,-9.6395,-9.6395,-9.6395,-9.6395,-9.6395,-9.6395,-9.6395,-9.6395,-9.6395,-9.5593,-9.3294,-8.7921,-8.3114,-8.0606,-7.726,-7.4982,-7.4982,-7.4982,-7.4982,-7.4982,-7.712,-7.7919,-7.7019,-8.0619,-8.2311,-8.1235,-8.3924,-8.5528,-8.5528,-8.875,-9.06,-9.093,-9.2755,-9.3906,-9.4296,-9.4296,-9.4296,-7.082,-7.1747,-7.2528,-7.3746,-7.5261,-7.6921,-7.7995,-7.9068,-8.0142,-8.1216,-8.181,-8.225,-8.2983,-8.4193,-8.5511,-8.6585,-8.7707,-8.8781,-8.9855,-9.0001,-9.0001,-9.0001,-9.0001,-9.0001,-9.0001,-9.0685,-9.1222,-9.1612,-9.293,-9.4052,-9.4784,-9.5468,-9.6053,-9.6395,-9.6395,-9.6395,-9.6395,-9.6395,-9.6395,-9.6395,-9.6395,-9.6395,-9.6395,-9.6395,-9.6395,-9.6395,-9.6395,-9.6395,-9.6395,-9.6395,-9.6395,-9.6395,-9.6395,-9.6395,-9.6395,-9.6395,-9.6395,-9.6395,-9.6395,-9.6395,-9.6395,-9.6395,-9.6395,-9.6395,-9.6395,-9.6395,-9.6395,-9.6395,-9.6395,-9.6395,-9.6395,-9.6395,-9.6395,-9.6395,-9.6395,-9.6395,-9.6395,-9.6395,-9.6395,-9.6395,-9.6395,-9.6395,-9.6395,-9.5467,-9.3803,-9.1403,-8.5934,-8.1291,-7.8892,-7.6458,-7.4982,-7.4982,-7.4982,-7.4868,-7.4564,-7.669,-7.6989,-7.4287,-7.9173,-8.0451,-7.6724,-8.0574,-8.2708,-8.2578,-8.576,-8.8231,-8.9675,-9.1645,-9.2783,-9.3125,-9.3125,-9.3125,-6.8924,-7.0576,-7.1943,-7.101,-7.316,-7.5749,-7.6774,-7.7848,-7.8971,-7.994,-8.1118,-8.1957,-8.2055,-8.3656,-8.5462,-8.6536,-8.7659,-8.8781,-8.9806,-9.0001,-9.0001,-9.0001,-9.0001,-9.0001,-9.0001,-9.0001,-9.0441,-9.1514,-9.1493,-9.2539,-9.4589,-9.4784,-9.5273,-9.6346,-9.6395,-9.6395,-9.6395,-9.6395,-9.6395,-9.6395,-9.6395,-9.6395,-9.6395,-9.6395,-9.6395,-9.6395,-9.6395,-9.6395,-9.6395,-9.6395,-9.6395,-9.6395,-9.6395,-9.6395,-9.6395,-9.6395,-9.6395,-9.6395,-9.6395,-9.6395,-9.6395,-9.6395,-9.6395,-9.6395,-9.6395,-9.6395,-9.6395,-9.6395,-9.6395,-9.6395,-9.6395,-9.6395,-9.6395,-9.6395,-9.6395,-9.6395,-9.6395,-9.6395,-9.6395,-9.6395,-9.627,-9.627,-9.627,-9.3294,-9.071,-9.071,-8.7702,-8.2927,-7.5895,-7.4944,-7.4944,-7.4906,-7.4906,-7.4564,-7.3767,-7.3691,-7.3488,-7.2552,-7.6156,-7.6518,-7.2985,-7.967,-8.3264,-8.3007,-8.5502,-8.8884,-9.3027,-9.2051,-9.2051,-9.3027,-9.3027,-9.3027,-6.7745,-6.8827,-7.0088,-7.0668,-7.2036,-7.326,-7.3553,-7.5066,-7.6726,-7.7799,-7.8873,-8.0093,-8.1761,-8.3179,-8.434,-8.5413,-8.717,-8.8537,-8.883,-8.9513,-9.0001,-9.0001,-9.0001,-9.0001,-9.0001,-9.0001,-9.0148,-9.0441,-9.1173,-9.1856,-9.2491,-9.3955,-9.4931,-9.5224,-9.6005,-9.6395,-9.6395,-9.6395,-9.6395,-9.6395,-9.6395,-9.6395,-9.6395,-9.6395,-9.6395,-9.6395,-9.6395,-9.6395,-9.6395,-9.6395,-9.6395,-9.6395,-9.6395,-9.6395,-9.6395,-9.6395,-9.6395,-9.6395,-9.6395,-9.6395,-9.6395,-9.6395,-9.6395,-9.6395,-9.6395,-9.6395,-9.6395,-9.6395,-9.6395,-9.6395,-9.6395,-9.6395,-9.6395,-9.6395,-9.6395,-9.6395,-9.6395,-9.6395,-9.6395,-9.6395,-9.4232,-9.2479,-9.2479,-8.954,-8.6244,-8.3697,-8.0193,-7.7064,-7.4427,-7.4071,-7.3843,-7.3236,-7.3198,-7.3084,-7.2856,-7.5202,-7.5491,-7.2651,-7.9948,-8.2642,-7.9007,-8.4808,-8.8113,-8.7992,-8.8713,-8.9712,-9.088,-9.0587,-9.0587,-9.088,-9.088,-9.088,-6.7062,-6.8193,-6.9168,-6.9893,-7.082,-7.1747,-7.2187,-7.3602,-7.5017,-7.5652,-7.736,-7.902,-7.9801,-8.1664,-8.3217,-8.4291,-8.5901,-8.7366,-8.8293,-8.8976,-8.9513,-8.9953,-9.0001,-9.0001,-9.0001,-9.0001,-9.0001,-9.0001,-9.0587,-9.1124,-9.1493,-9.2783,-9.3662,-9.4101,-9.5175,-9.5761,-9.5761,-9.62,-9.6395,-9.6395,-9.6395,-9.6395,-9.6395,-9.6395,-9.6395,-9.6395,-9.6395,-9.6395,-9.6395,-9.6395,-9.6395,-9.6395,-9.6395,-9.6395,-9.6395,-9.6395,-9.6395,-9.6395,-9.6395,-9.6395,-9.6395,-9.6395,-9.6395,-9.6395,-9.6395,-9.6395,-9.6395,-9.6395,-9.6395,-9.6395,-9.6395,-9.6395,-9.6395,-9.6395,-9.6395,-9.6395,-9.6395,-9.6395,-9.6019,-9.4486,-9.2479,-9.0451,-8.9017,-8.5845,-8.1997,-7.7617,-7.5273,-7.3767,-7.3274,-7.3198,-7.3046,-7.2552,-7.2514,-7.2362,-7.2021,-7.5236,-7.557,-7.1759,-7.799,-8.0246,-7.6667,-8.1184,-8.44,-8.5776,-8.6833,-8.8179,-9.0001,-8.9562,-8.9562,-9.0001,-9.0001,-8.9757,-6.6232,-6.7462,-6.8291,-6.8437,-6.9453,-7.0668,0.0,-7.2577,-7.3358,-7.3504,-7.5847,-7.7653,-7.6921,-7.9312,-8.1908,-8.2973,-8.4193,-8.5755,-8.7903,-8.8342,-8.8781,-8.9708,-8.9953,-9.0001,-9.0001,-9.0001,-9.0001,-9.0001,-9.0001,-9.0441,-9.1417,-9.1444,-9.2051,-9.293,-9.4052,-9.4638,-9.4638,-9.5663,-9.6249,-9.6249,-9.6346,-9.6395,-9.6395,-9.6395,-9.6395,-9.6395,-9.6395,-9.6395,-9.6395,-9.6395,-9.6395,-9.6395,-9.6395,-9.6249,-9.6053,-9.6053,-9.6053,-9.6053,-9.6053,-9.6053,-9.6053,-9.6053,-9.6053,-9.6053,-9.62,-9.6249,-9.6249,-9.6346,-9.6395,-9.6395,-9.6395,-9.6395,-9.6395,-9.6395,-9.6395,-9.6395,-9.6395,-9.6144,-9.4787,-9.1661,-9.0321,-8.871,-8.558,-8.1944,-7.7897,-7.3253,-7.2514,-7.2476,-7.2362,-7.2362,-7.2325,-7.2249,-7.2211,-7.1945,-7.1186,-7.3794,-7.4096,-7.0801,-7.3778,-7.4424,-7.1774,-7.4899,-7.8168,-8.1168,-8.2761,-8.539,-8.9338,-8.8367,-8.8367,-8.9193,-8.9641,-8.9269,0.0,0.0,0.0,0.0,0.0,0.0,0.0,-6.9168,-7.0192,-7.1113,-7.1889,-7.2723,-7.4236,-7.6482,-7.8727,-8.0679,-8.2583,-8.4584,-8.678,-8.7854,-8.8488,-8.8684,-8.9513,-9.0001,-9.0001,-9.0001,-9.0001,-9.0001,-9.0001,-9.0099,-9.0343,-9.1173,-9.171,-9.1905,-9.293,-9.3467,-9.3467,-9.454,-9.5126,-9.5126,-9.6005,-9.6395,-9.6395,-9.6395,-9.6395,-9.6395,-9.6395,-9.6395,-9.6395,-9.6395,-9.6395,-9.6395,-9.6395,-9.5321,-9.376,-9.376,-9.376,-9.376,-9.376,-9.376,-9.376,-9.376,-9.376,-9.3955,-9.4833,-9.5126,-9.5321,-9.6151,-9.6395,-9.6395,-9.6395,-9.6395,-9.6395,-9.6395,-9.6395,-9.6395,-9.6395,-9.4105,-9.1789,-9.1098,-8.6334,-8.1997,-8.0612,-7.744,-7.441,-7.2803,-7.2514,-7.2249,-7.1603,-7.1527,-7.1261,-7.0578,-7.0502,-7.0426,-7.0274,-7.0767,-7.193,-7.3908,-7.7156,-8.0049,-8.1988,-8.5247,-8.7379,-8.802,-8.5829,-8.4765,-8.5037,-8.4567,-8.4146,-8.3819,-8.7208,-8.8147,0.0,0.0,0.0,0.0,0.0,0.0,0.0,0.0,0.0,0.0,0.0,-7.1107,-7.2089,0.0,-7.6238,-7.8385,-8.0581,-8.268,-8.4828,-8.6536,-8.7561,-8.7561,-8.8537,-8.922,-8.922,-8.9708,-9.0001,-9.0001,-9.0001,-9.0001,-9.0001,-9.0538,-9.0831,-9.0831,-9.1807,-9.2393,-9.2393,-9.3418,-9.3955,-9.3955,-9.4492,-9.4784,-9.4784,-9.4784,-9.4784,-9.4784,-9.4784,-9.4784,-9.4784,-9.4784,-9.4784,-9.4784,-9.4784,-9.4101,-9.3125,-9.3125,-9.3125,-9.3125,-9.3125,-9.3125,-9.3125,-9.3125,-9.3125,-9.3223,-9.3808,-9.3955,-9.4101,-9.4638,-9.4784,-9.4784,-9.4784,-9.4784,-9.4784,-9.4784,-9.4784,-9.4366,-9.2655,-9.093,-8.8597,-8.519,-8.1537,-7.8362,-7.6236,-7.3937,-7.2756,-7.371,-7.2297,-7.111,-7.0692,-7.2172,-7.3031,-7.2558,-7.4037,-7.5027,-7.5027,-7.3519,-7.4641,-7.9631,-8.1662,-8.23,-8.1639,-8.338,-8.5102,-8.6737,-8.4075,-8.3842,-8.6093,-8.4883,-8.4361,-8.4475,-8.4987,-8.5169,0.0,0.0,0.0,0.0,0.0,0.0,0.0,0.0,0.0,0.0,0.0,0.0,0.0,0.0,0.0,-7.5896,-7.819,-8.0533,-8.2924,-8.473,-8.5901,-8.6097,-8.7268,-8.8195,-8.8391,-8.922,-8.9806,-9.0001,-9.0001,-9.0001,-9.0001,-9.0001,-9.0001,-9.0001,-9.088,-9.1319,-9.1319,-9.2344,-9.2832,-9.2832,-9.3027,0.0,-9.3125,-9.3125,-9.3125,-9.3125,-9.3125,-9.3125,-9.3125,-9.3125,-9.3125,-9.3076,-9.2686,-9.2539,-9.2539,-9.2539,-9.2539,-9.2539,-9.2539,-9.2539,-9.2539,-9.2539,-9.2539,-9.2588,-9.2783,-9.2832,0.0,-9.3076,-9.3125,-9.3004,-9.2348,-9.2227,-9.1983,-9.1324,-9.1201,-9.0416,-8.7839,-8.7212,-8.5315,-7.9137,-7.7853,-7.6879,-7.3706,-7.3104,-7.3781,-7.5998,-7.3769,-7.1944,-7.2271,-7.4376,-7.5969,-7.5677,-7.7535,-7.9165,-7.9664,-7.6945,-7.7663,-8.3625,-8.4827,-8.3899,-8.1018,-8.0308,-8.1433,-8.4636,-8.1906,-8.2466,-8.6617,-8.4153,-8.353,-8.4474,-8.2416,-8.1761,0.0,0.0,0.0,0.0,0.0,0.0,0.0,0.0,0.0,0.0,0.0,0.0,0.0,0.0,0.0,0.0,-7.5457,-7.858,-8.181,-8.2446,-8.2934,-8.3803,-8.5706,-8.7317,-8.8342,-8.8537,-8.8976,-8.9953,-9.0001,-9.0001,-9.0001,-9.0001,0.0,0.0,0.0,-9.0197,-9.0197,-9.127,-9.1807,-9.1807,-9.2686,-9.3125,-9.3125,-9.3125,-9.3125,-9.3125,-9.3125,-9.3125,-9.3125,-9.3125,-9.3125,-9.293,-9.1075,-9.0343,-9.0343,-9.0343,-9.0343,-9.0343,-9.0343,0.0,0.0,-9.0343,-9.0343,-9.0538,-9.1514,-9.1807,-9.1954,-9.2881,-9.3125,-9.247,-8.9551,-8.8759,-8.7964,-8.5016,-8.4334,-8.4206,-8.3822,-8.3609,-8.2363,-7.8649,-7.772,-7.721,-7.6002,-7.7655,-7.9479,-8.0675,-7.9817,-7.9224,-8.021,-7.9817,-7.9079,-7.8091,-7.5814,0.0,-7.8251,-7.6526,-7.6902,-8.0423,-8.4366,-8.7616,-8.9982,-8.6537,-8.6022,-8.9221,-8.3291,-8.0205,-8.0023,-7.6752,-7.5766,-7.6935,-7.8357,-7.8678,0.0,0.0,0.0,0.0,0.0,0.0,0.0,0.0,0.0,0.0,0.0,0.0,0.0,0.0,0.0,0.0,-7.3016,-7.4773,-7.6239,-7.7946,-7.9556,-8.063,-8.3217,-8.5072,-8.556,-8.6731,-8.7659,-8.8098,-8.8732,-8.9074,-8.9074,-8.966,-9.0001,-9.0001,-9.0001,-9.0001,-9.0001,-9.0489,-9.0685,-9.0685,-9.1124,-9.1319,-9.1319,-9.1319,-9.1319,-9.1319,-9.1319,-9.1319,-9.1319,-9.1319,-9.1319,-9.1222,0.0,0.0,0.0,0.0,-9.0001,-9.0001,-9.0001,-9.0001,-9.0099,-9.0733,-9.0929,-9.1026,-9.1466,-9.1493,-9.1444,-9.1368,-9.1319,-9.0963,-8.9671,-8.931,-8.8949,-8.7522,-8.7157,-8.6621,-8.4606,-8.2611,-8.021,-7.695,-7.617,0.0,-8.0659,-8.0642,-8.0928,-8.3186,-8.1026,-7.8609,-7.7241,-7.9452,-8.0158,-7.7906,-7.9786,-8.1732,-8.3071,-8.0668,0.0,0.0,0.0,-8.3419,-8.855,-8.4683,0.0,0.0,0.0,-7.806,-8.0757,-7.7424,0.0,0.0,-7.3704,-7.3748,0.0,0.0,0.0,0.0,0.0,0.0,0.0,0.0,0.0,0.0,0.0,0.0,0.0,0.0,0.0,0.0,-7.0668,-7.1845,-7.1845,-7.4139,-7.6433,-7.8141,-8.063,-8.2436,-8.313,-8.4486,-8.5657,-8.6243,-8.7073,-8.7659,-8.7951,-8.8976,-8.9562,-8.9562,-8.9855,-9.0001,-9.0001,-9.0001,-9.0001,-9.0001,-9.0001,-9.0001,-9.0001,-9.0001,-9.0001,-9.0001,-9.0001,-9.0001,-9.0001,-9.0001,-9.0001,-9.0001,-9.0001,-9.0001,-9.0001,-9.0001,-9.0001,-9.0001,-9.0001,-9.0001,-9.0197,-9.127,-9.1493,-9.1542,-9.1954,-9.1856,-9.1347,-9.0685,-9.0245,-8.9767,-8.8896,-8.8612,-8.8375,-8.7497,-8.7259,-8.6662,-8.4158,-8.2401,-8.0423,-7.7029,-7.661,-7.8566,-8.3654,-8.3109,-8.2958,-8.6297,-8.3317,-8.005,-7.8424,-8.1085,-8.2211,-7.9672,-8.274,-8.5343,-8.618,-8.2859,-8.2072,-8.5323,-8.1641,-8.0722,-8.359,-8.3294,-8.2975,-8.2743,-7.7754,-7.679,0.0,0.0,0.0,0.0,0.0,0.0,0.0,0.0,0.0,0.0,0.0,0.0,0.0,0.0,0.0,0.0,0.0,0.0,0.0,0.0,0.0,0.0,0.0,0.0,-7.0814,-7.1792,-7.3602,-7.6823,-7.8239,-7.9703,-8.1908,-8.2152,-8.3081,-8.5023,-8.5218,-8.5706,-8.6731,-8.7854,-8.8488,-8.8488,-8.9464,-9.0001,-9.0001,-9.0001,-9.0001,-9.0001,-9.0001,-9.0001,-9.0001,-9.0001,-9.0001,-9.0001,-9.0001,-9.0001,-9.0001,-9.0001,-9.0001,-9.0001,-9.0001,-9.0001,-9.0001,-9.0001,-9.0001,-9.0001,-9.0001,-9.0001,-9.0197,-9.127,-9.1493,-9.1807,-9.2783,-9.2393,-9.1493,-9.1444,-9.0831,-8.9249,-8.6016,-8.5127,-8.4233,-8.1168,-8.0423,-8.0298,-8.0298,-8.2647,-8.3869,-8.0547,-8.0832,-8.2019,-8.3223,-8.5121,-8.7559,-9.0838,-8.8599,0.0,-8.9193,-8.7705,-8.6116,-8.4934,-8.2341,-8.1889,-8.4948,-8.0659,-7.9042,-8.2118,-8.4042,-8.2408,-7.634,-8.4921,-8.6792,-8.0658,-7.8442,-7.6812,-7.5848,0.0,0.0,0.0,0.0,0.0,0.0,0.0,0.0,0.0,0.0,0.0,0.0,0.0,0.0,0.0,0.0,0.0,0.0,0.0,0.0,0.0,0.0,0.0,0.0,-6.9063,-7.082,-7.2769,-7.4432,-7.6091,-7.7656,-7.8336,-7.9361,-8.0826,-8.1558,-8.2436,-8.351,-8.5267,-8.6243,-8.6243,-8.7268,-8.8195,-8.8976,-8.8976,-8.9318,-9.0001,-9.0001,-9.0001,-9.0001,-9.0001,-9.0001,-9.0001,-9.0001,-9.0001,-9.0001,-9.0001,-8.9172,-8.7854,-8.7854,-8.7854,-8.7854,-8.7854,-8.7854,-8.7854,-8.7854,-8.7854,-8.8147,-9.0001,-9.0587,-9.0782,-9.1807,-9.1417,-9.0392,-8.9708,-8.922,-8.8696,-8.7601,-8.773,-8.802,-8.6902,-8.6662,-8.6662,-8.6662,-8.5216,-8.363,-8.2549,-8.3749,-8.543,-8.6484,-8.615,-8.6292,-8.8098,-8.5609,-8.3389,-8.2672,-8.3176,-8.3002,-8.1254,-8.1969,-8.2901,-8.3986,-8.2525,-8.2046,-8.3098,-8.1869,-8.0768,-7.9978,-8.1031,-8.0908,-7.9393,-7.7956,-7.5671,-7.2481,0.0,0.0,0.0,0.0,0.0,0.0,0.0,0.0,0.0,0.0,0.0,0.0,0.0,0.0,0.0,0.0,0.0,0.0,0.0,0.0,0.0,0.0,0.0,0.0,0.0,0.0,-6.999,-7.1357,0.0,-7.3795,-7.4481,-7.5505,-7.6921,-7.7653,-7.8678,-8.0246,-8.229,-8.3461,-8.3461,-8.5218,-8.6536,-8.7219,-8.7268,-8.761,-8.8293,-8.7903,-8.7903,-8.8293,-8.8293,-8.8684,-8.9416,-8.9025,-8.9074,-8.9367,-8.8195,-8.7122,-8.6146,-8.5755,-8.5609,-8.5609,-8.5609,-8.5609,-8.5609,-8.5609,-8.5609,-8.5901,-8.7707,-8.8537,-8.9074,-9.0148,-8.9464,-8.8147,-8.7463,-8.7268,-8.7268,-8.7268,-8.8049,-8.8976,-8.9367,-8.9123,-8.883,-8.883,-8.658,-8.4073,-8.2614,-8.3434,-8.4828,-8.5901,-8.4633,-8.4047,-8.5901,-8.3412,-8.121,-8.0703,-8.1456,-8.1501,-8.012,-8.2178,-8.3559,-8.3559,-8.259,-8.1741,-8.1357,-7.9881,-7.9191,-7.9717,-7.887,-7.8204,-7.7653,-7.6189,-7.3606,0.0,0.0,0.0,0.0,0.0,0.0,0.0,0.0,0.0,0.0,0.0,0.0,0.0,0.0,0.0,0.0,0.0,0.0,0.0,0.0,0.0,0.0,0.0,0.0,0.0,0.0,0.0,-6.8729,-6.8827,0.0,0.0,0.0,0.0,-7.3504,-7.3651,-7.4578,-7.6774,-7.8824,-7.9892,-8.0038,-8.3119,-8.4779,-8.4877,-8.4877,-8.4925,-8.4974,-8.3949,-8.3998,-8.4974,-8.5023,-8.6194,-8.8098,-8.7073,-8.7219,-8.8,-8.4681,-8.39,-8.473,-8.3656,-8.3217,-8.3217,-8.3217,-8.3217,-8.3217,-8.3217,-8.3217,-8.3412,-8.4437,-8.5462,-8.6536,-8.761,-8.6487,0.0,0.0,-8.4877,-8.4877,-8.4877,-8.5755,-8.6926,-8.7951,-8.7415,-8.6634,-8.6536,-8.6487,-8.5218,-8.0867,-8.0038,-8.0533,-8.1761,0.0,-8.1159,-8.4437,-8.2241,-8.0972,-8.3022,-8.2543,-8.2006,-8.2055,-8.3032,-8.351,-8.3461,-8.0798,-7.8619,-7.7552,-7.8433,-7.7906,-7.5669,-7.8425,-7.858,-7.5457,-7.3163,0.0,0.0,0.0,0.0,0.0,0.0,0.0,0.0,0.0,0.0,0.0,0.0,0.0,0.0,0.0,0.0,0.0,0.0,0.0,0.0,0.0,0.0,0.0,0.0,0.0,0.0,-6.3499,-6.4573,-6.6476,-6.672,-6.7159,0.0,0.0,0.0,0.0,0.0,0.0,-7.3407,-7.4041,-7.5115,-7.6726,-7.8336,-7.9947,-8.1452,-8.1452,-8.1997,-8.2885,-8.2592,-8.2592,-8.2885,-8.3608,-8.4242,-8.4779,-8.4486,-8.4974,-8.5657,-8.1655,-8.0142,-8.0289,-7.9215,-7.8776,-7.8776,-7.8776,-7.8776,-7.8776,-7.8776,-7.8776,-7.8824,-7.9117,-7.9947,-8.0874,-8.1167,0.0,0.0,0.0,0.0,-8.1452,-8.1452,-8.3559,-8.5413,-8.4925,-8.5169,-8.5121,-8.351,-8.3168,-8.1899,-7.7604,-7.7458,-7.858,-8.0435,-7.9215,0.0,-8.111,-7.9508,-7.8483,-7.9801,-8.0435,-8.107,-8.1957,-8.3032,-8.3217,-8.2543,-8.1646,-8.0396,-7.8461,-7.9327,-7.8654,-7.5719,-7.6375,-7.5261,-7.2085,0.0,0.0,0.0,0.0,0.0,0.0,0.0,0.0,0.0,0.0,0.0,0.0,0.0,0.0,0.0,0.0,0.0,0.0,0.0,0.0,0.0,0.0,0.0,0.0,0.0,0.0,0.0,-6.1351,-6.2035,-6.2376,-6.2815,-6.3499,0.0,0.0,0.0,0.0,0.0,0.0,0.0,0.0,0.0,-7.1991,-7.3992,-7.5603,-7.6823,-7.7263,-7.7799,-7.8385,-7.8385,-7.8385,-7.8434,-7.9556,-8.0533,-8.146,-8.146,-8.0972,-7.9996,-7.7604,-7.6335,-7.5847,0.0,0.0,0.0,0.0,-7.4334,-7.4334,-7.4334,-7.4334,-7.4383,-7.4871,0.0,0.0,0.0,0.0,0.0,0.0,0.0,-7.7653,-7.8141,-8.0289,-8.2192,-8.1606,-8.2241,-8.2436,-8.0337,-7.8438,-7.6239,-7.326,-7.3602,-7.4725,-7.5896,-7.5505,0.0,0.0,0.0,-7.6823,-7.7946,-7.902,-8.0045,-8.1118,-8.1802,-8.2094,-8.2055,-8.107,-7.9849,-7.8141,-7.819,-7.7019,-7.4236,-7.3746,-7.1987,0.0,0.0,0.0,0.0,0.0,0.0,0.0,0.0,0.0,0.0,0.0,0.0,0.0,0.0,0.0,0.0,0.0,0.0,0.0,0.0,0.0,0.0,0.0,0.0,0.0,0.0,0.0,0.0,0.0,-5.9399,-5.7886,0.0,0.0,0.0,0.0,0.0,0.0,0.0,0.0,0.0,0.0,0.0,0.0,0.0,-7.165,-7.165,-7.2723,-7.326,-7.326,-7.326,-7.326,-7.3309,-7.4432,-7.6042,-7.7897,-7.7458,0.0,-7.3016,-7.3016,0.0,0.0,0.0,0.0,0.0,0.0,0.0,0.0,0.0,0.0,0.0,0.0,0.0,0.0,0.0,0.0,0.0,0.0,0.0,0.0,0.0,0.0,-7.7995,-7.7555,-7.8532,-7.8722,-7.6238,-7.2821,-6.9941,-6.8778,-6.9363,-7.0137,0.0,0.0,0.0,0.0,0.0,0.0,-7.6579,-7.7799,-7.8922,-7.9745,-8.0087,-8.0679,-8.1566,-7.9703,-7.8043,-7.6774,-7.5701,-7.4139,-7.1943,-7.0966,0.0,0.0,0.0,0.0,0.0,0.0,0.0,0.0,0.0,0.0,0.0,0.0,0.0,0.0,0.0,0.0,0.0,0.0,0.0,0.0,0.0,0.0,0.0,0.0,0.0,0.0,0.0,0.0,0.0,0.0,0.0,0.0,0.0,0.0,0.0,0.0,0.0,0.0,0.0,0.0,0.0,0.0,0.0,0.0,0.0,0.0,0.0,0.0,0.0,0.0,-6.985,-6.985,-6.9899,-7.1113,-7.2284,-7.326,-7.0625,-6.9112,-6.8624,-6.8624,0.0,0.0,0.0,0.0,0.0,0.0,0.0,0.0,0.0,0.0,0.0,0.0,0.0,0.0,0.0,0.0,0.0,0.0,0.0,0.0,0.0,0.0,-7.409,-7.1313,-7.2919,-7.37,-6.8916,0.0,0.0,0.0,0.0,0.0,0.0,0.0,0.0,0.0,0.0,0.0,-7.4334,-7.6189,-7.7507,-7.7702,-7.9312,-7.9989,-7.9361,-7.8141,-7.6579,-7.4578,-7.3456,-7.1894,0.0,0.0,0.0,0.0,0.0,0.0,0.0,0.0,0.0,0.0,0.0,0.0,0.0,0.0,0.0,0.0,0.0,0.0,0.0,0.0,0.0,0.0,0.0,0.0,0.0,0.0,0.0,0.0,0.0,0.0,0.0,0.0,0.0,0.0,0.0,0.0,0.0,0.0,0.0,0.0,0.0,0.0,0.0,0.0,0.0,0.0,0.0,0.0,0.0,0.0,0.0,0.0,0.0,0.0,0.0,0.0,0.0,0.0,-6.7208,-6.55,0.0,0.0,0.0,0.0,0.0,0.0,0.0,0.0,0.0,0.0,0.0,0.0,0.0,0.0,0.0,0.0,0.0,0.0,0.0,0.0,0.0,0.0,0.0,0.0,0.0,0.0,0.0,0.0,0.0,0.0,0.0,0.0,0.0,0.0,0.0,0.0,0.0,0.0,0.0,0.0,-7.1313,-7.4285,-7.653,-7.7116,-7.8092,-7.8483,-7.7995,-7.5896,-7.3944,-7.2333,-7.0674,0.0,0.0,0.0,0.0,0.0,0.0,0.0,0.0,0.0,0.0,0.0,0.0,0.0,0.0,0.0,0.0,0.0,0.0,0.0,0.0,0.0,0.0,0.0,0.0,0.0,0.0,0.0,0.0,0.0,0.0,0.0,0.0,0.0,0.0,0.0,0.0,0.0,0.0,0.0,0.0,0.0,0.0,0.0,0.0,0.0,0.0,0.0,0.0,0.0,0.0,0.0,0.0,0.0,0.0,0.0,0.0,0.0,0.0,0.0,-6.4573,-6.262,0.0,0.0,0.0,0.0,0.0,0.0,0.0,0.0,0.0,0.0,0.0,0.0,0.0,0.0,0.0,0.0,0.0,0.0,0.0,0.0,0.0,0.0,0.0,0.0,0.0,0.0,0.0,0.0,0.0,0.0,0.0,0.0,0.0,0.0,0.0,0.0,0.0,0.0,0.0,0.0,-6.8778,-7.2333,-7.5261,-7.6335,-7.6677,-7.6823,-7.6823,-7.4236,-7.2089,-7.0863,-6.8672,0.0,0.0,0.0,0.0,0.0,0.0,0.0,0.0,0.0,0.0,0.0,0.0,0.0,0.0,0.0,0.0,0.0,0.0,0.0,0.0,0.0,0.0,0.0,0.0,0.0,0.0,0.0,0.0,0.0,0.0,0.0,0.0,0.0,0.0,0.0,0.0,0.0,0.0,0.0,0.0,0.0,0.0,0.0,0.0,0.0,0.0,0.0,0.0,0.0,0.0,0.0,0.0,0.0,0.0,0.0,0.0,0.0,0.0,0.0,0.0,0.0,0.0,0.0,0.0,0.0,0.0,0.0,0.0,0.0,0.0,0.0,0.0,0.0,0.0,0.0,0.0,0.0,0.0,0.0,0.0,0.0,0.0,0.0,0.0,0.0,0.0,0.0,0.0,0.0,0.0,0.0,0.0,0.0,0.0,0.0,0.0,0.0,0.0,0.0,0.0,0.0,-6.755,-7.0527,-7.2967,-7.4041,-7.5115,-7.5799,-7.5799,-7.4481,-7.287,-7.0912,0.0,0.0,0.0,0.0,0.0,0.0,0.0,0.0,0.0,0.0,0.0,0.0,0.0,0.0,0.0,0.0,0.0,0.0,0.0,0.0,0.0,0.0,0.0,0.0,0.0,0.0,0.0,0.0,0.0,0.0,0.0,0.0,0.0,0.0,0.0,0.0,0.0,0.0,0.0,0.0,0.0,0.0,0.0,0.0,0.0,0.0,0.0,0.0,0.0,0.0,0.0,0.0,0.0,0.0,0.0,0.0,0.0,0.0,0.0,0.0,0.0,0.0,0.0,0.0,0.0,0.0,0.0,0.0,0.0,0.0,0.0,0.0,0.0,0.0,0.0,0.0,0.0,0.0,0.0,0.0,0.0,0.0,0.0,0.0,0.0,0.0,0.0,0.0,0.0,0.0,0.0,0.0,0.0,0.0,0.0,0.0,0.0,0.0,0.0,0.0,0.0,0.0,-6.5598,-6.9502,-7.2675,-7.3748,-7.4285,-7.4285,-7.3651,-7.1406,-6.9405,-6.7891,0.0,0.0,0.0,0.0,0.0,0.0,0.0,0.0,0.0,0.0,0.0,0.0,0.0,0.0,0.0,0.0,0.0,0.0,0.0,0.0,0.0,0.0,0.0,0.0,0.0,0.0,0.0,0.0,0.0,0.0,0.0,0.0,0.0,0.0,0.0,0.0,0.0,0.0,0.0,0.0,0.0,0.0,0.0,0.0,0.0,0.0,0.0,0.0,0.0,0.0,0.0,0.0,0.0,0.0,0.0,0.0,0.0,0.0,0.0,0.0,0.0,0.0,0.0,0.0,0.0,0.0,0.0,0.0,0.0,0.0,0.0,0.0,0.0,0.0,0.0,0.0,0.0,0.0,0.0,0.0,0.0,0.0,0.0,0.0,0.0,0.0,0.0,0.0,0.0,0.0,0.0,0.0,0.0,0.0,0.0,0.0,0.0,0.0,0.0,0.0,0.0,0.0,-6.4377,-6.8428,-7.1991,-7.37,-7.3602,-7.3114,-7.2333,-6.9649,-6.7257,-6.5549,0.0,0.0,0.0,0.0,0.0,0.0,0.0,0.0,0.0,0.0,0.0,0.0,0.0,0.0,0.0,0.0,0.0,0.0,0.0,0.0,0.0,0.0,0.0,0.0,0.0,0.0,0.0,0.0,0.0,0.0,0.0,0.0,0.0,0.0,0.0,0.0,0.0,0.0,0.0,0.0,0.0,0.0,0.0,0.0,0.0,0.0,0.0,0.0,0.0,0.0,0.0,0.0,0.0,0.0,0.0,0.0,0.0,0.0,0.0,0.0,0.0,0.0,0.0,0.0,0.0,0.0,0.0,0.0,0.0,0.0,0.0,0.0,0.0,0.0,0.0,0.0,0.0,0.0,0.0,0.0,0.0,0.0,0.0,0.0,0.0,0.0,0.0,0.0,0.0,0.0,0.0,0.0,0.0,0.0,0.0,0.0,0.0,0.0,0.0,0.0,0.0,0.0,-6.4133,-6.7111,-7.024,-7.3553,-7.2919,-7.2284,-7.2284,-7.024,-6.7608,0.0,0.0,0.0,0.0,0.0,0.0,0.0,0.0,0.0,0.0,0.0,0.0,0.0,0.0,0.0,0.0,0.0,0.0,0.0,0.0,0.0,0.0,0.0,0.0,0.0,0.0,0.0,0.0,0.0,0.0,0.0,0.0,0.0,0.0,0.0,0.0,0.0,0.0,0.0,0.0,0.0,0.0,0.0,0.0,0.0,0.0,0.0,0.0,0.0,0.0,0.0,0.0,0.0,0.0,0.0,0.0,0.0,0.0,0.0,0.0,0.0,0.0,0.0,0.0,0.0,0.0,0.0,0.0,0.0,0.0,0.0,0.0,0.0,0.0,0.0,0.0,0.0,0.0,0.0,0.0,0.0,0.0,0.0,0.0,0.0,0.0,0.0,0.0,0.0,0.0,0.0,0.0,0.0,0.0,0.0,0.0,0.0,0.0,0.0,0.0,0.0,0.0,0.0,-6.3108,-6.6536,-6.9655,-7.1503,-7.1498,-7.0918,-7.0094,-6.7452,-6.5061,-6.3255,0.0,0.0,0.0,0.0,0.0,0.0,0.0,0.0,0.0,0.0,0.0,0.0,0.0,0.0,0.0,0.0,0.0,0.0,0.0,0.0,0.0,0.0,0.0,0.0,0.0,0.0,0.0,0.0,0.0,0.0,0.0,0.0,0.0,0.0,0.0,0.0,0.0,0.0,0.0,0.0,0.0,0.0,0.0,0.0,0.0,0.0,0.0,0.0,0.0,0.0,0.0,0.0,0.0,0.0,0.0,0.0,0.0,0.0,0.0,0.0,0.0,0.0,0.0,0.0,0.0,0.0,0.0,0.0,0.0,0.0,0.0,0.0,0.0,0.0,0.0,0.0,0.0,0.0,0.0,0.0,0.0,0.0,0.0,0.0,0.0,0.0,0.0,0.0,0.0,0.0,0.0,0.0,0.0,0.0,0.0,0.0,0.0,0.0,0.0,0.0,0.0,0.0,0.0,-6.5951,-6.9063,-7.0527,-7.0814,-7.0234,-6.9071,-6.6134,-6.3645,-6.2132,0.0,0.0,0.0,0.0,0.0,0.0,0.0,0.0,0.0,0.0,0.0,0.0,0.0,0.0,0.0,0.0,0.0,0.0,0.0,0.0,0.0,0.0,0.0,0.0,0.0,0.0,0.0,0.0,0.0,0.0,0.0,0.0,0.0,0.0,0.0,0.0,0.0,0.0,0.0,0.0,0.0,0.0,0.0,0.0,0.0,0.0,0.0,0.0,0.0,0.0,0.0,0.0,0.0,0.0,0.0,0.0,0.0,0.0,0.0,0.0,0.0,0.0,0.0,0.0,0.0,0.0,0.0,0.0,0.0,0.0,0.0,0.0,0.0,0.0,0.0,0.0,0.0,0.0,0.0,0.0,0.0,0.0,0.0,0.0,0.0,0.0,0.0,0.0,0.0,0.0,0.0,0.0,0.0,0.0,0.0,0.0,0.0,0.0,0.0,0.0,0.0,0.0,0.0,-6.5305,-6.8087,-7.0332,-7.0478,-7.0039,-6.8973,-6.6037,-6.3255,-6.1156,-5.7007,0.0,0.0,0.0,0.0,0.0,0.0,0.0,0.0,0.0,0.0,0.0,0.0,0.0,0.0,0.0,0.0,0.0,0.0,0.0,0.0,0.0,0.0,0.0,0.0,0.0,0.0,0.0,0.0,0.0,0.0,0.0,0.0,0.0,0.0,0.0,0.0,0.0,0.0,0.0,0.0,0.0,0.0,0.0,0.0,0.0,0.0,0.0,0.0,0.0,0.0,0.0,0.0,0.0,0.0,0.0,0.0,0.0,0.0,0.0,0.0,0.0,0.0,0.0,0.0,0.0,0.0,0.0,0.0,0.0,0.0,0.0,0.0,0.0,0.0,0.0,0.0,0.0,0.0,0.0,0.0,0.0,0.0,0.0,0.0,0.0,0.0,0.0,0.0,0.0,0.0,0.0,0.0,0.0,0.0,0.0,0.0,0.0,0.0,0.0,0.0,0.0,0.0,-6.3548,-6.589,-6.8038,-6.8233,-6.8136,-6.7803,-6.4865,-6.2425,-6.1107,-5.7007,0.0,0.0,0.0,0.0,0.0,0.0,0.0,0.0,0.0,0.0,0.0,0.0,0.0,0.0,0.0,0.0,0.0,0.0,0.0,0.0,0.0,0.0,0.0,0.0,0.0,0.0,0.0,0.0,0.0,0.0,0.0,0.0,0.0,0.0,0.0,0.0,0.0,0.0,0.0,0.0,0.0,0.0,0.0,0.0,0.0,0.0,0.0,0.0,0.0,0.0,0.0,0.0,0.0,0.0,0.0,0.0,0.0,0.0,0.0,0.0,0.0,0.0,0.0,0.0,0.0,0.0,0.0,0.0,0.0,0.0,0.0,0.0,0.0,0.0,0.0,0.0,0.0,0.0,0.0,0.0,0.0,0.0,0.0,0.0,0.0,0.0,0.0,0.0,0.0,0.0,0.0,0.0,0.0,0.0,0.0,0.0,0.0,0.0,0.0,0.0,0.0,0.0,-6.2996,-6.4732,-6.6562,-6.8028,-6.8251,-6.6905,-6.5046,-6.3126,-6.1138,-5.8521,0.0,0.0,0.0,0.0,0.0,0.0,0.0,0.0,0.0,0.0,0.0,0.0,0.0,0.0,0.0,0.0,0.0,0.0,0.0,0.0,0.0,0.0,0.0,0.0,0.0,0.0,0.0,0.0,0.0,0.0,0.0,0.0,0.0,0.0,0.0,0.0,0.0,0.0,0.0,0.0,0.0,0.0,0.0,0.0,0.0,0.0,0.0,0.0,0.0,0.0,0.0,0.0,0.0,0.0,0.0,0.0,0.0,0.0,0.0,0.0,0.0,0.0,0.0,0.0,0.0,0.0,0.0,0.0,0.0,0.0,0.0,0.0,0.0,0.0,0.0,0.0,0.0,0.0,0.0,0.0,0.0,0.0,0.0,0.0,0.0,0.0,0.0,0.0,0.0,0.0,0.0,0.0,0.0,0.0,0.0,0.0,0.0,0.0,0.0,0.0,0.0,0.0,0.0,-6.4709,-6.5939,-6.8711,-6.9452,-6.6749,-6.6181,-6.4505,-6.1444,0.0,0.0,0.0,0.0,0.0,0.0,0.0,0.0,0.0,0.0,0.0,0.0,0.0,0.0,0.0,0.0,0.0,0.0,0.0,0.0,0.0,0.0,0.0,0.0,0.0,0.0,0.0,0.0,0.0,0.0,0.0,0.0,0.0,0.0,0.0,0.0,0.0,0.0,0.0,0.0,0.0,0.0,0.0,0.0,0.0,0.0,0.0,0.0,0.0,0.0,0.0,0.0,0.0,0.0,0.0,0.0,0.0,0.0,0.0,0.0,0.0,0.0,0.0,0.0,0.0,0.0,0.0,0.0,0.0,0.0,0.0,0.0,0.0,0.0,0.0,0.0,0.0,0.0,0.0,0.0,0.0,0.0,0.0,0.0,0.0,0.0,0.0,0.0,0.0,0.0,0.0,0.0,0.0,0.0,0.0,0.0,0.0,0.0,0.0,0.0,0.0,0.0,0.0,0.0,-6.6473,-6.6685,-6.8951,-7.0174,-6.9598,-6.7759,-6.531,-6.2262,0.0,0.0,0.0,0.0,0.0,0.0,0.0,0.0,0.0,0.0,0.0,0.0,0.0,0.0]}],[{"header":{"parameterUnit":"kt","parameterCategory":2,"dx":1,"dy":1,"la1":29.285339999999998,"la2":30.599998999999997,"lo1":-89.70041500000002,"lo2":-87.6738589999976,"nx":112,"ny":82,"refTime":"2022-11-01T12:00:00:Z","depth":0,"parameterNumber":2,"parameterNumberName":"V-component_of_WINDS"},"data":[9.3418,9.2149,9.1075,9.0782,8.8537,8.6438,8.6438,8.4242,8.1655,7.9801,7.8682,7.7263,7.5505,7.4236,7.3212,7.2622,7.0869,6.9258,0.0,6.7647,6.7403,6.7403,0.0,0.0,0.0,0.0,0.0,8.7317,9.0587,9.2002,9.0685,9.088,9.1222,9.1493,9.332,9.4394,9.4784,9.5858,9.6395,9.6395,9.6395,9.6395,9.6395,9.6395,9.6395,9.6395,9.6395,9.6395,9.6395,9.6395,9.7274,9.8689,9.9421,10.0593,10.2043,10.3822,10.8748,11.5305,12.0744,12.2615,12.3023,12.5582,12.6396,12.6862,12.9421,13.0235,13.0119,12.9654,12.9886,13.0119,12.9654,12.7967,12.6396,12.6396,12.3488,12.0463,11.9649,11.9125,11.866,11.8253,11.9533,12.087,12.1278,12.2034,12.2615,12.2615,12.2615,12.2615,12.2615,12.2615,12.2615,12.2615,12.2615,12.2615,12.2615,12.2615,12.2615,12.2615,12.2615,12.2615,12.2615,12.2615,12.279,12.3255,12.2848,12.2848,12.3255,12.279,12.2615,12.2615,12.2615,12.2615,9.1856,9.0001,8.8293,8.7951,8.5121,8.2485,8.2485,7.9996,7.7263,7.5798,7.492,7.3991,7.2089,7.1841,7.1406,7.0332,6.9551,6.9022,0.0,6.9022,6.9948,7.2531,7.7019,8.0289,8.1362,8.6975,8.9953,8.8488,9.2002,9.3174,9.0685,9.1222,9.1639,9.21,9.3857,9.498,9.537,9.6053,9.6395,9.6395,9.6395,9.6395,9.6395,9.6395,9.6395,9.6395,9.6395,9.6395,9.6395,9.6395,9.703,9.8103,9.9226,10.0349,10.1588,10.4536,10.8616,11.3732,12.04,12.2615,12.3023,12.5582,12.6396,12.6862,12.9421,13.0235,13.0235,13.0235,13.0235,13.0235,13.0235,12.8665,12.692,12.6513,12.3488,12.0347,11.9067,11.8078,11.7322,11.6857,11.8195,11.9649,12.0521,12.1045,12.1452,12.1917,12.1976,12.2092,12.2557,12.2615,12.2615,12.2615,12.2615,12.2615,12.2615,12.2615,12.2615,12.2615,12.2615,12.2615,12.2615,12.2615,12.2615,12.2615,12.2615,12.2615,12.2615,12.2615,12.2615,12.2615,12.2615,12.2615,8.8586,8.6731,8.5267,8.6292,8.3363,8.0087,8.0038,7.7702,7.4919,7.2675,7.2284,7.1991,7.1059,7.0863,7.0478,6.9363,6.9217,0.0,0.0,6.9265,7.2093,7.9599,8.3266,8.5609,8.6731,9.1661,9.3906,9.1807,9.454,9.4931,9.1639,9.1542,9.21,9.3076,9.4248,9.537,9.6395,9.6395,9.6395,9.6395,9.6395,9.6395,9.6395,9.6395,9.6395,9.6395,9.6395,9.6395,9.6395,9.6395,9.703,9.8055,9.9177,10.0381,10.2227,10.8657,11.18,11.3854,12.0228,12.2557,12.3023,12.5582,12.6396,12.6862,12.9421,13.0235,13.0235,13.0235,13.0235,13.0235,13.0235,12.9246,12.7967,12.6629,12.3488,12.0347,11.9009,11.6682,11.5228,11.6508,11.6799,11.7613,12.0172,11.9533,11.9184,12.0463,12.0638,12.1103,12.2383,12.2557,12.2557,12.2615,12.2615,12.2615,12.2615,12.2615,12.2615,12.2615,12.2615,12.2615,12.2615,12.2615,12.2615,12.2615,12.2615,12.2615,12.2615,12.2615,12.2615,12.2615,12.2615,12.2615,8.6341,8.4486,8.2729,8.2241,7.9459,7.6677,7.5847,7.3748,7.1938,7.1352,7.1841,0.0,0.0,0.0,7.3163,7.37,0.0,7.3797,7.3797,7.5115,7.8629,8.5413,8.556,8.6194,8.8879,9.2539,9.3906,9.1807,9.3857,9.3857,9.0636,9.1905,9.2832,9.3125,9.498,9.6102,9.6395,9.6395,9.6395,9.6395,9.6395,9.6395,9.6395,9.6395,9.6395,9.6395,9.6395,9.6395,9.6395,9.6395,9.659,9.6932,9.8055,10.0567,10.3902,10.5476,11.0442,11.6333,11.7308,11.9827,12.3023,12.5582,12.6396,12.6862,12.9421,13.0235,13.0235,13.0235,13.0235,13.0235,13.0235,12.9246,12.7734,12.5466,12.279,12.0056,11.7846,11.6043,11.4996,11.5345,11.6159,11.7031,11.7729,11.7555,11.7788,11.9125,11.93,11.9765,12.1045,12.1219,12.1568,12.2499,12.2615,12.2615,12.2615,12.2615,12.2615,12.2615,12.2615,12.2615,12.2615,12.2615,12.2615,12.2615,12.2615,12.2615,12.2615,12.2615,12.2615,12.2615,12.2615,12.2615,8.2973,8.0874,7.922,7.8483,7.6238,7.3992,7.3358,7.1894,7.101,7.1938,0.0,0.0,0.0,0.0,0.0,0.0,7.7263,7.7751,7.8291,7.9312,8.2485,8.8976,8.9025,8.922,9.1124,9.3857,9.4394,9.1688,9.3613,9.3418,9.0197,9.2002,9.3125,9.3125,9.5273,9.6395,9.6395,9.6395,9.6395,9.6395,9.6395,9.6395,9.6395,9.6395,9.6395,9.6395,9.6395,9.6395,9.6395,9.6395,9.6395,9.6444,9.7078,10.0005,10.3921,10.5094,11.0385,11.684,11.7604,11.9937,12.2848,12.4302,12.5524,12.6862,12.9421,13.0235,13.0235,13.0235,13.0235,13.0235,13.0235,12.9654,12.8316,12.5175,12.2906,12.0638,11.7497,11.581,11.4879,11.4879,11.5461,11.5984,11.5984,11.5984,11.645,11.7788,11.7962,11.8427,11.9707,12.0405,12.0987,12.1743,12.2266,12.2615,12.2615,12.2615,12.2615,12.2615,12.2615,12.2615,12.2615,12.2615,12.2615,12.2615,12.2615,12.2615,12.2615,12.2615,12.2615,12.2615,12.2615,12.2615,7.902,7.6823,7.5359,7.531,7.3797,7.2479,7.2626,0.0,7.2134,7.4188,0.0,7.5749,7.8922,0.0,0.0,7.9801,8.0533,8.146,8.2641,8.3081,8.5462,9.1466,9.2735,9.3174,9.332,9.498,9.4833,9.2002,9.3564,9.3369,9.0538,9.2246,9.332,9.332,9.5321,9.6395,9.6395,9.6395,9.6395,9.6395,9.6395,9.6395,9.6395,9.6395,9.6395,9.6395,9.6395,9.6395,9.6395,9.6395,9.6395,9.652,9.722,9.9872,10.35,10.6636,11.1303,11.6409,11.9461,12.1219,12.2208,12.2499,12.4128,12.6454,12.9014,13.0003,13.0235,13.0235,13.0235,13.0235,13.0235,13.0235,12.9246,12.5349,12.3488,12.1568,11.7613,11.581,11.4879,11.4879,11.4879,11.4879,11.4879,11.4879,11.5286,11.6392,11.6566,11.7031,11.8369,11.9591,12.0289,12.0463,12.1627,12.2383,12.2383,12.2499,12.2615,12.2615,12.2615,12.2615,12.2615,12.2615,12.2615,12.2615,12.2615,12.2615,12.2615,12.2615,12.2615,12.2615,12.2615,12.2615,7.5213,7.4529,7.3992,7.3114,7.326,7.3797,0.0,0.0,0.0,7.8576,7.9801,8.1118,8.3461,8.39,8.4486,8.6292,8.595,8.5901,8.7024,8.9367,9.21,9.5126,9.4101,9.3467,9.4394,9.4052,9.3515,9.2881,9.3223,9.3174,9.2539,9.376,9.4492,9.4492,9.5712,9.6395,9.6395,9.6395,9.6395,9.6395,9.6395,9.6395,9.6395,9.6395,9.6395,9.6395,9.6395,9.6395,9.6395,9.6395,9.6395,9.6895,10.2016,10.5014,10.6807,10.8885,11.3249,11.8301,11.8907,11.93,11.9882,12.1917,12.2964,12.3837,12.6338,12.8548,13.0235,13.0235,13.0235,13.0235,13.0235,13.0235,12.9246,12.5349,12.3488,12.1568,11.7613,11.581,11.4879,11.4879,11.4879,11.4879,11.4879,11.4879,11.4996,11.5228,11.5228,11.5694,11.7031,11.738,11.7962,11.9067,12.0289,12.1045,12.1045,12.2034,12.2615,12.2615,12.2615,12.2615,12.2615,12.2615,12.2615,12.2615,12.2615,12.2615,12.2615,12.2615,12.2615,12.2615,12.2615,12.2615,7.287,7.2284,7.2284,7.2284,7.3065,0.0,0.0,7.7214,7.8873,8.2094,8.3168,8.4681,8.8439,8.9172,8.9708,9.1368,9.1124,9.1173,9.2246,9.332,9.4589,9.62,9.5907,9.5565,9.5614,9.5077,9.454,9.4004,9.3467,9.3125,9.3125,9.4199,9.4784,9.4784,9.5858,9.6395,9.6395,9.6395,9.6395,9.6395,9.6395,9.6395,9.6395,9.6395,9.6395,9.6395,9.6395,9.6395,9.652,9.8162,9.9656,10.1418,10.4559,10.7016,10.8994,10.99,11.345,11.7788,11.7788,11.8253,11.9125,12.1045,12.1685,12.2266,12.5407,12.7269,12.8548,12.9886,13.0235,13.0235,13.0235,13.0235,12.9246,12.5349,12.3488,12.1568,11.7613,11.581,11.4879,11.4879,11.4879,11.4879,11.4879,11.4879,11.4879,11.4879,11.4879,11.5112,11.5752,11.6392,11.7031,11.7729,11.8951,11.9765,11.9765,12.0347,12.0987,12.1627,12.1685,12.1917,12.2615,12.2615,12.2615,12.2615,12.2615,12.2615,12.2615,12.2615,12.2615,12.2615,12.2615,12.2615,7.1498,7.0765,7.101,7.1991,7.3407,0.0,7.7555,7.941,8.1802,8.5853,8.6878,8.8391,9.293,9.376,9.4052,9.498,9.4931,9.5175,9.6249,9.5663,9.5468,9.6298,9.7322,9.7518,9.62,9.6298,9.5956,9.4882,9.3955,9.3564,9.376,9.4638,9.5126,9.5126,9.5956,9.6395,9.6395,9.6395,9.6395,9.6395,9.6395,9.6395,9.6395,9.6395,9.6395,9.6395,9.6395,9.6771,9.7544,9.997,10.2915,10.5834,10.7093,10.8562,11.0285,11.0944,11.3314,11.645,11.6682,11.7322,11.8311,11.9823,12.0172,12.0638,12.4186,12.5466,12.6222,12.8781,12.9828,13.0235,13.0235,13.0235,12.9305,12.564,12.3662,12.1627,11.7962,11.5984,11.4879,11.4879,11.4879,11.4879,11.4879,11.4879,11.4879,11.4879,11.4879,11.4879,11.4879,11.581,11.6392,11.6392,11.7613,11.8369,11.8369,11.866,11.9242,12.0289,12.0347,12.0929,12.2208,12.2208,12.2383,12.2615,12.2615,12.2615,12.2615,12.2615,12.2615,12.2615,12.2615,12.2615,7.0863,7.0765,7.101,7.1991,7.4529,0.0,8.0784,8.4486,8.8293,9.1563,9.3027,9.4199,9.5761,9.6053,9.6053,9.62,9.5419,9.5175,9.6249,9.6298,9.6249,9.6395,9.7322,9.7225,9.5175,9.5858,9.5956,9.4882,9.4687,9.5029,9.6005,9.6151,9.6249,9.6249,9.6346,9.6395,9.6395,9.6395,9.6395,9.6395,9.6395,9.6395,9.6395,9.6395,9.6395,9.6395,9.6395,9.8039,10.0576,10.0938,10.2915,10.6348,11.1655,11.2362,11.0506,11.3386,11.4621,11.5286,11.6392,11.6159,11.5752,11.8195,11.8195,11.7729,12.0521,12.215,12.3546,12.6105,12.8432,13.0235,13.0235,13.0235,12.9537,12.6803,12.436,12.1859,11.9184,11.6624,11.4879,11.4879,11.4879,11.4879,11.4879,11.4879,11.4879,11.4879,11.4879,11.4879,11.4879,11.4996,11.5112,11.5112,11.6275,11.7031,11.7031,11.8137,11.8835,11.9009,11.9009,11.9591,12.087,12.0929,12.1452,12.2615,12.2615,12.2615,12.2615,12.2615,12.2615,12.2615,12.2615,12.2615,7.0765,7.1254,7.2187,7.4529,0.0,0.0,8.4828,8.8537,9.171,9.3711,9.498,9.6053,9.7127,9.7322,9.7322,9.7322,9.6444,9.5907,9.6346,9.6395,9.6639,9.7274,9.7713,9.7664,9.6737,9.7078,9.6883,9.5809,9.5761,9.5907,9.6395,9.6395,9.6395,9.6395,9.6395,9.6395,9.6395,9.6395,9.6395,9.6395,9.6395,9.6395,9.6395,9.6395,9.6395,9.652,9.8359,9.99,10.1367,10.4971,10.8225,11.1329,11.387,11.4082,11.3065,11.44,11.4879,11.4937,11.5519,11.5345,11.517,11.7031,11.6741,11.6333,11.9707,12.058,12.1219,12.5291,12.7152,12.8316,12.9828,13.0235,12.9595,12.7036,12.5,12.279,11.9533,11.7322,11.5752,11.5054,11.4879,11.4879,11.4879,11.4879,11.4879,11.4879,11.4879,11.4879,11.4879,11.4879,11.4879,11.4879,11.5345,11.5694,11.5694,11.6217,11.6857,11.7613,11.7613,11.8195,11.9533,11.9591,12.0172,12.1452,12.151,12.1859,12.2615,12.1859,12.1859,12.2615,12.2615,12.2615,7.0668,0.0,0.0,0.0,0.0,0.0,8.7122,9.088,9.3808,9.4638,9.5907,9.7078,9.7859,9.8006,9.7908,9.7615,9.6932,9.6395,9.6395,9.6395,9.6786,9.7859,9.8006,9.8006,9.8006,9.8006,9.7567,9.6493,9.6395,9.6395,9.6395,9.6395,9.6395,9.6395,9.6395,9.6395,9.6395,9.6395,9.6395,9.6395,9.6395,9.6395,9.6395,9.6395,9.6395,9.6646,9.9778,10.2084,10.4039,10.9344,11.2793,11.4879,11.4879,11.4879,11.4879,11.4879,11.4879,11.4879,11.4879,11.4879,11.5054,11.5984,11.5635,11.5403,11.8253,11.8718,11.9067,12.3139,12.5058,12.6338,12.8607,12.9421,12.913,12.692,12.5117,12.2964,11.9533,11.802,11.6857,11.5228,11.4879,11.4879,11.4879,11.4879,11.4879,11.4879,11.4879,11.4879,11.4879,11.4879,11.4879,11.4879,11.4879,11.4879,11.4879,11.4879,11.5286,11.6217,11.6275,11.6857,11.8195,11.8253,11.8835,12.0172,12.0172,12.0812,12.2092,12.1161,12.1161,12.2092,12.2441,12.2615,0.0,0.0,0.0,7.6335,8.0337,8.4096,8.6292,9.0929,9.4784,9.4784,9.6493,9.7957,9.8006,9.8006,9.7664,9.6639,9.6444,9.6395,9.6395,9.6395,9.6786,9.7859,9.8006,9.8006,9.8006,9.8006,9.7567,9.6493,9.6395,9.6395,9.6395,9.6395,9.6395,9.6395,9.6395,9.6395,9.6395,9.6395,9.6395,9.6395,9.6395,9.6395,9.6395,9.6395,9.6395,9.6646,9.9778,10.4506,11.0175,11.3386,11.4774,11.4879,11.4879,11.4879,11.4879,11.4879,11.4879,11.4879,11.4879,11.4879,11.4879,11.4937,11.4937,11.4937,11.5054,11.5926,11.7148,11.8602,12.1627,12.4768,12.6164,12.7443,12.8025,12.6687,12.4477,12.1976,11.9358,11.8776,11.7962,11.5403,11.4879,11.4879,11.4879,11.4879,11.4879,11.4879,11.4879,11.4879,11.4879,11.4879,11.4879,11.4879,11.4879,11.4879,11.4879,11.4879,11.4937,11.4937,11.4937,11.5519,11.6799,11.6857,11.7497,11.8835,11.8835,11.9474,12.0754,12.0754,12.0754,12.0812,12.2034,12.2615,7.2333,7.4139,7.6482,8.0435,8.4633,8.8391,9.0489,9.4052,9.6737,9.6005,9.703,9.7762,9.7078,9.6932,9.6834,9.6444,9.6395,9.6395,9.6395,9.6395,9.7078,9.8884,9.7811,9.7518,9.8982,9.7811,9.6786,9.6444,9.6395,9.6395,9.6395,9.6395,9.6395,9.6395,9.6395,9.6395,9.6395,9.6395,9.6395,9.6395,9.6395,9.6395,9.6395,9.6395,9.7544,9.9656,10.2797,10.6523,11.0506,11.3599,11.4879,11.4879,11.4879,11.4879,11.4879,11.4879,11.4879,11.4879,11.4879,11.4879,11.4879,11.4879,11.4879,11.4879,11.4879,11.517,11.5984,11.8195,12.0347,12.2441,12.4535,12.6687,12.7967,12.6687,12.5058,12.2906,11.9533,11.9474,11.93,11.6682,11.6159,11.5868,11.5054,11.4879,11.4879,11.4879,11.4879,11.4879,11.4879,11.4879,11.4879,11.4879,11.4879,11.4879,11.4879,11.4879,11.4879,11.4879,11.4879,11.5054,11.5519,11.5519,11.6159,11.7439,11.7497,11.7671,11.8078,11.8078,11.9009,12.0696,12.1161,12.1801,7.3309,7.5749,7.8678,8.2583,8.6829,9.0489,9.2198,9.5126,9.7127,9.6053,9.6688,9.7225,9.6542,9.6395,9.6395,9.6395,9.6395,9.6395,9.6395,9.6395,9.7225,9.9421,9.7762,9.7274,9.947,9.7713,9.6395,9.6395,9.6395,9.6395,9.6395,9.6395,9.6395,9.6395,9.6395,9.6395,9.6395,9.6395,9.6395,9.6395,9.6395,9.6395,9.6395,9.7544,9.9168,10.1247,10.5603,10.9009,11.1981,11.4082,11.4879,11.4879,11.4879,11.4879,11.4879,11.4879,11.4879,11.4879,11.4879,11.4879,11.4879,11.4879,11.4879,11.4879,11.4879,11.4879,11.5228,11.6915,11.9009,12.1103,12.2674,12.5349,12.7269,12.5989,12.5,12.3372,11.9591,11.9823,12.0056,11.7904,11.7148,11.6508,11.5694,11.517,11.4879,11.4879,11.4879,11.4879,11.4879,11.4879,11.4879,11.4879,11.4879,11.4879,11.4879,11.4879,11.4879,11.4879,11.4879,11.4879,11.4879,11.4879,11.5286,11.6101,11.6101,11.6101,11.6101,11.6101,11.7439,12.0056,12.0521,12.1394,7.3504,7.6482,7.9703,8.2973,8.7024,9.0441,9.1563,9.4199,9.6102,9.5077,9.5712,9.6395,9.6395,9.6395,9.6395,9.6395,9.6395,9.6395,9.6395,9.6395,9.7225,9.9421,9.7762,9.7274,9.947,9.7713,9.6395,9.6395,9.6395,9.6395,9.6395,9.6395,9.6395,9.6395,9.6395,9.6395,9.6395,9.6395,9.6395,9.6395,9.6395,9.6395,9.652,9.9656,10.1247,10.1845,10.7832,11.2089,11.4879,11.4879,11.4879,11.4879,11.4879,11.4879,11.4879,11.4879,11.4879,11.4879,11.4879,11.4879,11.4879,11.4879,11.4879,11.4879,11.4879,11.4879,11.4879,11.4879,11.7613,12.0521,12.0521,12.3372,12.5873,12.4535,12.4244,12.3313,11.9765,11.9823,12.0231,11.8951,11.7729,11.6857,11.6741,11.5752,11.4937,11.4879,11.4879,11.4879,11.4879,11.4879,11.4879,11.4879,11.4821,11.4821,11.4821,11.4705,11.4705,11.4705,11.4705,11.4705,11.4821,11.4705,11.4763,11.4879,11.4821,11.4763,11.4705,11.4821,11.6159,11.8602,11.9998,12.1278,7.6042,7.9264,8.2094,8.6146,8.9757,9.2637,9.3711,9.5273,9.6346,9.6053,9.62,9.6395,9.6395,9.6395,9.6395,9.6395,9.6395,9.6395,9.6395,9.6395,9.7225,9.9421,9.7762,9.7274,9.947,9.7713,9.6395,9.6395,9.6395,9.6395,9.6395,9.6395,9.6395,9.6395,9.6395,9.6395,9.6395,9.6395,9.6395,9.6395,9.6395,9.6395,9.652,9.9656,10.357,10.8057,11.1981,11.4188,11.4879,11.4879,11.4879,11.4879,11.4879,11.4879,11.4879,11.4879,11.4879,11.4879,11.4879,11.4879,11.4879,11.4879,11.4879,11.4879,11.4879,11.4879,11.4879,11.4879,11.6275,11.7788,11.7788,12.0696,12.3255,12.1976,12.2383,12.279,12.1859,12.0405,11.8893,11.7555,11.7846,11.7671,11.5694,11.5868,11.5984,11.5054,11.4879,11.4879,11.4879,11.4879,11.4879,11.4879,11.4007,11.3483,11.3483,11.2553,11.1971,11.1971,11.1971,11.2436,11.3425,11.2494,11.2902,11.4821,11.3949,11.296,11.1971,11.3949,11.5228,11.5926,11.8195,11.994,7.5847,8.0289,8.4291,8.8147,9.1124,9.3418,9.454,9.5614,9.6395,9.6395,9.6395,9.6395,9.6395,9.6395,9.6395,9.6395,9.6395,9.6395,9.6395,9.6395,9.703,9.8738,9.742,9.7078,9.8787,9.742,9.6395,9.6395,9.6395,9.6395,9.6395,9.6395,9.6395,9.6395,9.6395,9.6395,9.6395,9.6395,9.6395,9.6395,9.6395,9.7096,9.8605,10.1778,10.5665,11.0395,11.3493,11.4879,11.4879,11.4879,11.4879,11.4879,11.4879,11.4879,11.4879,11.4879,11.4879,11.4879,11.4879,11.4879,11.4879,11.4879,11.4879,11.4879,11.4879,11.4879,11.4879,11.4879,11.581,11.6799,11.6799,11.8835,12.0754,12.0056,12.0405,12.0929,12.0929,11.9358,11.7846,11.7729,11.7788,11.7439,11.5984,11.5868,11.5694,11.4996,11.4879,11.4879,11.4879,11.4879,11.4705,11.4123,11.3425,11.2727,11.2145,11.1389,11.0982,11.0982,11.0982,11.1331,11.2087,11.1389,11.168,11.3134,11.1389,11.0633,11.0982,11.1913,11.296,11.4123,11.6741,11.8602,7.4432,8.0045,8.5609,8.9318,9.171,9.3467,9.4736,9.5761,9.6395,9.6395,9.6395,9.6395,9.6395,9.6395,9.6395,9.6395,9.6395,9.6395,9.6395,9.6395,9.6786,9.7859,9.7078,9.6834,9.7908,9.703,9.6395,9.6395,9.6395,9.6395,9.6395,9.6395,9.6395,9.6395,9.6395,9.6395,9.6395,9.6395,9.6395,9.6395,9.6395,9.8039,10.1127,10.4792,10.8,11.0944,11.3706,11.4879,11.4879,11.4879,11.4879,11.4879,11.4879,11.4879,11.4879,11.4879,11.4879,11.4879,11.4879,11.4879,11.4879,11.4879,11.4879,11.4879,11.4879,11.4879,11.4879,11.4879,11.5694,11.6566,11.6566,11.7497,11.8544,11.8544,11.8427,11.8253,11.8253,11.738,11.6915,11.802,11.7322,11.6566,11.6741,11.5868,11.5054,11.4937,11.4879,11.4879,11.4879,11.4879,11.4414,11.3134,11.2843,11.2204,11.0866,11.0575,11.0517,11.0517,11.0517,11.0575,11.0749,11.0575,11.0517,11.0517,10.8539,10.8481,11.0517,10.9761,11.0459,11.2553,11.5112,11.709,7.4724,7.9073,8.39,8.9855,9.2246,9.3662,9.5663,9.6249,9.6395,9.6395,9.6395,9.6395,9.6395,9.6395,9.6395,9.6395,9.6395,9.6395,9.6395,9.6395,9.6786,9.7859,9.7078,9.6834,9.7908,9.703,9.6395,9.6395,9.6395,9.6395,9.6395,9.6395,9.6395,9.6395,9.6395,9.6395,9.6395,9.6395,9.6395,9.6395,9.6395,9.8039,10.1247,10.6925,11.1054,11.4082,11.4669,11.4879,11.4879,11.4879,11.4879,11.4879,11.4879,11.4879,11.4879,11.4879,11.4879,11.4879,11.4879,11.4879,11.4879,11.4879,11.4879,11.4879,11.4879,11.4879,11.4879,11.4879,11.5054,11.5228,11.5228,11.6159,11.7148,11.7148,11.6333,11.5577,11.5577,11.5403,11.5286,11.5519,11.5403,11.5577,11.6624,11.6624,11.6101,11.5054,11.4879,11.4879,11.4879,11.4879,11.4414,11.3134,11.1971,11.0808,10.9686,10.8539,10.7899,10.7899,10.7899,10.8423,10.947,10.8481,10.7899,10.7899,10.8539,10.8539,10.7899,10.9761,11.04,10.9877,11.2436,11.4879,7.5359,7.8727,8.229,8.7073,9.0294,9.2881,9.5077,9.6005,9.6395,9.6395,9.5956,9.5761,9.6298,9.6395,9.6395,9.6395,9.6395,9.6395,9.6395,9.6395,9.659,9.7127,9.6737,9.659,9.7127,9.6688,9.6395,9.6395,9.6395,9.6395,9.6395,9.6395,9.6395,9.6395,9.6395,9.6395,9.6395,9.8039,9.8851,9.8851,10.0506,10.2016,10.3623,10.8225,11.1872,11.4879,11.4879,11.4879,11.4879,11.4879,11.4879,11.4879,11.4879,11.4879,11.4879,11.4879,11.4879,11.4879,11.4879,11.4879,11.4879,11.4879,11.4879,11.4879,11.4879,11.4879,11.4879,11.4879,11.4879,11.4879,11.4879,11.5345,11.581,11.581,11.5345,11.4879,11.4879,11.4879,11.4879,11.4879,11.4879,11.5054,11.5694,11.581,11.5577,11.4996,11.4879,11.4879,11.4879,11.4879,11.4414,11.3134,11.2378,11.1506,11.0226,10.9004,10.8306,10.8306,10.7667,10.755,10.819,10.7608,10.7259,10.7259,10.7899,10.7899,10.7259,10.8481,10.8772,10.8248,11.0808,11.296,7.5701,7.8727,8.1362,8.4096,8.7903,9.1563,9.3906,9.4931,9.5517,9.5956,9.537,9.5126,9.62,9.6395,9.6395,9.6395,9.6395,9.6395,9.6395,9.6395,9.6395,9.6395,9.6395,9.6395,9.6395,9.6395,9.6395,9.6395,9.6395,9.6395,9.6395,9.6395,9.6395,9.6395,9.6395,9.6771,9.7469,9.99,10.1367,10.2084,10.4559,10.6064,10.6751,10.9843,11.2578,11.4879,11.4879,11.4879,11.4879,11.4879,11.4879,11.4879,11.4879,11.4879,11.4879,11.4879,11.4879,11.4879,11.4879,11.4879,11.4879,11.4879,11.4879,11.4879,11.4879,11.4879,11.4879,11.4879,11.4879,11.4879,11.4879,11.4879,11.4879,11.4879,11.4879,11.4879,11.4879,11.4879,11.4879,11.4879,11.4879,11.4879,11.4879,11.4879,11.4879,11.4879,11.4879,11.4879,11.4879,11.4879,11.4414,11.3134,11.296,11.2436,11.1098,11.011,10.957,10.9337,10.8248,10.755,10.7318,10.755,10.755,10.7259,10.7259,10.7259,10.7259,10.7259,10.7259,10.7318,10.9295,11.1215,7.4871,7.878,8.2201,8.3363,8.6243,8.9513,9.2588,9.2637,9.2588,9.454,9.4882,9.5126,9.62,9.6395,9.6395,9.6395,9.6395,9.6395,9.6395,9.6395,9.6395,9.6395,9.6395,9.6395,9.6395,9.6395,9.6395,9.6395,9.6395,9.6395,9.6395,9.6395,9.6395,9.6395,9.6395,9.7791,10.0696,10.0938,10.2441,10.5256,10.5603,10.7207,10.9898,11.3008,11.4669,11.4879,11.4879,11.4879,11.4879,11.4879,11.4879,11.4879,11.4879,11.4879,11.4879,11.4879,11.4879,11.4879,11.4879,11.4879,11.4879,11.4879,11.4879,11.4879,11.4879,11.4879,11.4879,11.4879,11.4879,11.4879,11.4879,11.4879,11.4879,11.4879,11.4879,11.4879,11.4879,11.4879,11.4879,11.4879,11.4879,11.4879,11.4879,11.4879,11.4879,11.4879,11.4879,11.4879,11.4879,11.4879,11.4414,11.3134,11.296,11.2436,11.1098,11.0866,11.0342,10.9337,10.9162,10.8481,10.7318,10.8423,10.8481,10.7318,10.7259,10.7259,10.7259,10.7259,10.7259,10.7259,10.7492,10.9528,7.3846,7.6774,7.9654,8.2103,8.3667,8.5365,8.8537,8.8976,8.9464,9.2295,9.3369,9.4101,9.5224,9.5468,9.5663,9.6298,9.6395,9.6395,9.6395,9.5858,9.5663,9.6346,9.5809,9.5712,9.6346,9.6395,9.6395,9.6395,9.6395,9.6395,9.6395,9.6395,9.6395,9.6395,9.8286,9.9778,10.1058,10.4739,10.7153,10.845,11.0285,11.1872,11.3065,11.4294,11.4879,11.4879,11.4879,11.4879,11.4879,11.4879,11.4879,11.4879,11.4879,11.4879,11.4879,11.4879,11.4879,11.4879,11.4879,11.4879,11.4879,11.4879,11.4879,11.4879,11.4879,11.4879,11.4879,11.4879,11.4879,11.4879,11.4879,11.4879,11.4879,11.4879,11.4879,11.4879,11.4879,11.4879,11.4879,11.4879,11.4879,11.4879,11.4879,11.4879,11.4879,11.4879,11.4879,11.4879,11.4879,11.4879,11.4705,11.4181,11.4123,11.389,11.3367,11.2611,11.1971,11.1506,11.0691,11.0051,10.9528,10.9295,10.8946,10.8423,10.7667,10.7259,10.7259,10.7259,10.7259,10.7259,10.7259,10.8481,7.2821,7.5017,7.7458,8.0679,8.146,8.229,8.5511,8.6243,8.6829,8.883,9.1075,9.3027,9.4101,9.4833,9.5517,9.6298,9.6395,9.6395,9.6395,9.5761,9.5565,9.6298,9.5761,9.5565,9.6346,9.6395,9.6395,9.6395,9.6395,9.6895,9.7791,9.7791,9.8286,9.9096,10.1298,10.2915,10.3805,10.8057,11.0725,11.1655,11.387,11.4879,11.4879,11.4879,11.4879,11.4879,11.4879,11.4879,11.4879,11.4879,11.4879,11.4879,11.4879,11.4879,11.4879,11.4879,11.4879,11.4879,11.4879,11.4879,11.4879,11.4879,11.4879,11.4879,11.4879,11.4879,11.4879,11.4879,11.4879,11.4879,11.4879,11.4879,11.4879,11.4879,11.4879,11.4879,11.4879,11.4879,11.4879,11.4879,11.4879,11.4879,11.4879,11.4879,11.4879,11.4879,11.4879,11.4879,11.4879,11.4879,11.4879,11.4879,11.4879,11.4879,11.4879,11.4065,11.3367,11.3018,11.2087,11.1564,11.1564,11.0749,10.9993,10.9337,10.8306,10.7667,10.7259,10.7259,10.7259,10.7259,10.7259,10.7957,7.1698,7.3895,7.6335,7.9453,8.0282,8.111,8.4437,8.5169,8.4877,8.3852,8.7903,9.1954,9.2979,9.4931,9.6395,9.6395,9.6395,9.6395,9.6395,9.6395,9.6395,9.6395,9.6395,9.6395,9.6395,9.6395,9.6395,9.6395,9.6395,9.7791,10.0938,10.1058,10.2441,10.5488,10.5603,10.7093,11.0119,11.0119,11.1764,11.4879,11.4879,11.4879,11.4879,11.4879,11.4879,11.4879,11.4879,11.4879,11.4879,11.4879,11.4879,11.4879,11.4879,11.4879,11.4879,11.4879,11.4879,11.4879,11.4879,11.4879,11.4879,11.4879,11.4879,11.4879,11.4879,11.4879,11.4879,11.4879,11.4879,11.4879,11.4879,11.4879,11.4879,11.4879,11.4879,11.4879,11.4879,11.4879,11.4879,11.4879,11.4879,11.4879,11.4879,11.4879,11.4879,11.4879,11.4879,11.4879,11.4879,11.4879,11.4879,11.4879,11.4879,11.4879,11.4879,11.4879,11.4356,11.3076,11.296,11.296,11.296,11.2856,11.1738,10.9337,10.9279,10.8539,10.7259,10.7259,10.7259,10.7259,10.7259,10.7957,6.9655,7.1698,7.409,7.736,7.8727,7.9703,8.1354,8.2973,8.3949,8.3608,8.5511,8.7951,9.0538,9.2735,9.4394,9.5175,9.5907,9.6395,9.6395,9.5761,9.5565,9.6346,9.5761,9.5614,9.6346,9.6395,9.7345,9.9412,9.9656,10.0938,10.4092,10.4209,10.4676,10.5719,10.7774,10.9232,11.0285,11.2362,11.3976,11.4879,11.4879,11.4879,11.4879,11.4879,11.4879,11.4879,11.4879,11.4879,11.4879,11.4879,11.4879,11.4879,11.4879,11.4879,11.4879,11.4879,11.4879,11.4879,11.4879,11.4879,11.4879,11.4879,11.4879,11.4879,11.4879,11.4879,11.4879,11.4879,11.4879,11.4879,11.4879,11.4879,11.4879,11.4879,11.4879,11.4879,11.4879,11.4879,11.4879,11.4879,11.4879,11.4879,11.4879,11.4879,11.4879,11.4879,11.4879,11.4879,11.4879,11.4879,11.4879,11.4879,11.4879,11.4879,11.4879,11.4879,11.4705,11.4298,11.4298,11.4298,11.4298,11.3425,11.2611,11.1796,11.0051,10.9104,10.8597,10.7725,10.7259,10.7259,10.7259,10.7492,6.8096,7.0039,7.2574,7.5749,7.6433,7.6579,7.7653,8.0191,8.2241,8.1802,8.2924,8.5072,8.8732,9.1466,9.3223,9.3564,9.4492,9.5321,9.5761,9.5224,9.5224,9.6298,9.5809,9.5663,9.6346,9.7469,9.8973,10.0938,10.2203,10.4209,10.7321,10.7434,10.8,10.9176,11.1001,11.1981,11.1981,11.3976,11.4879,11.4879,11.4879,11.4879,11.4879,11.4879,11.4879,11.4879,11.4879,11.4879,11.4879,11.4879,11.4879,11.4879,11.4879,11.4879,11.4879,11.4879,11.4879,11.4879,11.4879,11.4879,11.4879,11.4879,11.4879,11.4879,11.4879,11.4879,11.4879,11.4879,11.4879,11.4879,11.4879,11.4879,11.4879,11.4879,11.4879,11.4879,11.4879,11.4879,11.4879,11.4879,11.4879,11.4879,11.4879,11.4879,11.4879,11.4879,11.4879,11.4879,11.4879,11.4879,11.4879,11.4879,11.4879,11.4879,11.4879,11.4879,11.4879,11.4879,11.4879,11.4879,11.4879,11.4123,11.3483,11.296,11.1447,11.0168,10.9279,10.8423,10.7783,10.7259,10.7259,10.7259,6.7111,6.8819,7.1205,7.448,7.3797,7.2675,7.3651,7.7165,7.9794,7.8776,8.0337,8.3276,8.7122,9.0489,9.2442,9.1639,9.2393,9.3418,9.454,9.4687,9.5077,9.6151,9.6298,9.6423,9.6722,9.9412,10.1247,10.1726,10.4442,10.7321,11.0395,11.0506,11.1872,11.4774,11.4879,11.4879,11.4879,11.4879,11.4879,11.4879,11.4879,11.4879,11.4879,11.4879,11.4879,11.4879,11.4879,11.4879,11.4879,11.4879,11.4879,11.4879,11.4879,11.4879,11.4879,11.4879,11.4879,11.4879,11.4879,11.4879,11.4879,11.4879,11.4879,11.4879,11.4879,11.4879,11.4879,11.4879,11.4879,11.4879,11.4879,11.4879,11.4879,11.4879,11.4879,11.4879,11.4879,11.4879,11.4879,11.4879,11.4879,11.4879,11.4879,11.4879,11.4879,11.4879,11.4879,11.4879,11.4879,11.4879,11.4879,11.4879,11.4879,11.4879,11.4879,11.4879,11.4879,11.4879,11.4879,11.4879,11.4879,11.4879,11.4356,11.3134,11.3018,11.1796,10.957,10.9295,10.8597,10.7434,10.7318,10.7259,6.5988,6.6622,6.7794,7.1064,7.2723,7.3553,7.3797,7.6579,7.858,7.6677,7.9416,8.2103,8.2192,8.5511,8.8976,9.1152,9.1807,9.2344,9.3369,9.3515,9.3906,9.5029,9.5175,9.6408,9.9677,10.0696,10.2981,10.7719,10.8786,11.0506,11.3599,11.387,11.4082,11.4879,11.4879,11.4879,11.4879,11.4879,11.4879,11.4879,11.4879,11.4879,11.4879,11.4879,11.4879,11.4879,11.4879,11.4879,11.4879,11.4879,11.4879,11.4879,11.4879,11.4879,11.4879,11.4879,11.4879,11.4879,11.4879,11.4879,11.4879,11.4879,11.4879,11.4879,11.4879,11.4879,11.4879,11.4879,11.4879,11.4879,11.4879,11.4879,11.4879,11.4879,11.4879,11.4879,11.4879,11.4879,11.4879,11.4879,11.4879,11.4879,11.4879,11.4879,11.4879,11.4879,11.4879,11.4879,11.4879,11.4879,11.4879,11.4879,11.4879,11.4879,11.4879,11.4879,11.4879,11.4879,11.4879,11.4879,11.4879,11.4879,11.4763,11.4472,11.3483,11.2669,11.2087,11.0168,10.9063,10.8714,10.7725,10.7259,6.5012,6.589,6.7062,6.8819,7.0478,7.1796,7.2284,7.4529,7.6189,7.5017,7.7119,7.9264,8.0087,8.185,8.4437,8.8684,9.0245,9.127,9.2295,9.2442,9.3027,9.4638,9.4784,9.648,10.0715,10.2322,10.5203,10.9898,11.1547,11.3065,11.4774,11.4879,11.4879,11.4879,11.4879,11.4879,11.4879,11.4879,11.4879,11.4879,11.4879,11.4879,11.4879,11.4879,11.4879,11.4879,11.4879,11.4879,11.4879,11.4879,11.4879,11.4879,11.4879,11.4879,11.4879,11.4879,11.4879,11.4879,11.4879,11.4879,11.4879,11.4879,11.4879,11.4879,11.4879,11.4879,11.4879,11.4879,11.4879,11.4879,11.4879,11.4879,11.4879,11.4879,11.4879,11.4879,11.4879,11.4879,11.4879,11.4879,11.4879,11.4879,11.4879,11.4879,11.4879,11.4879,11.4879,11.4879,11.4879,11.4879,11.4879,11.4879,11.4879,11.4879,11.4879,11.4879,11.4879,11.4879,11.4879,11.4879,11.4879,11.4879,11.4879,11.4879,11.4239,11.36,11.296,11.1622,11.0342,10.9279,10.8481,10.7841,6.4363,6.5744,6.7306,6.7452,6.8096,6.9022,7.0185,7.1845,7.3163,7.3163,7.4285,7.6091,7.8527,7.8966,8.0484,8.5023,8.7756,8.9708,9.0977,9.127,9.2149,9.4296,9.5031,9.7012,10.1383,10.4559,10.7661,11.0725,11.3386,11.4879,11.4879,11.4879,11.4879,11.4879,11.4879,11.4879,11.4879,11.4879,11.4879,11.4879,11.4879,11.4879,11.4879,11.4879,11.4879,11.4879,11.4879,11.4879,11.4879,11.4879,11.4879,11.4879,11.4879,11.4879,11.4879,11.4879,11.4879,11.4879,11.4879,11.4879,11.4879,11.4879,11.4879,11.4879,11.4879,11.4879,11.4879,11.4879,11.4879,11.4879,11.4879,11.4879,11.4879,11.4879,11.4879,11.4879,11.4879,11.4879,11.4879,11.4879,11.4879,11.4879,11.4879,11.4879,11.4879,11.4879,11.4879,11.4879,11.4879,11.4879,11.4879,11.4879,11.4879,11.4879,11.4879,11.4879,11.4879,11.4879,11.4879,11.4879,11.4879,11.4879,11.4879,11.4879,11.4879,11.4356,11.3251,11.3076,11.1855,10.9761,10.9586,10.8772,6.4363,6.5207,6.6378,6.7257,6.7511,6.7949,6.9022,6.9509,6.9753,6.9753,7.2138,7.3992,7.3602,7.7116,8.0282,8.111,8.39,8.6585,8.8635,8.9708,9.1026,9.3125,9.5674,9.9336,10.4463,10.7774,11.0835,11.3976,11.4669,11.4879,11.4879,11.4879,11.4879,11.4879,11.4879,11.4879,11.4879,11.4879,11.4879,11.4879,11.4879,11.4879,11.4879,11.4879,11.4879,11.4879,11.4879,11.4879,11.4879,11.4879,11.4879,11.4879,11.4879,11.4879,11.4879,11.4879,11.4879,11.4879,11.4879,11.4879,11.4879,11.4879,11.4879,11.4879,11.4879,11.4879,11.4879,11.4879,11.4879,11.4879,11.4879,11.4879,11.4879,11.4879,11.4879,11.4879,11.4879,11.4879,11.4879,11.4879,11.4879,11.4879,11.4879,11.4879,11.4879,11.4879,11.4879,11.4879,11.4879,11.4879,11.4879,11.4879,11.4879,11.4879,11.4879,11.4879,11.4879,11.4879,11.4879,11.4879,11.4879,11.4879,11.4879,11.4879,11.4879,11.4821,11.4588,11.3541,11.2785,11.2378,11.1273,11.0051,6.4363,6.5939,6.7891,6.8965,6.9209,6.9209,6.9022,6.9022,6.8827,6.8242,6.9314,7.0625,7.1308,7.4383,7.7409,7.9215,8.2192,8.5023,8.7219,8.8976,9.1322,9.5173,9.6906,10.0469,10.7555,10.9344,11.1547,11.4669,11.4879,11.4879,11.4879,11.4879,11.4879,11.4879,11.4879,11.4879,11.4879,11.4879,11.4879,11.4879,11.4879,11.4879,11.4879,11.4879,11.4879,11.4879,11.4879,11.4879,11.4879,11.4879,11.4879,11.4879,11.4879,11.4879,11.4879,11.4879,11.4879,11.4879,11.4879,11.4879,11.4879,11.4879,11.4879,11.4879,11.4879,11.4879,11.4879,11.4879,11.4879,11.4879,11.4879,11.4879,11.4879,11.4879,11.4879,11.4879,11.4879,11.4879,11.4879,11.4879,11.4879,11.4879,11.4879,11.4879,11.4879,11.4879,11.4879,11.4879,11.4879,11.4879,11.4879,11.4879,11.4879,11.4879,11.4879,11.4879,11.4879,11.4879,11.4879,11.4879,11.4879,11.4879,11.4879,11.4879,11.4879,11.4879,11.4879,11.4298,11.3658,11.296,11.2378,11.1389,6.4963,0.0,6.9217,7.0088,7.0332,7.0088,0.0,6.8632,6.7998,6.7306,6.7111,6.7696,6.969,7.1698,7.4285,7.7799,8.063,8.3412,8.6341,8.8718,9.242,9.8121,9.9465,10.2637,10.9565,11.0835,11.2362,11.4669,11.4879,11.4879,11.4879,11.4879,11.4879,11.4879,11.4879,11.4879,11.4879,11.4879,11.4879,11.4879,11.4879,11.4879,11.4879,11.4879,11.4879,11.4879,11.4879,11.4879,11.4879,11.4879,11.4879,11.4879,11.4879,11.4879,11.4879,11.4879,11.4879,11.4879,11.4879,11.4879,11.4879,11.4879,11.4879,11.4879,11.4879,11.4879,11.4879,11.4879,11.4879,11.4879,11.4879,11.4879,11.4879,11.4879,11.4879,11.4879,11.4879,11.4879,11.4879,11.4879,11.4879,11.4879,11.4879,11.4879,11.4879,11.4879,11.4879,11.4879,11.4879,11.4879,11.4879,11.4879,11.4879,11.4879,11.4879,11.4879,11.4879,11.4879,11.4879,11.4879,11.4879,11.4879,11.4879,11.4879,11.4879,11.4879,11.4879,11.4879,11.453,11.389,11.389,11.3309,0.0,6.8096,6.9022,6.9071,6.9119,6.9071,6.9022,6.7462,0.0,6.6037,6.5988,6.6378,6.7501,6.9453,7.2378,7.6579,7.8288,8.0874,8.5999,8.9237,9.3789,10.0864,10.4325,10.7111,10.9895,11.2793,11.4669,11.4879,11.4879,11.4879,11.4879,11.4879,11.4879,11.4879,11.4879,11.4879,11.4879,11.4879,11.4879,11.4879,11.4879,11.4879,11.4879,11.4879,11.4879,11.4879,11.4879,11.4879,11.4879,11.4879,11.4879,11.4879,11.4879,11.4879,11.4879,11.4879,11.4879,11.4879,11.4879,11.4879,11.4879,11.4879,11.4879,11.4879,11.4879,11.4879,11.4879,11.4879,11.4879,11.4879,11.4879,11.4879,11.4879,11.4879,11.4879,11.4879,11.4879,11.4879,11.4879,11.4879,11.4879,11.4879,11.4879,11.4879,11.4879,11.4879,11.4879,11.4879,11.4879,11.4879,11.4879,11.4879,11.4879,11.4879,11.4879,11.4879,11.4879,11.4879,11.4879,11.4879,11.4879,11.4879,11.4879,11.4879,11.4879,11.4879,11.4879,11.4879,11.5461,11.6508,11.6508,11.645,6.999,7.0771,7.1259,7.1894,7.1552,7.0722,6.9314,6.7852,6.6671,6.6037,6.5353,6.5451,6.7159,6.8672,7.0869,7.4529,7.856,8.2307,8.5293,9.0275,9.4783,9.7845,10.3233,10.8348,11.2671,11.4188,11.5228,11.5984,11.6101,11.645,11.7264,11.6508,11.645,11.7322,11.5752,11.5286,11.6043,11.5286,11.4879,11.4879,11.4879,11.4879,11.4879,11.4879,11.4879,11.4879,11.4879,11.4879,0.0,11.4879,11.4879,11.4879,11.4879,11.4879,11.4879,11.4879,11.4879,11.4879,11.4879,11.4879,11.4879,11.4879,11.4879,11.4879,11.4879,11.4879,11.4879,11.4879,11.4879,11.4879,11.4879,11.4879,11.4879,11.4879,11.4879,11.4879,11.4879,11.4879,11.4879,11.4879,11.4879,11.4879,11.4879,11.4879,11.4879,11.4879,11.4879,11.4879,11.4879,11.4879,11.4879,11.4879,11.4879,11.4879,11.4879,11.4879,11.4879,11.4879,11.4879,11.4879,11.4879,11.4879,11.4879,11.4879,11.4879,11.4879,11.4879,11.4879,11.5519,11.6799,11.6799,11.7264,7.1894,7.2528,7.2967,7.37,7.3309,7.2284,7.0435,6.9258,6.8087,6.6671,6.5549,6.5353,6.7159,6.8291,7.0319,7.4397,7.9372,8.3775,8.6702,9.2569,9.6843,9.7964,10.4038,10.96,11.3275,11.4414,11.5403,11.6682,11.6799,11.738,11.8718,11.7497,11.7439,11.8776,11.6275,11.5286,11.6159,11.5345,11.4879,11.4879,11.4879,11.4879,11.4879,11.4879,11.4879,11.4879,11.4879,11.4879,11.4879,11.4879,11.4879,11.4879,11.4879,11.4879,11.4879,11.4879,11.4879,11.4879,11.4879,11.4879,11.4879,11.4879,11.4879,11.4879,11.4879,11.4879,11.4879,11.4879,11.4879,11.4879,11.4879,11.4879,11.4879,11.4879,11.4879,11.4879,11.4879,11.4879,11.4879,11.4879,11.4879,11.4879,11.4879,11.4879,11.4879,11.4879,11.4879,11.4879,11.4879,11.4879,11.4879,11.4879,11.4879,11.4879,11.4879,11.4879,11.4879,11.4879,11.4879,11.4879,11.4879,11.4879,11.4879,11.4879,11.4879,11.4879,11.4879,11.4879,11.5345,11.6217,11.6624,11.7729,7.2284,7.3114,7.3895,7.3895,7.3895,7.3602,7.2528,7.1547,7.0179,6.7989,6.6671,6.6281,6.7355,6.8291,7.0904,7.6621,8.0568,8.5006,9.0816,9.6057,10.0253,10.2774,10.7735,11.0982,11.0982,11.3367,11.5403,11.6682,11.6799,11.738,11.8718,11.7555,11.7439,11.8776,11.6275,11.4937,11.4937,11.4937,11.4879,11.4879,11.4879,11.4879,11.4879,11.4879,11.4879,11.4879,11.4879,11.4879,11.4879,11.4879,11.4879,11.4879,11.4879,11.4879,11.4879,11.4879,11.4879,11.4879,11.4879,11.4879,11.4879,11.4879,11.4879,11.4879,11.4879,11.4879,11.4879,11.4879,11.4879,11.4879,11.4879,11.4879,11.4879,11.4879,11.4879,11.4879,11.4879,11.4879,11.4879,11.4879,11.4879,11.4879,11.4879,11.4879,11.4879,11.4879,11.4879,11.4879,11.4879,11.4879,11.4879,11.4879,11.4879,11.4879,11.4879,11.4879,11.4879,11.4879,11.4879,11.4879,11.4879,11.4879,11.4879,11.4879,11.4879,11.4879,11.4879,11.4879,11.4879,11.4937,11.6217,11.8195,7.4284,7.4822,7.5066,7.5066,7.5066,7.4773,7.3651,7.2577,7.165,7.1015,6.9405,6.8477,6.9551,7.1425,7.4155,7.821,8.4929,9.0615,9.3627,9.9537,10.3714,10.4063,10.8251,11.0982,11.0982,11.3367,11.5403,11.6682,11.7671,11.8776,12.0056,11.8893,11.9242,12.1394,11.8078,11.6682,11.7613,11.581,11.4879,11.4879,11.4879,11.4879,11.4879,11.4879,11.4879,11.4879,11.4879,11.4879,11.4879,11.4879,11.4879,11.4879,11.4879,11.4879,11.4879,11.4879,11.4879,11.4879,11.4879,11.4879,11.4879,11.4879,11.4879,11.4879,11.4879,11.4879,11.4879,11.4879,11.4879,11.4879,11.4879,11.4879,11.4879,11.4879,11.4879,11.4879,11.4879,11.4879,11.4879,11.4879,11.4879,11.4879,11.4879,11.4879,11.4879,11.4879,11.4879,11.4879,11.4879,11.4879,11.4879,11.4879,11.4879,11.4879,11.4879,11.4879,11.4879,11.4879,11.4879,11.4879,11.4879,11.4879,11.4879,11.4879,11.4879,11.4879,11.4879,11.4879,11.4879,11.4937,11.6217,11.7206,7.5164,7.5946,7.6189,7.6189,7.6189,7.5896,7.4822,7.4041,7.3309,7.2479,7.204,7.1974,7.2763,7.519,7.8289,8.1568,8.8267,9.3785,9.6334,10.1671,10.5413,10.5651,10.8807,11.0982,11.0982,11.3367,11.5228,11.5984,11.7264,11.8311,11.9125,11.8427,11.8951,12.1045,11.7788,11.6682,11.802,11.5926,11.4879,11.4879,11.4879,11.4879,11.4879,11.4879,11.4879,11.4879,11.4879,11.4879,11.4879,11.4879,11.4879,11.4879,11.4879,11.4879,11.4879,11.4879,11.4879,11.4879,11.4879,11.4879,11.4879,11.4879,11.4879,11.4879,11.4879,11.4879,11.4879,11.4879,11.4879,11.4879,11.4879,11.4879,11.4879,11.4879,11.4879,11.4879,11.4879,11.4879,11.4879,11.4879,11.4879,11.4879,11.4879,11.4879,11.4879,11.4879,11.4879,11.4879,11.4879,11.4879,11.4879,11.4879,11.4879,11.4879,11.4879,11.4879,11.4879,11.4879,11.4879,11.4879,11.4879,11.4879,11.4879,11.4879,11.4879,11.4879,11.4879,11.4879,11.4879,11.4937,11.5694,11.6043,7.5359,7.6433,7.7165,7.7165,7.7165,7.7021,7.6437,7.6045,7.5359,7.3876,7.5143,7.654,7.6721,7.9777,8.3278,8.6349,9.1327,9.5982,9.9273,10.3036,10.598,10.7143,10.947,11.0982,11.0982,11.3367,11.4879,11.4879,11.5984,11.6624,11.6624,11.6741,11.7439,11.8776,11.6392,11.5635,11.6799,11.5519,11.4879,11.4879,11.4879,11.4879,11.4879,11.4879,11.4879,11.4879,11.4879,11.4879,11.4879,11.4879,11.4879,11.4879,11.4879,11.4879,11.4879,11.4879,11.4879,11.4879,11.4879,11.4879,11.4879,11.4879,11.4879,11.4879,11.4879,11.4879,11.4879,11.4879,11.4879,11.4879,11.4879,11.4879,11.4879,11.4879,11.4879,11.4879,11.4879,11.4879,11.4879,11.4879,11.4879,11.4879,11.4879,11.4879,11.4879,11.4879,11.4879,11.4879,11.4879,11.4879,11.4984,11.5136,11.4984,11.4984,11.5136,11.4984,11.4879,11.4879,11.4879,11.4879,11.4879,11.4879,11.4879,11.4879,11.4879,11.4879,11.4879,11.4879,11.4879,11.4879,11.4879,11.4879,7.6286,7.697,7.7165,7.7165,7.7165,7.7864,8.0642,7.9007,7.8114,8.2573,8.1611,8.061,8.2507,8.6755,9.0495,9.228,9.7511,10.1966,10.3775,10.5649,10.6969,10.7259,10.947,11.0982,11.0982,11.3367,11.4879,11.4879,11.517,11.5286,11.5286,11.6217,11.7439,11.8776,11.7206,11.6508,11.6799,11.5519,11.4879,11.4879,11.4879,11.4879,11.4879,11.4879,11.4879,11.4879,11.4879,11.4879,11.4879,11.4879,11.4879,11.4879,11.4879,11.4879,11.4879,11.4879,11.4879,11.4879,11.4879,11.4879,11.4879,11.4879,11.4879,11.4879,11.4879,11.4879,11.4879,11.4879,11.4879,11.4879,11.4879,11.4879,11.4879,11.4879,11.4879,11.4879,11.4879,11.4879,11.4879,11.4879,11.4879,11.4879,11.4879,11.4879,11.4879,11.4879,11.4879,11.4879,11.4879,11.4879,11.5599,11.7572,11.6117,11.5703,11.7673,11.6014,11.4879,11.4879,11.4879,11.4879,11.4879,11.4879,11.4879,11.4879,11.4879,11.4879,11.4879,11.4879,11.4879,11.4879,11.4879,11.4879,7.933,7.9331,7.9199,8.0415,7.8904,7.8312,8.2627,8.0693,7.9605,8.5325,8.5378,8.5389,8.8523,9.229,9.5234,9.6393,10.0457,10.362,10.4198,10.6008,10.7259,10.7259,10.947,11.0982,11.0982,11.3367,11.4879,11.4879,11.4879,11.4879,11.4879,11.5519,11.6508,11.7788,11.6566,11.6159,11.6799,11.5519,11.4879,11.4879,11.4879,11.4879,11.4879,11.4879,11.4879,11.4879,11.4879,11.4879,11.4879,11.4879,11.4879,11.4879,11.4879,11.4879,11.4879,11.4879,11.4879,11.4879,11.4879,11.4879,11.4879,11.4879,11.4879,11.4879,11.4879,11.4879,11.4879,11.4879,11.4879,11.4879,11.4879,11.4879,11.4879,11.4879,11.4879,11.4879,11.4879,11.4879,11.4879,11.4879,11.4879,11.4879,11.4879,11.4879,11.4879,11.4879,11.4879,11.4879,11.4879,11.4879,11.6264,12.0025,11.8175,11.7673,12.0219,11.9206,11.7975,11.6718,11.6616,11.6058,11.4984,11.4879,11.4879,11.4879,11.4879,11.4879,11.4879,11.4879,11.4879,11.4879,11.4879,11.4879,8.229,8.2086,8.1994,8.4102,8.1518,7.9739,8.4462,8.259,8.125,8.6658,8.8452,9.0124,9.3546,9.6595,9.8906,9.9693,10.2044,10.3795,10.3793,10.5758,10.7259,10.7259,10.9295,11.0749,11.0982,11.3134,11.4647,11.4879,11.4879,11.4879,11.4879,11.4879,11.5345,11.645,11.5461,11.5403,11.645,11.5403,11.4879,11.4879,11.4879,11.4879,11.4879,11.4879,11.4879,11.4879,11.4879,11.4879,11.4879,11.4879,11.4879,11.4879,11.4879,11.4879,11.4879,11.4879,11.4879,11.4879,11.4879,11.4879,11.4879,11.4879,11.4879,11.4879,11.4879,11.4879,11.4879,11.4879,11.4879,11.4879,11.4879,11.4879,11.4879,11.4879,11.4879,11.4879,11.4879,11.4879,11.4879,11.4879,11.4879,11.4879,11.4879,11.4879,11.4879,11.4879,11.4879,11.5089,11.5449,11.591,11.8035,12.2595,12.0798,12.0316,12.2874,12.275,12.1371,11.8751,11.8949,11.7975,11.4984,11.524,11.5345,11.4879,11.4879,11.4879,11.4879,11.4879,11.4879,11.4879,11.4879,11.4879,8.229,8.3286,8.4194,8.4472,8.4102,8.4647,8.8581,8.6534,8.551,9.1653,9.3018,9.3582,9.5295,9.9457,10.2686,10.2772,10.416,10.5476,10.6535,10.7063,10.7259,10.7259,10.8539,10.9819,11.0866,11.2378,11.3716,11.4821,11.4879,11.4879,11.4879,11.4879,11.4937,11.5112,11.4996,11.4937,11.517,11.4996,11.4879,11.4879,11.4879,11.4879,11.4879,11.4879,11.4879,11.4879,11.4879,11.4879,11.4879,11.4879,11.4879,11.4879,11.4879,11.4879,11.4879,11.4879,11.4879,11.4879,11.4879,11.4879,11.4879,11.4879,11.4879,11.4879,11.4879,11.4879,11.4879,11.4879,11.4879,11.4879,11.4879,11.4879,11.4879,11.4879,11.4879,11.4879,11.4879,11.4879,11.4879,11.4879,11.4879,11.4879,11.4879,11.4879,11.4879,11.4879,11.4879,11.5599,11.7814,12.0025,12.2502,12.5388,12.3428,12.2966,12.5477,12.3766,12.1371,11.8751,12.0702,11.9794,11.5089,11.6922,11.7126,11.4879,11.4879,11.4879,11.4879,11.4879,11.4879,11.4879,11.4879,11.4879,8.622,8.6163,8.6011,8.8148,8.7209,8.6806,9.1269,8.9225,8.8283,9.4656,9.4847,9.4892,9.8405,10.0803,10.2781,10.4235,10.4991,10.5805,10.7085,10.7259,10.7259,10.7259,10.8423,10.9412,10.9935,11.1796,11.3192,11.3774,11.4472,11.4879,11.4879,11.4879,11.4879,11.4879,11.4879,11.4879,11.4879,11.4879,11.4879,11.4879,11.4879,11.4879,11.4879,11.4879,11.4879,11.4879,11.4879,11.4879,11.4879,11.4879,11.4879,11.4879,11.4879,11.4879,11.4879,11.4879,11.4879,11.4879,11.4879,11.4879,11.4879,11.4879,11.4879,11.4879,11.4879,11.4879,11.4879,11.4879,11.4879,11.4879,11.4879,11.4879,11.4879,11.4879,11.4879,11.4879,11.4879,11.4879,11.4879,11.4879,11.4879,11.4879,11.4879,11.4879,11.4879,11.4879,11.6117,11.7874,12.0413,12.175,12.3948,12.7777,12.6071,12.5566,12.8011,12.7264,12.5477,12.2996,12.3885,12.2874,11.9365,12.0184,12.0219,11.9168,11.7673,11.6922,11.6922,11.5553,11.4879,11.4879,11.4879,11.4879,8.8937,8.8679,8.8317,9.0845,8.9896,8.9296,9.3075,9.1898,9.1407,9.6192,9.6102,9.6223,9.9795,10.1326,10.2606,10.4526,10.5165,10.5805,10.7085,10.7259,10.7259,10.7259,10.8132,10.883,10.9179,11.1157,11.2494,11.2494,11.3658,11.453,11.4879,11.4879,11.4879,11.4879,11.4879,11.4879,11.4879,11.4879,11.4879,11.4879,11.4879,11.4879,11.4879,11.4879,11.4879,11.4879,11.4879,11.4879,11.4879,11.4879,11.4879,11.4879,11.4879,11.4879,11.4879,11.4879,11.4879,11.4879,11.4879,11.4879,11.4879,11.4879,11.4879,11.4879,11.4879,11.4879,11.4879,11.4879,11.4879,11.4879,11.4879,11.4879,11.4879,11.4879,11.4879,11.4879,11.4879,11.4879,11.4879,11.4879,11.4879,11.4879,11.4879,11.4879,11.4879,11.4879,11.7024,11.9734,12.2966,12.3948,12.5806,12.9396,12.8181,12.7842,12.9709,12.9873,12.8833,12.6333,12.6094,12.5032,12.2564,12.1845,12.1466,12.1466,11.8647,11.7315,11.7673,11.5454,11.4588,11.4879,11.4879,11.4879,8.7774,8.9843,9.1387,9.0366,9.1851,9.3565,9.3881,9.4638,9.5479,9.5859,9.7689,9.8934,9.7979,10.0803,10.3304,10.3479,10.4526,10.5805,10.7085,10.7259,10.7259,10.7259,10.7318,10.7841,10.9162,11.0342,11.1098,11.1098,11.232,11.36,11.4821,11.4879,11.4879,11.4879,11.4879,11.4879,11.4879,11.4879,11.4879,11.4879,11.4879,11.4879,11.4879,11.4879,11.4879,11.4879,11.4879,11.4879,11.4879,11.4879,11.4879,11.4879,11.4879,11.4879,11.4879,11.4879,11.4879,11.4879,11.4879,11.4879,11.4879,11.4879,11.4879,11.4879,11.4879,11.4879,11.4879,11.4879,11.4879,11.4879,11.4879,11.4879,11.4879,11.4879,11.4879,11.4879,11.4879,11.4879,11.4879,11.4879,11.4879,11.4879,11.4879,11.4879,11.4879,11.4879,11.7024,12.0352,12.5388,12.8011,12.9627,12.9791,12.9709,12.9709,12.9791,12.9873,12.8833,12.6333,12.6094,12.5032,12.2564,12.0122,11.8751,11.8751,11.5128,11.3866,11.5089,11.3658,11.3716,11.4879,11.4879,11.4879,8.6261,8.7483,8.853,8.9669,9.1322,9.2834,9.3648,9.4957,9.6063,9.6789,9.772,9.8386,9.8735,10.0687,10.2432,10.3246,10.4526,10.5805,10.7085,10.7259,10.7259,10.7259,10.7259,10.7434,10.7899,10.9121,10.9819,10.9819,11.1796,11.3192,11.3658,11.4472,11.4879,11.4879,11.4879,11.4879,11.4879,11.4879,11.4879,11.4879,11.4879,11.4879,11.4879,11.4879,11.4879,11.4879,11.4879,11.4879,11.4879,11.4879,11.4879,11.4879,11.4879,11.4879,11.4879,11.4879,11.4879,11.4879,11.4879,11.4879,11.4879,11.4879,11.4879,11.4879,11.4879,11.4879,11.4879,11.4879,11.4879,11.4879,11.4879,11.4879,11.4879,11.4879,11.4879,11.4879,11.4879,11.4879,11.4879,11.4879,11.4879,11.4879,11.4879,11.4879,11.5449,11.7024,12.0736,12.4095,12.5919,12.8265,12.9873,12.9873,12.9873,12.9873,12.9873,12.8349,12.7777,12.8498,12.4737,12.2896,12.361,12.0415,11.8533,11.8533,11.5661,11.4412,11.4828,11.2771,11.1913,11.2378,11.2378,11.2378,8.44,8.5505,8.6436,8.7693,8.9693,9.1671,9.295,9.423,9.551,9.6789,9.7282,9.7805,9.8677,10.0338,10.1908,10.3188,10.4526,10.5805,10.7085,10.7259,10.7259,10.7259,10.7259,10.7259,10.7259,10.8074,10.8714,10.9179,11.0749,11.2087,11.296,11.3774,11.4472,11.4879,11.4879,11.4879,11.4879,11.4879,11.4879,11.4879,11.4879,11.4879,11.4879,11.4879,11.4879,11.4879,11.4879,11.4879,11.4879,11.4879,11.4879,11.4879,11.4879,11.4879,11.4879,11.4879,11.4879,11.4879,11.4879,11.4879,11.4879,11.4879,11.4879,11.4879,11.4879,11.4879,11.4879,11.4879,11.4879,11.4879,11.4879,11.4879,11.4879,11.4879,11.4879,11.4879,11.4879,11.4879,11.4879,11.4879,11.4879,11.4879,11.4879,11.5553,11.6616,11.8315,12.2159,12.5477,12.7178,12.8833,12.9873,12.9873,12.9873,12.9676,12.9149,12.7633,12.7187,12.8345,12.368,12.2126,12.4591,12.0587,11.8393,11.8483,11.5634,11.3952,11.3498,11.1422,11.0575,11.0982,11.0982,11.0982,8.2323,8.4109,8.5738,8.4439,8.6996,9.0275,9.1496,9.2776,9.4114,9.5481,9.6673,9.7456,9.7572,9.9698,10.185,10.313,10.4467,10.5805,10.7027,10.7259,10.7259,10.7259,10.7259,10.7259,10.7259,10.7259,10.7783,10.9063,10.9279,11.0284,11.2727,11.296,11.3541,11.4821,11.4879,11.4879,11.4879,11.4879,11.4879,11.4879,11.4879,11.4879,11.4879,11.4879,11.4879,11.4879,11.4879,11.4879,11.4879,11.4879,11.4879,11.4879,11.4879,11.4879,11.4879,11.4879,11.4879,11.4879,11.4879,11.4879,11.4879,11.4879,11.4879,11.4879,11.4879,11.4879,11.4879,11.4879,11.4879,11.4879,11.4879,11.4879,11.4879,11.4879,11.4879,11.4879,11.4879,11.4879,11.4879,11.4879,11.4984,11.4984,11.4984,11.7024,11.8751,11.8751,12.0989,12.4402,12.9166,12.9807,12.9807,12.9741,12.9741,12.9149,12.7769,12.7637,12.6965,12.5664,12.3067,12.2753,12.515,12.0368,11.7816,11.7998,11.4501,11.1993,11.0866,10.9702,10.9702,11.0866,11.0866,11.0866,8.0735,8.2207,8.3527,8.4032,8.5659,8.7308,8.7657,8.946,9.1438,9.2718,9.3997,9.5452,9.7224,9.8909,10.0512,10.1792,10.3886,10.5514,10.5863,10.6678,10.7259,10.7259,10.7259,10.7259,10.7259,10.7259,10.7434,10.7783,10.8655,10.947,11.0226,11.1971,11.3134,11.3483,11.4414,11.4879,11.4879,11.4879,11.4879,11.4879,11.4879,11.4879,11.4879,11.4879,11.4879,11.4879,11.4879,11.4879,11.4879,11.4879,11.4879,11.4879,11.4879,11.4879,11.4879,11.4879,11.4879,11.4879,11.4879,11.4879,11.4879,11.4879,11.4879,11.4879,11.4879,11.4879,11.4879,11.4879,11.4879,11.4879,11.4879,11.4879,11.4879,11.4879,11.4879,11.4879,11.4879,11.4879,11.4879,11.4879,11.6367,11.7572,11.7572,11.9636,12.2033,12.3794,12.6182,12.794,12.8264,12.8295,12.79,12.6848,12.6782,12.6585,12.619,12.4541,12.4099,12.5519,11.9087,11.6396,11.8802,11.3314,11.0278,11.0374,10.9307,10.8587,10.8306,10.7957,10.7957,10.8306,10.8306,10.8306,7.9921,8.145,8.2614,8.3295,8.44,8.5505,8.6029,8.7715,8.9402,9.0158,9.2194,9.4172,9.5103,9.7108,9.9174,10.0454,10.2373,10.4118,10.5224,10.6038,10.6678,10.7201,10.7259,10.7259,10.7259,10.7259,10.7259,10.7259,10.7957,10.8597,10.9279,11.0575,11.1622,11.2145,11.3425,11.4123,11.4123,11.4647,11.4879,11.4879,11.4879,11.4879,11.4879,11.4879,11.4879,11.4879,11.4879,11.4879,11.4879,11.4879,11.4879,11.4879,11.4879,11.4879,11.4879,11.4879,11.4879,11.4879,11.4879,11.4879,11.4879,11.4879,11.4879,11.4879,11.4879,11.4879,11.4879,11.4879,11.4879,11.4879,11.4879,11.4879,11.4879,11.4879,11.4879,11.4879,11.4879,11.4879,11.5194,11.6161,11.7572,11.8949,12.0025,12.2315,12.4472,12.5735,12.7152,12.7769,12.6914,12.6782,12.6519,12.5664,12.5599,12.5335,12.4744,12.2475,12.1823,12.3667,11.811,11.5943,11.834,11.4079,11.1244,11.0283,10.8676,10.7685,10.7259,10.6736,10.6736,10.7259,10.7259,10.6969,7.8932,8.0576,8.1566,8.1741,8.2771,8.4032,0.0,8.6494,8.7425,8.7599,9.0391,9.2543,9.1671,9.4521,9.7398,9.8883,10.0338,10.2199,10.4758,10.5282,10.5805,10.691,10.7201,10.7259,10.7259,10.7259,10.7259,10.7259,10.7259,10.7783,10.8946,10.9221,10.9702,11.0749,11.2087,11.2785,11.2785,11.4007,11.4705,11.4705,11.4821,11.4879,11.4879,11.4879,11.4879,11.4879,11.4879,11.4879,11.4879,11.4879,11.4879,11.4879,11.4879,11.4705,11.4472,11.4472,11.4472,11.4472,11.4472,11.4472,11.4472,11.4472,11.4472,11.4472,11.4647,11.4705,11.4705,11.4821,11.4879,11.4879,11.4879,11.4879,11.4879,11.4879,11.4879,11.4879,11.4879,11.5089,11.6014,11.8115,11.9047,12.0158,12.2221,12.4689,12.6187,12.5609,12.5599,12.5533,12.5335,12.5335,12.527,12.5138,12.5072,12.4612,12.3297,12.131,12.0324,12.0798,11.8645,11.8241,12.0045,11.7851,11.5617,11.3531,11.0578,10.856,10.7418,10.625,10.625,10.7242,10.7066,10.6387,0.0,0.0,0.0,0.0,0.0,0.0,0.0,8.2614,8.3837,8.4749,8.5485,8.6668,8.8472,9.1147,9.3823,9.615,9.8418,10.0803,10.342,10.47,10.5456,10.5689,10.6678,10.7259,10.7259,10.7259,10.7259,10.7259,10.7259,10.7376,10.7667,10.8655,10.9295,10.9528,11.0749,11.1389,11.1389,11.2669,11.3367,11.3367,11.4414,11.4879,11.4879,11.4879,11.4879,11.4879,11.4879,11.4879,11.4879,11.4879,11.4879,11.4879,11.4879,11.36,11.1738,11.1738,11.1738,11.1738,11.1738,11.1738,11.1738,11.1738,11.1738,11.1971,11.3018,11.3367,11.36,11.4588,11.4879,11.4879,11.4879,11.4879,11.4879,11.4879,11.4879,11.4879,11.4879,11.647,11.8015,11.8454,12.1877,12.4472,12.3836,12.5755,12.6955,12.5782,12.5599,12.5138,12.402,12.3889,12.3428,12.2245,12.2113,12.1982,12.1719,12.1345,12.0306,11.8564,11.6294,11.4322,11.2846,11.0596,10.9115,10.8696,10.9856,10.9722,10.8355,10.8241,10.7702,10.6802,10.6027,10.5049,0.0,0.0,0.0,0.0,0.0,0.0,0.0,0.0,0.0,0.0,0.0,8.4555,8.5912,0.0,9.0856,9.3416,9.6033,9.8534,10.1094,10.313,10.4351,10.4351,10.5514,10.6329,10.6329,10.691,10.7259,10.7259,10.7259,10.7259,10.7259,10.7899,10.8248,10.8248,10.9412,11.011,11.011,11.1331,11.1971,11.1971,11.2611,11.296,11.296,11.296,11.296,11.296,11.296,11.296,11.296,11.296,11.296,11.296,11.296,11.2145,11.0982,11.0982,11.0982,11.0982,11.0982,11.0982,11.0982,11.0982,11.0982,11.1098,11.1796,11.1971,11.2145,11.2785,11.296,11.296,11.296,11.296,11.296,11.296,11.296,11.3211,11.442,11.5603,11.7305,11.9709,12.2317,12.4196,12.4712,12.5207,12.4756,12.2071,12.2737,12.3165,12.2442,12.1311,12.0352,11.9573,11.8484,11.7769,11.7769,11.8806,11.8014,11.4521,11.3176,11.2243,11.1597,11.0398,10.9171,10.8072,10.7854,10.7555,10.7031,10.5763,10.5111,10.5019,10.2641,10.1501,0.0,0.0,0.0,0.0,0.0,0.0,0.0,0.0,0.0,0.0,0.0,0.0,0.0,0.0,0.0,9.0449,9.3183,9.5975,9.8825,10.0977,10.2373,10.2606,10.4002,10.5107,10.534,10.6329,10.7027,10.7259,10.7259,10.7259,10.7259,10.7259,10.7259,10.7259,10.8306,10.883,10.883,11.0051,11.0633,11.0633,11.0866,0.0,11.0982,11.0982,11.0982,11.0982,11.0982,11.0982,11.0982,11.0982,11.0982,11.0924,11.0459,11.0284,11.0284,11.0284,11.0284,11.0284,11.0284,11.0284,11.0284,11.0284,11.0284,11.0342,11.0575,11.0633,0.0,11.0924,11.0982,11.1084,11.1531,11.1631,11.1832,11.2273,11.2373,11.2908,11.4733,11.5211,11.6622,12.0991,12.1911,12.2438,12.4197,12.2877,12.0695,11.7869,11.8919,12.0032,12.0279,11.8451,11.6983,11.681,11.5494,11.4382,11.4036,11.6252,11.5957,11.1733,11.1301,11.1338,11.1768,11.1812,11.0807,10.8573,10.7226,10.6028,10.4841,10.3228,10.2463,10.2475,9.8656,9.7224,0.0,0.0,0.0,0.0,0.0,0.0,0.0,0.0,0.0,0.0,0.0,0.0,0.0,0.0,0.0,0.0,8.9926,9.3648,9.7282,9.8037,9.8619,9.9872,10.2141,10.406,10.5282,10.5514,10.6038,10.7201,10.7259,10.7259,10.7259,10.7259,0.0,0.0,0.0,10.7492,10.7492,10.8772,10.9412,10.9412,11.0459,11.0982,11.0982,11.0982,11.0982,11.0982,11.0982,11.0982,11.0982,11.0982,11.0982,11.0749,10.8539,10.7667,10.7667,10.7667,10.7667,10.7667,10.7667,0.0,0.0,10.7667,10.7667,10.7899,10.9063,10.9412,10.9586,11.0691,11.0982,11.143,11.3595,11.4119,11.4637,11.6747,11.7147,11.7239,11.7514,11.7758,11.8726,12.1399,12.1996,12.178,12.0747,11.7603,11.5642,11.6292,11.5593,11.5541,11.6706,11.5593,11.4258,11.3094,11.4542,0.0,11.2799,11.5619,11.6462,11.406,11.298,11.164,10.9643,11.0266,10.9609,10.7515,11.1034,10.9636,10.3118,10.4917,10.3569,9.9363,9.5904,9.3765,0.0,0.0,0.0,0.0,0.0,0.0,0.0,0.0,0.0,0.0,0.0,0.0,0.0,0.0,0.0,0.0,8.7017,8.9111,9.0657,9.2892,9.4812,9.6091,9.9174,10.1385,10.1966,10.3362,10.4467,10.4991,10.5747,10.6154,10.6154,10.6852,10.7259,10.7259,10.7259,10.7259,10.7259,10.7841,10.8074,10.8074,10.8597,10.883,10.883,10.883,10.883,10.883,10.883,10.883,10.883,10.883,10.883,10.8714,0.0,0.0,0.0,0.0,10.7259,10.7259,10.7259,10.7259,10.7376,10.8132,10.8365,10.8481,10.9004,10.9279,10.9221,10.8888,10.883,10.9128,10.9996,11.0289,11.0581,11.1521,11.1806,11.2126,11.3559,11.5019,11.6706,11.9061,11.9562,0.0,11.5193,11.437,11.3982,11.3193,11.3072,11.3844,11.5599,11.2422,11.0328,11.1003,10.9565,10.8216,10.7288,10.9766,0.0,0.0,0.0,10.9701,10.5999,10.67,0.0,0.0,0.0,10.6218,9.9726,10.2049,0.0,0.0,8.9014,8.789,0.0,0.0,0.0,0.0,0.0,0.0,0.0,0.0,0.0,0.0,0.0,0.0,0.0,0.0,0.0,0.0,8.4032,8.5621,8.5621,8.8355,9.1089,9.3125,9.6091,9.8244,9.8851,10.0687,10.2083,10.2781,10.3769,10.4467,10.4816,10.6038,10.6736,10.6736,10.7085,10.7259,10.7259,10.7259,10.7259,10.7259,10.7259,10.7259,10.7259,10.7259,10.7259,10.7259,10.7259,10.7259,10.7259,10.7259,10.7259,10.7259,10.7259,10.7259,10.7259,10.7259,10.7259,10.7259,10.7259,10.7259,10.7492,10.8772,10.9279,10.9337,10.9586,10.947,10.9104,10.8074,10.755,10.7456,10.8079,10.8214,10.8407,10.902,10.921,10.9685,11.1428,11.2639,11.406,11.6378,11.5745,11.3781,11.0761,11.0791,11.1094,11.0455,11.0065,11.0687,11.3048,10.9081,10.6417,10.7671,10.5428,10.3529,10.2933,10.5817,10.6717,10.443,10.8095,10.8594,10.4852,10.5185,10.4081,10.1047,10.3418,10.1673,0.0,0.0,0.0,0.0,0.0,0.0,0.0,0.0,0.0,0.0,0.0,0.0,0.0,0.0,0.0,0.0,0.0,0.0,0.0,0.0,0.0,0.0,0.0,0.0,8.4206,8.5369,8.7715,9.1554,9.3241,9.4986,9.7398,9.7689,9.8793,10.1326,10.1559,10.2141,10.3362,10.47,10.5456,10.5456,10.662,10.7259,10.7259,10.7259,10.7259,10.7259,10.7259,10.7259,10.7259,10.7259,10.7259,10.7259,10.7259,10.7259,10.7259,10.7259,10.7259,10.7259,10.7259,10.7259,10.7259,10.7259,10.7259,10.7259,10.7259,10.7259,10.7492,10.8772,10.9279,10.9412,11.0575,11.011,10.9279,10.9221,10.8248,10.7788,11.0096,11.0689,11.1275,11.3531,11.406,11.4147,11.4147,11.2459,11.155,11.3972,11.0494,10.7617,10.8704,10.6059,10.5045,10.8738,10.6057,0.0,10.7242,10.522,10.3085,10.1896,10.3517,10.3876,10.1686,10.6553,10.8792,10.6777,10.9033,10.9608,10.8019,10.748,10.6465,10.4642,10.2228,9.7436,9.0192,0.0,0.0,0.0,0.0,0.0,0.0,0.0,0.0,0.0,0.0,0.0,0.0,0.0,0.0,0.0,0.0,0.0,0.0,0.0,0.0,0.0,0.0,0.0,0.0,8.2306,8.44,8.6531,8.8704,9.0682,9.2342,9.3358,9.4579,9.6324,9.7197,9.8244,9.9523,10.1617,10.2781,10.2781,10.4002,10.5107,10.6038,10.6038,10.6445,10.7259,10.7259,10.7259,10.7259,10.7259,10.7259,10.7259,10.7259,10.7259,10.7259,10.7259,10.6271,10.47,10.47,10.47,10.47,10.47,10.47,10.47,10.47,10.47,10.5049,10.7259,10.7957,10.819,10.9412,10.8946,10.7725,10.691,10.6329,10.6174,10.698,10.7856,10.8696,10.9495,10.9685,10.9685,10.9685,10.9564,10.9731,11.0547,10.7435,10.5028,10.6324,10.4045,10.2839,10.4991,10.2024,10.0711,10.3933,10.1576,10.0243,10.2151,10.1676,10.1015,10.0313,10.191,10.2685,10.1933,10.4084,10.4078,10.1224,10.2328,10.1261,9.7606,9.5839,9.4074,9.2148,0.0,0.0,0.0,0.0,0.0,0.0,0.0,0.0,0.0,0.0,0.0,0.0,0.0,0.0,0.0,0.0,0.0,0.0,0.0,0.0,0.0,0.0,0.0,0.0,0.0,0.0,8.3411,8.504,0.0,8.7751,8.8762,8.9984,9.1671,9.2543,9.3765,9.5422,9.8069,9.9465,9.9465,10.1559,10.313,10.3944,10.4002,10.4409,10.5224,10.4758,10.4758,10.5224,10.5224,10.5689,10.6561,10.6096,10.6154,10.6503,10.5107,10.3828,10.2664,10.2199,10.2024,10.2024,10.2024,10.2024,10.2024,10.2024,10.2024,10.2373,10.4526,10.5514,10.6154,10.7434,10.662,10.5049,10.4235,10.4002,10.4002,10.4002,10.4933,10.6038,10.6503,10.6212,10.5863,10.5863,10.6442,10.6408,10.4561,10.2345,10.1094,10.2373,10.0861,10.0163,10.2373,9.9407,9.8079,10.1231,9.9254,9.843,10.0724,10.0135,9.9581,9.9581,10.019,10.0492,10.0021,10.1784,10.136,9.8223,9.871,9.7006,9.2543,9.0798,8.9489,0.0,0.0,0.0,0.0,0.0,0.0,0.0,0.0,0.0,0.0,0.0,0.0,0.0,0.0,0.0,0.0,0.0,0.0,0.0,0.0,0.0,0.0,0.0,0.0,0.0,0.0,0.0,8.209,8.2207,0.0,0.0,0.0,0.0,8.7599,8.7774,8.8879,9.1496,9.3939,9.5422,9.5597,9.9058,10.1036,10.1152,10.1152,10.121,10.1268,10.0047,10.0105,10.1268,10.1326,10.2722,10.4991,10.3769,10.3944,10.4875,10.0919,9.9989,10.0977,9.9698,9.9174,9.9174,9.9174,9.9174,9.9174,9.9174,9.9174,9.9407,10.0628,10.185,10.313,10.4409,10.3071,0.0,0.0,10.1152,10.1152,10.1152,10.2199,10.3595,10.4816,10.4177,10.3246,10.313,10.3071,10.1559,9.6587,9.5597,9.5975,9.7224,0.0,9.6936,10.0628,9.8011,9.6499,9.8942,9.8154,9.7514,9.7572,9.8735,9.9523,9.9465,10.1349,10.1996,10.0613,10.1756,10.13,9.8613,9.6631,9.3648,8.9727,8.7192,0.0,0.0,0.0,0.0,0.0,0.0,0.0,0.0,0.0,0.0,0.0,0.0,0.0,0.0,0.0,0.0,0.0,0.0,0.0,0.0,0.0,0.0,0.0,0.0,0.0,0.0,7.5675,7.6955,7.9223,7.9514,8.0037,0.0,0.0,0.0,0.0,0.0,0.0,8.7483,8.8239,8.9519,9.1438,9.3358,9.5277,9.7285,9.7285,9.772,9.856,9.8212,9.8212,9.856,9.964,10.0396,10.1036,10.0687,10.1268,10.2083,9.7313,9.551,9.5684,9.4405,9.3881,9.3881,9.3881,9.3881,9.3881,9.3881,9.3881,9.3939,9.4288,9.5277,9.6382,9.6731,0.0,0.0,0.0,0.0,9.7285,9.7285,9.9581,10.1792,10.121,10.1501,10.1443,9.9523,9.9116,9.7604,9.2485,9.2311,9.3648,9.5859,9.4405,0.0,9.6878,9.4754,9.3532,9.5103,9.5859,9.6615,9.7456,9.8735,9.9174,9.8154,9.8606,9.7963,9.5818,9.6876,9.6053,9.247,9.183,8.9693,8.5717,0.0,0.0,0.0,0.0,0.0,0.0,0.0,0.0,0.0,0.0,0.0,0.0,0.0,0.0,0.0,0.0,0.0,0.0,0.0,0.0,0.0,0.0,0.0,0.0,0.0,0.0,0.0,7.3116,7.393,7.4337,7.4861,7.5675,0.0,0.0,0.0,0.0,0.0,0.0,0.0,0.0,0.0,8.5796,8.8181,9.01,9.1554,9.2078,9.2718,9.3416,9.3416,9.3416,9.3474,9.4812,9.5975,9.708,9.708,9.6499,9.5335,9.2485,9.0973,9.0391,0.0,0.0,0.0,0.0,8.8588,8.8588,8.8588,8.8588,8.8646,8.9228,0.0,0.0,0.0,0.0,0.0,0.0,0.0,9.2543,9.3125,9.5684,9.7953,9.7255,9.8011,9.8244,9.5742,9.3272,9.0657,8.7308,8.7715,8.9053,9.0449,8.9984,0.0,0.0,0.0,9.1554,9.2892,9.4172,9.5393,9.6673,9.7487,9.7836,9.7572,9.6615,9.5161,9.3125,9.3183,9.1787,8.8472,8.7693,8.5601,0.0,0.0,0.0,0.0,0.0,0.0,0.0,0.0,0.0,0.0,0.0,0.0,0.0,0.0,0.0,0.0,0.0,0.0,0.0,0.0,0.0,0.0,0.0,0.0,0.0,0.0,0.0,0.0,0.0,7.0789,6.8986,0.0,0.0,0.0,0.0,0.0,0.0,0.0,0.0,0.0,0.0,0.0,0.0,0.0,8.5389,8.5389,8.6668,8.7308,8.7308,8.7308,8.7308,8.7366,8.8704,9.0624,9.2834,9.2311,0.0,8.7017,8.7017,0.0,0.0,0.0,0.0,0.0,0.0,0.0,0.0,0.0,0.0,0.0,0.0,0.0,0.0,0.0,0.0,0.0,0.0,0.0,0.0,0.0,0.0,9.295,9.2427,9.359,9.4025,9.0856,8.6785,8.3353,8.2148,8.2847,8.3586,0.0,0.0,0.0,0.0,0.0,0.0,9.1264,9.2718,9.4056,9.5248,9.5655,9.615,9.6991,9.4986,9.3009,9.1496,9.0217,8.8355,8.5738,8.4574,0.0,0.0,0.0,0.0,0.0,0.0,0.0,0.0,0.0,0.0,0.0,0.0,0.0,0.0,0.0,0.0,0.0,0.0,0.0,0.0,0.0,0.0,0.0,0.0,0.0,0.0,0.0,0.0,0.0,0.0,0.0,0.0,0.0,0.0,0.0,0.0,0.0,0.0,0.0,0.0,0.0,0.0,0.0,0.0,0.0,0.0,0.0,0.0,0.0,0.0,8.3429,8.3429,8.3487,8.4749,8.6145,8.7308,8.4167,8.2364,8.1782,8.1782,0.0,0.0,0.0,0.0,0.0,0.0,0.0,0.0,0.0,0.0,0.0,0.0,0.0,0.0,0.0,0.0,0.0,0.0,0.0,0.0,0.0,0.0,8.8297,8.5176,8.6901,8.7832,8.2131,0.0,0.0,0.0,0.0,0.0,0.0,0.0,0.0,0.0,0.0,0.0,8.8588,9.0798,9.2369,9.2601,9.4521,9.5539,9.4579,9.3125,9.1264,8.8879,8.7541,8.568,0.0,0.0,0.0,0.0,0.0,0.0,0.0,0.0,0.0,0.0,0.0,0.0,0.0,0.0,0.0,0.0,0.0,0.0,0.0,0.0,0.0,0.0,0.0,0.0,0.0,0.0,0.0,0.0,0.0,0.0,0.0,0.0,0.0,0.0,0.0,0.0,0.0,0.0,0.0,0.0,0.0,0.0,0.0,0.0,0.0,0.0,0.0,0.0,0.0,0.0,0.0,0.0,0.0,0.0,0.0,0.0,0.0,0.0,8.0096,7.806,0.0,0.0,0.0,0.0,0.0,0.0,0.0,0.0,0.0,0.0,0.0,0.0,0.0,0.0,0.0,0.0,0.0,0.0,0.0,0.0,0.0,0.0,0.0,0.0,0.0,0.0,0.0,0.0,0.0,0.0,0.0,0.0,0.0,0.0,0.0,0.0,0.0,0.0,0.0,0.0,8.5176,8.853,9.1205,9.1903,9.3067,9.3532,9.295,9.0449,8.8123,8.6203,8.4225,0.0,0.0,0.0,0.0,0.0,0.0,0.0,0.0,0.0,0.0,0.0,0.0,0.0,0.0,0.0,0.0,0.0,0.0,0.0,0.0,0.0,0.0,0.0,0.0,0.0,0.0,0.0,0.0,0.0,0.0,0.0,0.0,0.0,0.0,0.0,0.0,0.0,0.0,0.0,0.0,0.0,0.0,0.0,0.0,0.0,0.0,0.0,0.0,0.0,0.0,0.0,0.0,0.0,0.0,0.0,0.0,0.0,0.0,0.0,7.6955,7.4628,0.0,0.0,0.0,0.0,0.0,0.0,0.0,0.0,0.0,0.0,0.0,0.0,0.0,0.0,0.0,0.0,0.0,0.0,0.0,0.0,0.0,0.0,0.0,0.0,0.0,0.0,0.0,0.0,0.0,0.0,0.0,0.0,0.0,0.0,0.0,0.0,0.0,0.0,0.0,0.0,8.2148,8.6203,8.9693,9.0973,9.138,9.1554,9.1554,8.8472,8.5912,8.4264,8.1841,0.0,0.0,0.0,0.0,0.0,0.0,0.0,0.0,0.0,0.0,0.0,0.0,0.0,0.0,0.0,0.0,0.0,0.0,0.0,0.0,0.0,0.0,0.0,0.0,0.0,0.0,0.0,0.0,0.0,0.0,0.0,0.0,0.0,0.0,0.0,0.0,0.0,0.0,0.0,0.0,0.0,0.0,0.0,0.0,0.0,0.0,0.0,0.0,0.0,0.0,0.0,0.0,0.0,0.0,0.0,0.0,0.0,0.0,0.0,0.0,0.0,0.0,0.0,0.0,0.0,0.0,0.0,0.0,0.0,0.0,0.0,0.0,0.0,0.0,0.0,0.0,0.0,0.0,0.0,0.0,0.0,0.0,0.0,0.0,0.0,0.0,0.0,0.0,0.0,0.0,0.0,0.0,0.0,0.0,0.0,0.0,0.0,0.0,0.0,0.0,0.0,8.0503,8.4051,8.6959,8.8239,8.9519,9.0134,9.0134,8.8762,8.6843,8.4323,0.0,0.0,0.0,0.0,0.0,0.0,0.0,0.0,0.0,0.0,0.0,0.0,0.0,0.0,0.0,0.0,0.0,0.0,0.0,0.0,0.0,0.0,0.0,0.0,0.0,0.0,0.0,0.0,0.0,0.0,0.0,0.0,0.0,0.0,0.0,0.0,0.0,0.0,0.0,0.0,0.0,0.0,0.0,0.0,0.0,0.0,0.0,0.0,0.0,0.0,0.0,0.0,0.0,0.0,0.0,0.0,0.0,0.0,0.0,0.0,0.0,0.0,0.0,0.0,0.0,0.0,0.0,0.0,0.0,0.0,0.0,0.0,0.0,0.0,0.0,0.0,0.0,0.0,0.0,0.0,0.0,0.0,0.0,0.0,0.0,0.0,0.0,0.0,0.0,0.0,0.0,0.0,0.0,0.0,0.0,0.0,0.0,0.0,0.0,0.0,0.0,0.0,7.8176,8.2829,8.661,8.789,8.853,8.853,8.7774,8.5098,8.2713,8.091,0.0,0.0,0.0,0.0,0.0,0.0,0.0,0.0,0.0,0.0,0.0,0.0,0.0,0.0,0.0,0.0,0.0,0.0,0.0,0.0,0.0,0.0,0.0,0.0,0.0,0.0,0.0,0.0,0.0,0.0,0.0,0.0,0.0,0.0,0.0,0.0,0.0,0.0,0.0,0.0,0.0,0.0,0.0,0.0,0.0,0.0,0.0,0.0,0.0,0.0,0.0,0.0,0.0,0.0,0.0,0.0,0.0,0.0,0.0,0.0,0.0,0.0,0.0,0.0,0.0,0.0,0.0,0.0,0.0,0.0,0.0,0.0,0.0,0.0,0.0,0.0,0.0,0.0,0.0,0.0,0.0,0.0,0.0,0.0,0.0,0.0,0.0,0.0,0.0,0.0,0.0,0.0,0.0,0.0,0.0,0.0,0.0,0.0,0.0,0.0,0.0,0.0,7.6722,8.155,8.5796,8.7832,8.7715,8.7134,8.6203,8.3004,8.0154,7.8118,0.0,0.0,0.0,0.0,0.0,0.0,0.0,0.0,0.0,0.0,0.0,0.0,0.0,0.0,0.0,0.0,0.0,0.0,0.0,0.0,0.0,0.0,0.0,0.0,0.0,0.0,0.0,0.0,0.0,0.0,0.0,0.0,0.0,0.0,0.0,0.0,0.0,0.0,0.0,0.0,0.0,0.0,0.0,0.0,0.0,0.0,0.0,0.0,0.0,0.0,0.0,0.0,0.0,0.0,0.0,0.0,0.0,0.0,0.0,0.0,0.0,0.0,0.0,0.0,0.0,0.0,0.0,0.0,0.0,0.0,0.0,0.0,0.0,0.0,0.0,0.0,0.0,0.0,0.0,0.0,0.0,0.0,0.0,0.0,0.0,0.0,0.0,0.0,0.0,0.0,0.0,0.0,0.0,0.0,0.0,0.0,0.0,0.0,0.0,0.0,0.0,0.0,7.6431,7.9979,8.3895,8.7657,8.6901,8.6145,8.6145,8.3895,8.0751,0.0,0.0,0.0,0.0,0.0,0.0,0.0,0.0,0.0,0.0,0.0,0.0,0.0,0.0,0.0,0.0,0.0,0.0,0.0,0.0,0.0,0.0,0.0,0.0,0.0,0.0,0.0,0.0,0.0,0.0,0.0,0.0,0.0,0.0,0.0,0.0,0.0,0.0,0.0,0.0,0.0,0.0,0.0,0.0,0.0,0.0,0.0,0.0,0.0,0.0,0.0,0.0,0.0,0.0,0.0,0.0,0.0,0.0,0.0,0.0,0.0,0.0,0.0,0.0,0.0,0.0,0.0,0.0,0.0,0.0,0.0,0.0,0.0,0.0,0.0,0.0,0.0,0.0,0.0,0.0,0.0,0.0,0.0,0.0,0.0,0.0,0.0,0.0,0.0,0.0,0.0,0.0,0.0,0.0,0.0,0.0,0.0,0.0,0.0,0.0,0.0,0.0,0.0,7.521,7.947,8.3196,8.5214,8.502,8.4516,8.372,8.0386,7.7536,7.5384,0.0,0.0,0.0,0.0,0.0,0.0,0.0,0.0,0.0,0.0,0.0,0.0,0.0,0.0,0.0,0.0,0.0,0.0,0.0,0.0,0.0,0.0,0.0,0.0,0.0,0.0,0.0,0.0,0.0,0.0,0.0,0.0,0.0,0.0,0.0,0.0,0.0,0.0,0.0,0.0,0.0,0.0,0.0,0.0,0.0,0.0,0.0,0.0,0.0,0.0,0.0,0.0,0.0,0.0,0.0,0.0,0.0,0.0,0.0,0.0,0.0,0.0,0.0,0.0,0.0,0.0,0.0,0.0,0.0,0.0,0.0,0.0,0.0,0.0,0.0,0.0,0.0,0.0,0.0,0.0,0.0,0.0,0.0,0.0,0.0,0.0,0.0,0.0,0.0,0.0,0.0,0.0,0.0,0.0,0.0,0.0,0.0,0.0,0.0,0.0,0.0,0.0,0.0,7.8772,8.2306,8.4051,8.4206,8.3702,8.2498,7.8816,7.5849,7.4046,0.0,0.0,0.0,0.0,0.0,0.0,0.0,0.0,0.0,0.0,0.0,0.0,0.0,0.0,0.0,0.0,0.0,0.0,0.0,0.0,0.0,0.0,0.0,0.0,0.0,0.0,0.0,0.0,0.0,0.0,0.0,0.0,0.0,0.0,0.0,0.0,0.0,0.0,0.0,0.0,0.0,0.0,0.0,0.0,0.0,0.0,0.0,0.0,0.0,0.0,0.0,0.0,0.0,0.0,0.0,0.0,0.0,0.0,0.0,0.0,0.0,0.0,0.0,0.0,0.0,0.0,0.0,0.0,0.0,0.0,0.0,0.0,0.0,0.0,0.0,0.0,0.0,0.0,0.0,0.0,0.0,0.0,0.0,0.0,0.0,0.0,0.0,0.0,0.0,0.0,0.0,0.0,0.0,0.0,0.0,0.0,0.0,0.0,0.0,0.0,0.0,0.0,0.0,7.7827,8.1143,8.3818,8.3993,8.3469,8.2381,7.87,7.5384,7.2883,6.7939,0.0,0.0,0.0,0.0,0.0,0.0,0.0,0.0,0.0,0.0,0.0,0.0,0.0,0.0,0.0,0.0,0.0,0.0,0.0,0.0,0.0,0.0,0.0,0.0,0.0,0.0,0.0,0.0,0.0,0.0,0.0,0.0,0.0,0.0,0.0,0.0,0.0,0.0,0.0,0.0,0.0,0.0,0.0,0.0,0.0,0.0,0.0,0.0,0.0,0.0,0.0,0.0,0.0,0.0,0.0,0.0,0.0,0.0,0.0,0.0,0.0,0.0,0.0,0.0,0.0,0.0,0.0,0.0,0.0,0.0,0.0,0.0,0.0,0.0,0.0,0.0,0.0,0.0,0.0,0.0,0.0,0.0,0.0,0.0,0.0,0.0,0.0,0.0,0.0,0.0,0.0,0.0,0.0,0.0,0.0,0.0,0.0,0.0,0.0,0.0,0.0,0.0,7.5733,7.8525,8.1084,8.1317,8.1201,8.0984,7.7304,7.4395,7.2825,6.7939,0.0,0.0,0.0,0.0,0.0,0.0,0.0,0.0,0.0,0.0,0.0,0.0,0.0,0.0,0.0,0.0,0.0,0.0,0.0,0.0,0.0,0.0,0.0,0.0,0.0,0.0,0.0,0.0,0.0,0.0,0.0,0.0,0.0,0.0,0.0,0.0,0.0,0.0,0.0,0.0,0.0,0.0,0.0,0.0,0.0,0.0,0.0,0.0,0.0,0.0,0.0,0.0,0.0,0.0,0.0,0.0,0.0,0.0,0.0,0.0,0.0,0.0,0.0,0.0,0.0,0.0,0.0,0.0,0.0,0.0,0.0,0.0,0.0,0.0,0.0,0.0,0.0,0.0,0.0,0.0,0.0,0.0,0.0,0.0,0.0,0.0,0.0,0.0,0.0,0.0,0.0,0.0,0.0,0.0,0.0,0.0,0.0,0.0,0.0,0.0,0.0,0.0,7.2309,7.5125,7.9151,7.93,7.9209,7.9557,7.5656,7.31,7.27,6.6437,0.0,0.0,0.0,0.0,0.0,0.0,0.0,0.0,0.0,0.0,0.0,0.0,0.0,0.0,0.0,0.0,0.0,0.0,0.0,0.0,0.0,0.0,0.0,0.0,0.0,0.0,0.0,0.0,0.0,0.0,0.0,0.0,0.0,0.0,0.0,0.0,0.0,0.0,0.0,0.0,0.0,0.0,0.0,0.0,0.0,0.0,0.0,0.0,0.0,0.0,0.0,0.0,0.0,0.0,0.0,0.0,0.0,0.0,0.0,0.0,0.0,0.0,0.0,0.0,0.0,0.0,0.0,0.0,0.0,0.0,0.0,0.0,0.0,0.0,0.0,0.0,0.0,0.0,0.0,0.0,0.0,0.0,0.0,0.0,0.0,0.0,0.0,0.0,0.0,0.0,0.0,0.0,0.0,0.0,0.0,0.0,0.0,0.0,0.0,0.0,0.0,0.0,0.0,7.1396,7.6189,7.6478,7.6628,7.7295,7.3341,7.1171,7.1942,0.0,0.0,0.0,0.0,0.0,0.0,0.0,0.0,0.0,0.0,0.0,0.0,0.0,0.0,0.0,0.0,0.0,0.0,0.0,0.0,0.0,0.0,0.0,0.0,0.0,0.0,0.0,0.0,0.0,0.0,0.0,0.0,0.0,0.0,0.0,0.0,0.0,0.0,0.0,0.0,0.0,0.0,0.0,0.0,0.0,0.0,0.0,0.0,0.0,0.0,0.0,0.0,0.0,0.0,0.0,0.0,0.0,0.0,0.0,0.0,0.0,0.0,0.0,0.0,0.0,0.0,0.0,0.0,0.0,0.0,0.0,0.0,0.0,0.0,0.0,0.0,0.0,0.0,0.0,0.0,0.0,0.0,0.0,0.0,0.0,0.0,0.0,0.0,0.0,0.0,0.0,0.0,0.0,0.0,0.0,0.0,0.0,0.0,0.0,0.0,0.0,0.0,0.0,0.0,6.7643,6.8604,7.0318,7.1565,7.1914,6.9254,6.7927,6.8695,0.0,0.0,0.0,0.0,0.0,0.0,0.0,0.0,0.0,0.0,0.0,0.0,0.0,0.0]}]]]